GFSMA_500_spd_000.txt.gz
Wind_Speed
36 36 37 38 38 37 37 38 38 38 38 39 39 39 39 39 39 39 39 38 38 38 37 35 36 35 34 35 34 32 35 37 39 41 48 51 50 48 50 49 47 45 42
38 39 39 40 39 39 41 42 42 42 42 42 42 42 42 43 44 44 44 43 43 42 43 42 41 41 38 38 37 36 36 38 39 45 47 50 60 52 51 51 50 48 45
43 43 43 44 44 43 42 42 42 42 44 45 46 46 48 48 49 49 49 49 49 49 48 48 48 46 45 43 42 41 39 41 42 43 42 51 59 57 56 54 53 51 49
44 45 45 47 47 45 42 40 40 40 40 42 44 46 47 47 47 48 49 50 52 53 53 53 53 52 51 49 47 46 46 44 45 47 44 42 50 58 59 57 56 55 54
47 47 47 47 47 47 47 47 47 46 46 46 46 46 47 47 47 48 48 49 51 53 54 53 55 56 56 55 53 52 52 52 51 51 50 48 47 45 52 64 61 60 58
50 50 50 50 52 53 53 54 54 54 55 53 55 56 53 54 54 54 52 51 52 53 56 58 56 57 57 58 59 58 57 58 58 57 55 52 51 48 52 50 58 58 62
53 54 54 56 57 58 59 59 61 62 61 62 63 62 62 64 60 60 56 56 55 57 59 60 61 61 60 60 61 63 63 63 63 63 62 59 55 54 51 49 49 59 66
57 58 60 62 63 66 67 66 67 67 68 65 65 66 67 67 68 63 63 60 58 59 60 60 63 62 63 63 62 65 66 68 68 68 67 66 62 60 58 58 60 64 60
64 65 66 67 68 69 70 71 71 71 73 72 71 72 71 72 73 72 72 63 66 61 61 60 62 64 65 64 64 64 67 69 72 73 73 71 70 67 65 63 63 62 62
68 69 72 74 74 74 74 74 74 75 76 74 76 77 75 73 73 74 76 75 66 70 69 66 64 64 65 67 67 69 68 69 71 74 76 77 76 74 72 70 69 67 66
74 76 77 79 79 79 78 76 76 78 78 78 75 73 73 73 71 74 75 76 76 74 68 71 72 69 68 68 69 70 72 71 74 75 77 78 80 81 79 78 76 74 71
79 81 81 81 81 82 82 83 82 80 78 79 78 76 76 72 71 71 74 75 74 76 75 69 73 75 73 72 72 71 74 75 75 77 79 80 82 82 83 82 82 80 79
81 81 82 82 84 85 85 83 85 87 83 83 85 84 84 84 81 78 77 77 79 77 75 74 74 76 76 77 76 76 77 78 79 79 79 79 81 82 84 84 83 84 83
82 84 85 87 86 87 88 89 93 93 93 90 82 83 84 83 81 80 79 77 78 79 78 78 79 78 79 79 82 79 80 82 82 84 83 82 83 82 83 83 84 84 84
83 84 85 85 88 92 93 96 89 86 78 72 67 58 66 67 66 64 66 69 68 69 67 76 70 74 75 78 79 76 72 79 82 86 87 87 84 85 86 86 84 84 86
85 87 88 90 94 96 93 81 68 59 53 51 48 49 44 41 45 40 54 56 56 60 67 73 77 71 72 72 74 76 72 70 76 78 84 87 89 89 88 88 87 86 86
88 90 92 93 96 84 68 54 46 46 40 48 49 55 47 49 51 51 50 52 64 66 65 64 64 68 65 67 68 71 76 77 77 73 75 82 86 91 92 92 91 88 88
91 95 94 83 70 59 45 44 44 43 46 50 50 50 51 53 52 51 49 49 50 56 61 62 61 67 70 67 62 63 65 64 67 71 76 80 83 87 92 93 93 93 91
94 89 74 61 50 46 45 46 47 48 50 51 50 48 47 47 47 49 50 48 50 51 52 54 52 53 55 55 55 57 62 66 67 70 69 69 72 76 80 85 89 92 93
85 70 60 52 51 50 49 48 50 51 51 51 50 49 46 44 43 41 40 40 41 45 48 51 50 50 52 54 54 54 56 60 61 63 64 66 67 68 69 70 72 77 84
62 55 55 55 52 51 49 49 49 49 49 49 48 46 44 42 42 42 41 40 41 41 43 47 48 48 50 53 55 55 57 60 61 64 64 65 67 69 69 68 68 69 71
55 56 54 53 54 54 52 53 52 52 52 51 51 50 49 45 44 43 42 42 42 43 43 45 46 44 44 48 50 51 53 55 59 64 66 66 69 70 70 69 67 67 68
55 55 56 58 60 61 58 58 56 56 55 54 54 52 51 49 47 45 45 44 44 43 41 41 40 41 42 44 44 43 43 44 48 54 62 66 70 71 71 71 69 66 66
56 59 61 62 61 59 57 56 54 53 53 53 53 54 53 50 47 44 42 40 38 36 36 38 39 33 31 34 35 35 36 36 37 37 38 39 48 64 74 74 71 68 67
58 61 61 58 55 51 50 49 47 45 44 44 45 46 47 45 43 40 37 33 29 29 32 29 31 34 37 40 41 43 42 44 43 42 42 41 40 37 40 58 70 70 68
59 59 56 53 51 48 47 42 40 37 35 35 36 37 38 37 34 31 27 24 22 23 25 27 28 28 30 33 37 39 41 42 45 47 47 47 45 44 44 36 43 58 67

GFSMA_500_spd_003.txt.gz
Wind_Speed
35 36 39 41 41 40 40 40 39 40 41 41 40 39 39 38 38 38 40 38 40 40 41 42 41 39 37 36 35 34 31 30 31 30 34 45 50 54 50 48 47 44 41
41 41 43 43 42 42 43 42 42 42 42 42 41 40 40 41 42 43 45 44 44 44 44 44 45 45 44 41 40 39 38 35 34 32 32 36 38 49 59 54 49 48 45
43 43 44 43 42 42 42 42 42 41 40 41 40 40 41 43 45 45 46 48 45 48 48 48 48 49 48 47 46 44 42 42 39 38 36 36 33 35 54 62 55 50 48
47 46 45 45 46 46 46 46 45 45 45 43 43 44 44 44 46 47 48 49 51 47 46 50 51 52 53 53 51 50 48 46 45 44 40 37 42 38 44 46 50 55 50
48 48 50 51 51 51 51 52 52 53 53 53 52 53 51 50 53 55 54 54 52 53 53 49 51 53 54 55 56 55 54 52 51 50 49 46 45 39 44 41 48 57 56
51 53 55 56 56 57 57 57 59 60 61 63 63 62 62 63 61 60 62 60 60 60 58 61 56 55 56 56 55 56 58 58 56 55 55 54 52 51 48 46 46 53 64
54 57 59 60 61 63 64 64 65 65 67 68 68 68 68 67 69 69 68 68 68 69 66 61 67 63 61 58 59 57 58 60 61 61 60 60 59 57 54 51 48 47 48
61 63 66 68 68 69 71 72 73 73 73 73 74 70 73 72 73 77 75 72 71 71 73 73 68 66 66 67 62 61 61 61 62 64 64 64 64 64 61 57 55 50 53
67 68 70 71 72 74 76 78 79 78 78 76 75 75 74 75 73 73 75 80 79 79 72 71 76 72 67 65 69 65 63 63 63 65 67 68 68 69 68 65 61 59 56
69 71 75 77 77 78 79 79 79 79 79 78 78 77 76 77 73 71 70 74 79 79 78 76 70 75 69 67 67 69 66 66 65 65 66 70 72 72 73 72 69 66 64
72 77 79 79 78 78 79 80 81 80 79 80 79 80 81 79 77 78 74 71 70 78 79 75 82 72 73 71 71 71 69 70 68 68 68 69 72 75 76 77 76 72 71
76 78 79 79 79 80 81 81 82 82 82 83 82 84 85 85 85 86 83 79 80 77 78 79 78 84 76 71 75 77 75 71 71 71 71 73 74 75 76 78 81 79 76
75 76 79 80 80 82 83 84 86 87 89 88 87 89 88 89 87 87 85 82 82 81 65 72 79 82 82 78 73 79 77 75 72 74 73 74 76 76 78 79 79 82 82
76 79 80 81 83 83 84 86 90 94 94 95 91 87 79 73 74 69 60 65 70 75 74 79 83 80 81 85 84 77 78 79 79 74 74 77 77 77 77 77 79 82 84
83 85 84 85 87 87 87 88 92 94 82 70 65 65 60 48 45 41 44 40 44 56 70 76 60 65 70 84 89 87 79 83 81 79 78 77 79 81 80 79 79 79 81
91 90 86 89 88 90 91 90 80 66 58 52 49 44 50 44 46 43 50 46 44 43 51 56 63 72 70 72 74 82 73 80 81 82 84 84 83 82 82 83 81 80 81
97 91 90 88 88 86 78 64 55 50 48 48 47 47 48 47 51 52 54 53 47 45 46 53 56 57 60 61 63 69 77 73 73 79 83 84 85 84 83 83 85 84 83
94 92 88 85 76 66 58 52 51 50 51 51 50 50 49 50 50 48 50 53 52 56 52 50 50 52 52 55 60 62 62 61 67 69 76 80 80 83 86 87 88 89 88
87 84 77 68 60 53 53 54 53 51 51 51 50 49 49 49 48 46 44 43 44 48 50 51 48 49 50 50 52 57 57 62 67 72 75 75 74 77 83 88 89 89 89
82 73 62 54 52 52 53 53 54 55 55 55 54 52 50 49 47 45 43 41 40 40 42 44 46 48 49 50 51 53 54 56 57 61 64 66 69 74 80 87 89 88 88
66 59 53 51 53 55 57 57 59 58 58 57 57 57 55 52 49 47 44 41 40 40 40 39 38 40 43 47 49 51 52 54 55 57 58 58 58 62 68 76 82 85 87
56 52 53 55 58 61 62 60 60 58 56 54 54 54 54 54 52 49 47 45 42 41 40 39 38 39 40 43 47 49 51 54 55 57 59 58 61 59 58 61 67 72 74
51 52 55 58 61 62 61 56 54 53 50 48 48 48 49 48 49 48 47 45 43 43 42 40 39 39 40 41 43 45 47 50 52 56 58 60 63 63 64 65 67 67 66
51 54 56 60 61 57 56 50 47 46 45 44 44 42 42 41 42 43 43 44 42 41 40 39 38 37 37 39 41 42 44 46 49 53 56 58 60 62 65 67 67 69 70
51 53 58 60 56 51 52 50 47 44 41 40 40 39 38 35 35 36 36 37 38 36 36 35 34 32 32 31 32 34 35 38 38 39 42 44 43 47 54 62 66 71 71
50 53 57 55 50 51 51 48 46 41 38 38 35 34 34 31 28 28 28 29 27 29 31 29 27 24 25 24 27 30 34 39 42 43 45 47 46 45 44 43 45 46 50

GFSMA_500_spd_009.txt.gz
Wind_Speed
37 37 40 40 40 40 39 37 36 34 32 31 30 29 30 32 32 32 31 29 29 33 34 34 36 36 36 36 37 39 38 35 32 30 28 23 23 24 24 24 37 36 47
40 40 43 40 39 37 37 35 34 34 35 36 35 35 33 34 35 37 37 36 36 35 36 38 38 37 36 38 40 41 41 41 40 37 35 29 28 28 28 28 26 29 43
45 44 45 43 42 40 40 37 37 39 42 43 42 41 41 41 40 40 43 45 44 44 43 43 43 43 41 39 39 41 43 44 44 43 40 38 34 34 30 31 27 29 27
45 47 46 46 46 45 45 44 44 47 50 50 50 50 49 49 49 50 48 47 49 49 50 48 48 49 49 47 45 43 43 45 46 47 46 44 42 39 37 33 32 28 27
53 50 49 52 53 52 52 52 53 56 57 57 58 57 56 55 55 56 56 57 56 56 56 55 54 53 53 54 52 51 49 47 48 49 50 48 47 46 42 39 36 34 30
52 56 56 55 56 56 59 61 63 60 62 63 64 63 62 61 60 60 62 63 64 65 65 65 65 63 61 59 58 58 55 55 53 52 53 52 52 51 49 45 42 39 38
58 56 56 57 60 61 62 64 67 70 72 75 74 72 71 70 70 70 70 70 71 73 74 73 72 73 72 68 66 62 61 59 59 59 58 57 54 55 55 52 50 48 45
61 63 65 65 66 67 68 71 73 75 75 78 79 79 78 75 74 73 74 74 75 76 79 79 80 79 78 75 73 75 70 64 63 62 64 63 62 58 58 58 56 54 50
63 66 69 72 75 76 76 76 77 78 78 77 79 80 82 83 82 79 77 76 74 75 76 79 82 83 83 82 81 79 76 66 62 64 65 67 67 66 62 62 62 61 60
68 72 75 77 79 80 82 82 80 79 79 79 80 82 82 84 86 88 81 78 78 77 77 75 77 80 80 79 80 76 74 73 72 68 65 67 69 70 69 66 65 66 66
77 80 80 81 83 84 83 83 82 82 82 81 81 82 84 85 88 90 84 79 80 81 82 81 80 80 80 76 74 68 59 68 64 65 63 61 66 69 71 71 70 69 70
80 81 83 85 84 83 84 84 83 82 83 84 87 90 90 89 89 95 98 92 89 85 87 88 89 88 85 83 78 71 78 74 69 65 68 54 63 68 71 73 74 74 73
85 85 85 85 84 84 84 84 85 86 86 87 89 89 90 91 91 91 93 92 91 88 88 90 91 92 91 89 85 77 70 73 69 64 69 68 69 62 68 74 75 76 75
83 82 82 83 85 84 84 85 86 88 89 89 89 87 85 79 74 69 66 65 63 64 60 62 66 71 81 88 89 84 81 78 68 79 88 76 75 66 65 74 79 77 76
81 81 82 81 82 83 84 84 84 84 83 78 72 66 61 56 53 50 49 49 50 46 41 39 41 45 47 53 60 68 77 79 70 70 73 81 62 66 77 76 75 80 79
81 82 81 81 81 81 81 81 78 72 65 57 52 46 45 45 46 46 49 52 51 50 42 40 39 41 40 38 45 53 66 73 67 57 64 66 69 68 67 75 74 74 80
81 80 77 77 78 76 73 68 63 55 47 45 47 48 47 48 48 48 49 50 50 49 47 40 41 40 43 42 41 43 55 72 57 58 60 66 69 70 69 73 78 75 77
78 73 73 70 69 67 62 57 49 44 45 48 49 51 53 54 54 54 54 54 54 53 49 41 38 40 41 46 44 45 45 51 71 67 64 59 58 68 71 77 74 71 72
79 77 72 73 67 59 52 43 41 43 47 50 53 55 54 53 52 53 55 56 56 56 54 48 41 37 41 43 48 51 52 52 53 55 56 56 61 65 60 62 64 75 82
74 71 69 69 53 44 38 40 44 46 50 53 53 51 49 48 48 48 48 51 53 54 56 53 47 42 38 41 43 48 54 51 56 57 56 53 56 60 63 64 65 63 64
72 68 71 51 40 38 41 44 46 50 53 52 50 47 47 46 46 47 46 43 41 46 48 51 50 45 41 41 40 42 49 53 52 54 54 54 53 61 70 68 63 63 65
66 58 63 46 42 42 44 47 50 52 51 49 47 46 47 46 46 45 46 43 40 37 40 44 48 46 42 42 40 40 42 47 52 58 57 60 54 54 56 59 65 68 63
54 61 46 45 45 44 46 51 52 50 48 46 45 44 42 42 41 41 40 39 37 35 34 38 43 43 42 41 39 38 38 40 41 46 50 52 54 54 55 56 57 60 62
52 38 40 44 43 46 50 51 49 45 43 41 40 40 38 37 38 37 36 35 34 32 31 33 37 38 40 40 39 36 36 37 39 42 46 46 50 51 54 54 54 55 59
28 34 40 41 42 48 48 46 42 40 34 36 35 35 34 31 28 27 26 24 24 27 27 28 32 34 37 38 38 35 33 34 35 38 42 44 47 50 52 52 53 54 54
29 36 39 40 43 46 45 41 38 30 30 34 35 35 33 29 24 21 16 15 17 21 23 25 28 29 31 33 34 34 34 34 33 35 39 42 42 44 46 48 51 53 54

GFSMA_500_spd_012.txt.gz
Wind_Speed
37 38 40 39 38 36 35 35 34 31 30 28 28 30 32 33 34 36 36 37 35 33 34 33 31 32 34 36 36 37 37 36 36 35 31 28 28 29 25 24 29 45 44
38 40 43 42 41 39 39 37 36 35 33 34 33 35 36 37 38 39 41 42 43 43 41 39 39 38 36 36 37 39 40 41 39 39 38 38 34 32 29 28 28 25 31
43 44 42 41 41 41 43 45 45 43 42 40 40 42 44 45 46 45 45 46 46 47 47 47 47 45 45 44 42 42 42 43 43 43 42 41 43 39 37 32 34 29 28
43 39 39 43 45 46 45 46 47 48 49 50 51 52 52 54 53 53 52 53 54 53 52 51 51 51 52 50 49 49 48 46 45 45 45 45 45 45 43 39 38 34 33
45 45 43 43 44 45 48 50 53 55 57 57 58 59 60 61 61 61 60 60 58 59 62 60 56 56 54 54 54 54 54 54 52 49 47 47 47 49 48 43 42 37 39
49 49 50 50 51 52 54 56 58 61 64 66 66 67 68 69 70 71 72 71 69 68 67 67 67 66 64 61 60 58 56 58 58 57 54 51 50 49 51 50 46 45 39
53 54 56 57 58 60 62 64 66 67 69 71 72 73 75 75 77 77 77 78 78 78 77 76 75 74 73 73 71 68 66 60 58 61 61 59 56 54 53 53 54 50 46
58 60 64 67 69 71 74 75 76 76 77 78 78 79 78 78 80 81 82 82 81 80 81 82 83 83 82 80 79 77 75 70 65 64 65 65 64 61 59 57 57 57 55
65 67 70 73 76 79 81 83 83 84 83 83 85 86 85 84 85 84 82 82 83 82 82 83 83 84 85 85 84 83 82 79 76 71 66 67 69 68 66 63 61 61 62
67 71 74 78 81 84 85 86 85 85 85 84 85 86 87 88 88 86 85 84 82 82 81 81 82 84 87 87 86 84 81 80 79 78 72 68 68 72 71 69 67 66 64
72 78 80 83 84 86 87 85 84 84 85 86 86 86 87 87 87 87 84 82 82 82 83 85 85 85 86 86 87 86 84 76 76 76 76 68 64 69 73 75 73 72 70
80 83 87 90 91 90 87 84 84 84 84 85 87 88 89 90 90 91 92 87 88 85 88 92 92 91 92 91 89 87 86 83 80 76 73 67 68 67 70 73 76 76 74
88 88 89 89 89 86 84 84 86 87 88 89 89 90 90 91 92 92 93 93 92 91 91 93 96 97 98 97 95 94 91 89 86 79 73 60 65 63 66 73 76 78 77
89 90 90 87 85 87 88 89 90 90 88 87 87 85 84 81 79 76 74 72 73 71 70 69 70 75 79 85 90 95 96 94 90 87 80 74 70 66 67 65 71 78 78
89 89 91 89 88 90 88 86 80 81 82 77 75 71 69 66 61 58 55 53 53 55 53 47 48 51 53 55 57 65 76 82 89 87 82 79 77 73 72 68 69 69 74
86 88 89 89 88 79 65 68 77 74 66 63 61 60 55 50 48 48 49 50 51 51 54 46 43 45 47 47 45 45 49 56 63 68 70 78 79 69 64 67 74 75 73
93 90 91 88 78 62 62 72 66 63 50 46 45 45 46 48 50 52 53 54 55 55 57 53 48 44 44 48 48 45 43 41 39 51 67 78 76 71 75 75 68 70 76
96 89 77 77 66 65 67 63 64 46 45 43 45 47 49 51 53 56 58 58 58 59 60 58 57 52 48 47 49 48 44 42 41 36 50 59 82 89 72 63 72 69 64
86 71 70 55 63 69 72 66 53 49 50 50 50 52 55 57 57 57 55 54 54 54 57 57 57 59 56 51 46 49 47 48 43 40 50 56 61 59 78 77 72 78 72
75 67 56 55 69 71 62 50 49 51 51 53 56 57 56 55 54 53 52 51 49 47 48 49 48 54 57 55 49 47 49 46 51 50 49 61 62 58 56 67 72 77 80
67 54 45 60 62 48 42 47 48 50 53 55 54 50 50 49 48 48 49 48 47 45 44 45 42 46 52 54 53 48 45 48 51 53 53 53 64 67 60 61 63 64 71
53 47 48 52 39 39 45 46 48 52 52 50 47 43 39 40 41 42 42 42 40 40 42 44 43 41 44 49 52 48 46 46 49 48 58 56 58 57 56 61 50 57 66
42 38 37 32 36 41 44 45 51 50 49 45 40 40 41 43 42 40 40 39 37 37 37 37 39 37 39 46 47 45 46 45 44 46 46 54 59 57 62 59 61 52 52
34 34 31 33 39 42 44 48 49 48 43 38 39 42 43 42 40 37 38 32 30 33 35 34 33 34 36 39 42 42 44 42 40 39 41 42 54 56 54 59 59 60 57
31 31 31 35 40 42 43 48 44 41 35 35 39 41 41 38 35 32 32 26 22 24 27 29 30 30 31 34 37 39 41 39 35 36 37 37 40 42 48 51 54 55 57
33 32 34 38 41 42 46 46 43 36 31 33 36 37 37 35 30 25 25 22 17 17 16 18 22 24 26 30 33 35 37 35 33 33 35 34 37 39 40 43 46 49 51

GFSMA_500_spd_018.txt.gz
Wind_Speed
31 36 40 41 42 46 40 35 34 33 33 31 32 31 31 31 31 32 32 34 35 36 36 36 37 36 34 34 34 35 35 36 35 33 34 34 32 28 28 31 30 33 38
34 38 40 43 45 47 43 40 38 38 37 36 36 36 36 37 38 39 39 39 39 40 41 41 42 43 43 42 40 40 38 37 38 39 39 37 39 37 34 35 33 33 33
37 40 43 46 46 45 45 42 40 40 39 40 41 42 42 43 45 45 46 47 48 47 47 47 47 47 47 48 48 47 45 45 44 42 42 43 42 41 42 41 39 36 35
38 43 47 47 47 45 43 41 43 44 45 47 49 50 50 51 51 52 54 56 56 56 56 55 54 54 53 53 53 53 53 51 50 50 48 46 45 46 47 45 45 43 39
47 52 46 45 47 42 44 46 50 52 54 56 59 60 59 60 61 62 62 63 63 64 64 65 64 63 61 60 60 60 59 59 57 55 55 53 51 50 48 49 48 47 47
53 52 51 50 48 50 54 57 59 62 63 65 66 66 67 69 71 72 74 74 75 74 74 73 73 71 70 70 68 66 66 66 65 62 60 60 58 56 54 52 50 51 52
51 51 49 51 54 59 63 66 69 70 72 74 76 76 76 76 77 78 80 81 82 83 83 83 82 80 77 76 75 75 73 71 72 71 69 64 64 62 59 58 54 52 53
48 49 52 58 63 68 72 73 75 78 79 80 82 83 83 82 82 80 79 80 80 81 82 83 83 83 83 82 81 80 80 79 77 76 76 74 69 68 67 64 62 59 56
51 56 61 65 69 70 73 78 80 83 85 87 89 91 93 94 94 90 88 88 88 86 85 84 84 86 86 85 85 85 84 84 84 82 80 80 77 75 72 71 68 67 63
58 62 65 68 71 76 80 84 87 88 91 93 93 95 96 97 98 98 96 95 93 92 92 92 92 91 91 90 89 89 89 89 87 87 86 84 80 79 77 75 75 72 70
64 67 71 75 81 84 86 88 90 94 97 97 96 95 95 96 96 97 97 94 94 94 95 96 97 98 100 98 96 96 96 94 93 91 89 88 85 82 80 78 78 77 75
69 73 77 82 87 89 91 94 97 99 96 96 97 99 97 92 88 87 84 81 80 78 81 86 88 91 95 97 97 97 96 96 94 92 90 88 86 85 83 80 79 79 80
74 78 81 86 89 92 95 98 99 101 103 104 100 93 80 75 78 74 66 69 68 65 59 57 60 65 68 71 79 85 90 92 93 94 90 88 86 85 85 84 80 78 80
76 80 85 91 96 98 100 99 101 105 103 91 78 73 72 76 68 66 70 56 54 49 40 38 39 43 46 49 53 56 64 73 83 88 92 90 87 87 86 84 84 78 77
80 86 90 94 98 101 101 104 106 100 84 73 69 69 69 65 62 64 50 53 55 50 42 39 41 40 41 42 43 43 43 45 53 64 76 85 87 87 88 87 85 82 78
87 92 96 98 100 101 104 103 90 74 66 62 60 56 55 57 60 52 52 53 55 56 52 46 44 45 46 46 46 47 45 42 41 43 51 61 71 79 84 85 85 84 81
92 94 97 99 101 103 98 80 65 57 49 45 44 42 42 46 50 51 54 55 55 57 58 51 51 47 49 51 52 52 50 48 44 41 41 44 51 63 75 82 85 84 83
93 95 97 101 100 94 74 59 50 37 35 40 46 46 47 48 52 52 53 53 50 49 51 49 44 44 47 50 55 56 55 53 51 46 42 41 41 44 56 69 80 84 82
95 98 100 98 93 72 53 44 35 36 38 44 48 48 47 52 49 50 46 43 44 47 50 53 46 45 42 43 50 53 54 56 55 52 46 42 43 41 43 55 68 77 79
96 99 96 89 70 53 41 37 38 39 43 48 51 50 54 50 49 43 41 44 48 50 51 52 51 47 45 45 45 48 51 52 53 54 50 45 43 44 40 44 59 71 76
98 94 86 70 55 44 38 39 40 42 46 50 51 53 51 50 43 42 44 43 45 48 47 46 46 44 43 43 44 45 48 49 49 50 50 47 43 44 39 39 43 52 70
91 84 70 57 46 39 40 41 41 43 47 50 49 52 47 44 39 41 42 45 48 49 45 42 37 36 37 40 44 42 43 44 43 45 46 46 44 42 44 39 47 53 48
83 69 57 46 39 37 40 39 40 43 48 48 51 47 44 37 37 38 42 47 48 47 42 36 31 33 34 34 33 33 35 39 39 40 40 44 45 43 50 45 41 43 46
71 59 47 40 36 37 38 38 39 43 45 46 48 43 40 34 36 37 42 45 46 42 37 30 29 25 24 23 21 25 27 31 31 33 36 40 45 43 50 52 44 49 50
61 50 40 36 35 35 36 38 40 44 43 46 44 41 35 33 34 36 42 42 42 38 33 25 21 18 16 17 20 20 21 26 28 29 30 39 45 44 45 57 51 49 49
53 42 37 35 34 34 36 37 40 41 41 44 39 38 33 31 32 34 40 40 39 35 30 22 16 13 9 13 18 18 18 22 26 26 30 39 44 43 38 48 60 54 55

GFSMA_500_spd_021.txt.gz
Wind_Speed
29 30 33 35 36 36 39 41 43 45 45 39 38 36 34 34 34 32 32 32 33 33 33 33 34 36 35 34 34 35 36 35 36 36 36 36 36 36 32 29 33 34 45
30 36 35 33 34 39 44 45 45 46 43 39 35 35 38 39 40 40 40 41 41 41 41 40 40 41 42 42 40 40 40 41 40 40 40 40 39 40 39 37 34 30 31
34 37 33 33 43 49 44 44 44 45 42 38 39 42 45 47 48 48 48 48 49 49 49 49 48 48 48 47 49 48 47 46 47 46 45 44 43 43 43 45 40 37 34
34 36 43 52 50 47 45 45 46 44 43 45 50 53 55 55 56 56 57 57 57 58 58 58 58 57 56 56 54 54 55 55 53 53 51 50 49 47 47 49 46 42 41
48 50 52 52 50 48 44 44 45 48 52 56 59 61 62 64 66 67 67 67 67 67 67 67 68 68 67 65 64 64 61 61 62 60 58 57 55 55 52 52 50 48 46
48 47 48 48 47 46 47 50 53 57 60 64 66 69 71 72 73 73 74 75 76 76 77 78 78 77 76 76 75 74 73 70 68 67 66 64 63 61 59 57 54 52 51
45 45 45 46 47 50 55 60 64 65 67 69 73 74 74 75 75 77 78 79 81 82 83 85 86 87 87 86 85 84 82 80 78 75 73 71 69 66 65 62 60 57 56
44 45 49 51 55 59 62 63 64 67 70 74 76 78 80 80 82 87 89 89 89 88 89 89 91 93 95 95 93 92 91 89 86 84 81 79 77 75 71 69 65 64 61
51 53 55 58 61 63 64 66 69 73 79 83 86 90 92 94 97 97 96 98 98 98 97 95 94 94 94 96 99 99 98 97 93 89 87 85 83 82 80 76 74 70 68
54 56 59 61 62 64 69 72 78 82 86 90 94 98 102 105 106 107 106 107 108 105 103 102 100 99 99 97 96 96 100 103 102 97 93 90 88 87 87 83 79 79 75
57 60 61 63 67 72 76 81 86 90 92 96 100 103 105 106 108 110 107 96 89 86 85 84 85 88 94 98 100 101 99 98 100 101 99 97 93 91 90 89 86 82 82
59 61 64 69 73 78 84 89 92 94 97 101 105 110 109 100 91 86 81 75 66 61 63 65 68 71 71 74 82 90 96 100 101 102 103 101 99 96 93 91 90 88 83
62 66 70 75 80 86 90 93 94 98 103 108 108 100 89 79 72 66 64 63 60 49 44 45 44 45 48 49 53 61 70 77 86 97 103 104 103 100 97 93 91 89 87
67 71 75 80 86 91 93 95 100 105 106 106 92 76 64 57 52 48 46 47 45 41 37 40 42 44 47 50 45 44 49 54 60 70 86 97 101 102 100 95 91 90 87
72 76 81 86 90 92 96 101 103 107 101 83 67 56 44 36 39 44 47 48 49 44 41 41 43 46 48 50 49 45 42 42 46 53 61 72 85 95 99 97 91 89 88
77 83 87 91 94 96 100 104 102 92 75 59 49 39 37 39 43 46 45 48 53 51 45 45 44 46 48 50 52 52 48 44 42 43 49 54 62 72 85 93 92 88 87
82 87 91 93 97 100 102 99 85 67 52 46 39 38 40 44 46 47 50 53 50 52 52 41 43 42 42 44 45 49 52 52 48 44 44 44 47 56 66 76 87 89 87
87 89 91 95 100 101 94 79 63 49 43 41 39 41 43 47 48 49 52 49 48 44 45 43 42 44 46 46 45 44 45 50 54 51 48 46 44 45 54 65 73 80 86
86 88 93 99 100 94 77 62 50 42 39 39 39 42 46 48 47 51 46 46 40 43 45 45 42 46 47 46 46 47 46 43 47 54 54 50 47 45 44 52 63 73 78
87 94 98 100 90 74 62 50 43 39 39 39 40 43 48 49 50 47 46 38 40 41 45 49 48 48 47 44 44 45 46 45 43 45 52 54 51 48 44 43 50 59 73
92 97 99 87 72 62 52 43 39 37 39 39 41 45 47 48 49 46 40 38 39 43 47 49 49 46 42 40 39 40 41 43 43 41 45 51 53 50 48 44 44 47 56
94 97 87 72 62 53 43 39 37 38 38 38 40 43 45 47 44 42 36 37 40 45 47 49 45 42 37 35 32 33 36 39 38 41 41 46 49 50 50 47 45 44 46
94 86 74 64 55 44 38 36 35 34 35 38 41 41 43 46 41 36 33 36 41 45 47 46 41 36 29 29 30 32 35 38 37 39 39 42 45 46 49 50 46 44 42
83 76 65 56 47 38 35 34 33 33 36 38 39 41 41 42 39 32 32 34 40 42 45 41 36 30 25 24 23 23 24 25 25 29 33 36 40 42 46 50 46 42 37
76 67 58 50 41 36 34 33 32 33 35 37 39 40 41 38 35 28 30 33 38 40 43 37 31 26 22 19 16 13 13 14 18 23 27 30 35 37 44 51 46 47 41
70 61 51 44 37 34 33 31 30 32 34 36 38 39 39 33 32 27 28 30 34 37 39 34 29 23 18 14 8 8 10 11 14 20 24 28 31 35 45 51 48 50 47

GFSMA_500_spd_024.txt.gz
Wind_Speed
31 30 31 37 38 35 36 31 37 44 43 41 42 42 40 37 35 34 37 36 38 38 39 39 39 38 38 38 38 40 41 40 38 36 34 35 36 38 37 35 31 31 39
33 40 35 36 36 33 34 43 50 45 43 43 43 42 40 38 39 39 41 44 44 46 46 47 47 47 46 45 45 44 45 46 46 44 42 39 39 40 39 39 38 35 37
26 29 36 41 44 44 48 49 45 42 43 41 40 39 40 42 45 47 49 50 53 52 53 54 54 53 54 53 53 52 51 50 51 52 50 48 45 43 43 42 42 42 41
33 37 43 48 47 46 46 46 44 41 40 40 41 44 46 49 53 56 57 57 60 61 63 61 63 63 61 61 61 60 60 58 57 57 57 57 54 51 48 47 46 46 46
35 39 40 42 43 43 44 45 46 45 46 47 50 53 55 57 59 61 65 68 70 71 71 74 72 73 71 70 70 69 69 68 66 64 62 62 63 61 57 54 52 50 48
38 39 39 40 41 43 45 47 50 52 55 56 56 58 58 59 61 64 67 68 72 75 75 76 79 80 81 81 80 79 78 77 76 74 71 69 67 68 66 63 59 56 54
41 41 43 47 50 52 53 54 57 59 59 59 61 62 64 68 72 74 74 79 81 84 85 86 87 88 90 90 90 89 89 87 85 83 82 79 76 74 73 72 68 64 61
46 48 49 52 54 56 58 59 59 59 63 66 67 71 73 77 82 85 88 90 92 93 96 98 98 99 100 99 101 99 98 96 96 93 91 89 86 83 80 78 76 73 69
51 53 54 56 56 57 58 60 62 66 69 73 76 81 83 87 89 91 94 97 100 103 106 107 109 111 110 108 106 107 107 106 104 103 100 99 97 93 88 86 82 81 77
55 54 56 57 58 59 62 66 69 74 78 82 86 89 91 93 96 97 102 107 110 108 103 100 98 97 98 98 100 103 107 109 112 112 110 107 105 102 97 93 90 86 84
57 59 59 59 61 64 68 73 77 81 85 89 92 94 98 101 104 109 107 102 90 81 77 73 72 72 74 77 81 87 91 97 102 108 114 114 110 108 105 100 95 93 89
62 61 60 62 65 69 74 79 84 89 91 91 96 101 106 108 104 90 79 72 64 55 55 54 56 56 54 57 63 70 74 79 85 93 103 108 113 113 108 106 100 95 94
60 60 62 65 71 77 81 86 90 89 92 99 105 109 107 91 77 64 58 53 50 40 39 42 42 44 46 45 47 48 50 57 63 71 80 96 107 110 110 107 104 99 96
60 61 65 70 76 80 85 88 88 94 100 105 106 94 79 66 55 48 46 47 45 42 41 41 42 46 48 49 47 48 47 48 50 51 53 64 81 102 109 109 107 101 97
61 64 69 74 79 84 85 88 95 100 102 96 85 73 60 50 45 43 44 47 48 45 40 40 43 45 46 48 49 49 51 50 49 49 51 49 57 69 88 104 107 105 101
63 68 73 78 82 83 86 93 98 100 92 78 67 57 48 45 43 43 45 46 47 48 44 43 43 46 45 44 46 48 49 52 52 50 51 50 50 56 66 79 95 102 103
67 71 76 80 83 88 94 98 96 87 74 64 54 47 43 43 41 43 46 48 47 50 49 39 40 41 42 42 44 45 46 47 49 52 53 53 50 51 56 64 73 85 94
71 75 78 84 90 95 97 94 87 73 62 53 45 41 41 41 41 44 47 48 49 46 47 39 37 39 42 44 47 47 48 47 49 49 53 52 53 51 52 55 60 68 79
75 80 85 90 95 99 93 85 72 61 52 44 40 39 40 40 41 45 47 47 46 44 40 40 37 43 47 50 50 51 50 49 48 49 52 48 54 54 51 50 52 58 66
77 85 87 92 101 94 84 72 62 53 45 41 39 39 40 40 43 45 46 45 43 39 38 40 42 47 49 50 50 48 47 45 45 46 49 49 48 53 53 51 49 51 57
83 88 92 98 97 84 74 65 55 46 40 38 38 38 39 41 43 45 44 42 40 36 38 41 45 46 48 47 47 43 40 38 39 42 44 47 45 47 55 54 51 48 49
85 90 94 97 85 77 67 58 47 41 38 37 37 38 39 41 42 43 43 40 36 35 37 42 43 46 44 43 40 35 32 32 31 36 40 44 47 43 51 56 52 48 46
87 89 95 88 79 70 61 50 42 38 36 36 36 36 38 40 40 41 40 36 32 35 38 41 42 42 40 38 33 30 28 28 30 31 37 39 42 42 45 53 53 50 46
87 85 82 81 75 64 54 44 39 36 33 33 34 35 37 38 39 40 35 32 30 34 36 40 41 39 37 32 28 25 21 22 24 30 34 36 40 41 41 48 53 51 48
85 83 74 73 68 57 47 41 36 32 31 31 33 34 35 36 38 37 32 28 28 31 34 37 38 35 33 27 23 18 14 9 11 18 27 34 39 39 39 44 49 50 49
84 79 71 68 59 49 42 37 32 30 30 30 31 33 34 36 35 33 29 25 25 28 32 35 37 32 29 24 19 12 5 5 7 11 16 21 27 31 35 41 46 50 48

GFSMA_500_spd_027.txt.gz
Wind_Speed
30 27 32 26 33 38 36 37 38 40 39 43 49 45 41 41 40 39 40 40 37 38 39 39 40 40 40 41 43 44 43 42 43 43 38 38 39 37 36 36 35 34 33
21 38 36 30 35 42 42 45 47 45 48 50 45 42 40 40 39 39 39 43 43 44 44 46 46 47 47 47 47 48 50 50 49 49 48 45 43 43 40 39 37 38 36
27 31 37 32 35 40 48 50 48 47 46 43 43 42 40 40 41 43 46 46 49 52 52 51 51 52 53 54 53 54 54 54 56 56 55 54 50 48 47 44 42 39 40
38 38 34 36 39 40 42 42 42 42 43 45 46 46 46 48 49 51 52 55 56 58 63 64 63 64 67 67 64 62 62 62 61 61 62 61 60 56 54 52 48 46 43
31 31 32 34 37 38 39 41 44 46 47 48 48 48 51 53 55 56 56 58 60 61 63 65 70 70 73 74 75 75 76 73 71 69 68 67 66 67 62 59 57 52 49
39 38 37 37 40 44 48 49 50 51 52 54 54 55 55 57 59 62 64 65 65 68 72 73 75 77 80 81 81 82 84 84 84 82 78 76 74 72 73 69 64 61 57
43 44 47 46 47 49 51 51 51 53 53 55 56 58 58 62 66 70 73 74 76 78 80 82 84 86 87 90 91 93 92 92 91 92 92 89 84 81 79 78 74 69 65
48 50 46 47 50 54 55 56 57 54 56 58 61 64 66 69 72 76 79 81 86 89 91 92 94 97 99 99 102 104 105 101 99 101 101 100 98 93 87 85 83 79 74
48 50 51 53 59 62 59 57 58 58 61 66 70 74 77 79 82 82 84 87 92 96 101 104 106 107 109 109 111 112 110 109 108 110 109 108 107 104 100 94 90 88 84
51 53 56 59 61 60 59 60 61 64 69 73 78 80 83 85 87 90 93 99 104 106 104 99 95 93 88 87 92 96 100 102 105 109 115 114 111 112 109 106 100 95 91
55 56 57 59 59 59 60 62 65 70 75 80 83 87 88 90 95 100 104 106 101 89 77 72 68 66 64 65 67 68 75 80 86 93 103 111 114 114 115 113 110 105 100
58 60 60 63 64 63 63 67 72 76 80 83 87 89 92 99 103 104 96 85 75 59 52 50 51 51 50 50 51 53 54 58 62 66 77 86 101 111 114 115 115 111 108
59 60 62 65 64 65 68 71 76 80 84 88 92 94 102 101 95 86 77 67 58 46 42 44 48 50 50 52 50 50 49 49 50 50 57 62 72 89 105 111 114 114 111
61 62 64 65 64 66 69 74 80 83 88 94 96 104 101 90 81 72 63 56 49 44 42 42 45 48 50 52 51 50 48 48 50 49 51 51 51 60 77 94 101 110 113
63 63 66 65 66 69 74 79 84 86 92 94 106 97 85 76 68 59 53 50 51 46 41 44 46 48 50 49 48 47 48 48 49 51 51 51 53 50 54 66 81 91 106
63 65 66 66 70 73 77 82 82 86 90 93 97 83 74 66 57 50 48 48 48 48 48 47 46 49 47 46 46 45 44 45 47 48 52 53 53 53 52 53 59 69 81
63 66 66 69 72 75 75 81 86 91 90 87 79 74 65 55 48 45 45 46 46 48 51 45 46 46 45 44 44 43 43 43 45 46 48 51 53 54 54 53 52 55 65
65 66 69 73 75 77 80 89 94 88 89 79 71 63 53 47 44 44 44 45 46 49 49 47 43 43 41 42 42 45 47 48 48 48 50 51 51 50 52 55 53 51 53
66 69 72 76 81 85 86 95 92 90 80 68 61 52 46 43 41 42 44 46 48 46 46 47 40 38 38 40 44 47 49 50 49 48 48 51 52 52 50 52 54 53 50
68 71 74 79 82 84 90 94 94 88 74 62 52 47 44 41 41 42 45 46 46 45 45 43 38 36 39 44 47 49 48 46 46 46 45 46 49 50 47 48 51 55 52
70 73 77 81 83 86 90 92 91 85 68 55 47 44 42 41 41 42 44 45 45 44 41 39 36 37 41 46 47 46 45 44 41 38 38 37 41 45 45 47 47 54 52
73 77 81 84 86 86 87 87 79 74 60 49 43 41 41 40 40 40 41 42 43 42 38 36 36 39 42 44 45 42 41 40 36 33 31 30 35 42 43 45 47 50 53
78 81 80 81 81 86 81 78 74 63 51 44 40 38 37 39 39 41 41 40 42 39 36 33 36 39 40 42 41 38 37 37 35 28 28 26 33 38 40 43 43 43 51
83 77 75 77 82 82 73 73 64 53 45 40 36 35 36 38 39 39 40 40 40 36 33 32 35 37 40 40 37 34 32 31 25 22 24 26 29 32 35 38 40 38 49
75 70 78 83 81 77 68 61 55 45 39 37 36 36 35 38 38 38 38 36 35 33 30 30 33 35 37 36 33 29 28 21 14 13 15 20 28 30 30 32 37 37 46
69 81 81 79 75 72 60 53 48 41 38 36 36 36 33 35 36 37 35 33 30 31 27 28 30 34 35 33 28 25 21 14 12 13 14 14 17 27 28 30 35 37 43

GFSMA_500_spd_030.txt.gz
Wind_Speed
32 33 25 25 28 41 48 43 44 39 42 44 43 41 39 43 44 43 44 44 40 42 42 42 43 41 42 41 41 42 42 42 42 43 43 41 38 37 35 35 35 34 32
34 45 28 28 32 37 35 39 41 41 46 43 42 41 43 41 40 41 41 43 43 42 43 44 44 45 45 47 47 47 48 48 48 48 49 48 45 43 41 40 38 37 35
29 25 27 27 28 31 35 34 38 37 39 40 41 42 43 43 46 47 48 48 51 51 51 51 52 51 52 54 56 54 54 54 53 54 54 55 54 51 48 45 44 42 40
31 32 30 28 32 32 31 31 36 40 42 44 43 42 43 44 45 46 48 48 52 56 56 58 59 59 59 60 63 64 66 66 65 63 63 62 61 61 57 54 50 48 46
32 35 36 37 38 39 40 38 39 41 45 47 47 48 48 49 50 52 54 55 55 58 61 63 64 63 64 65 66 67 69 73 72 73 73 71 70 69 67 63 60 56 53
34 36 36 38 38 39 42 46 48 50 52 50 49 49 48 47 50 54 57 60 62 65 67 69 71 71 74 76 76 76 76 78 79 79 80 78 77 78 77 74 69 65 61
41 43 44 44 44 45 47 50 52 53 50 49 48 49 51 54 58 61 64 68 71 75 77 79 80 80 81 81 82 86 88 87 86 87 89 89 87 85 85 84 81 75 71
43 45 47 48 50 51 52 53 55 55 52 52 54 55 58 61 65 69 73 76 79 84 86 89 90 91 92 93 93 94 97 97 97 95 95 97 98 96 94 92 90 87 81
46 48 50 51 52 55 57 56 57 57 57 55 58 63 67 70 75 79 82 84 85 91 95 97 99 101 103 103 102 103 105 107 107 107 106 105 106 106 105 101 99 95 93
50 52 53 54 55 57 59 59 60 60 59 62 65 70 76 79 81 83 85 87 91 97 96 92 89 85 81 81 80 81 83 86 90 93 97 103 108 112 114 112 108 105 100
51 52 54 57 59 61 61 59 61 61 62 66 70 73 76 78 82 89 92 98 99 95 82 78 74 67 61 59 57 59 62 65 64 68 75 85 95 101 109 115 116 113 108
56 56 58 60 62 63 62 62 64 64 68 71 76 80 84 89 94 99 99 97 92 73 68 61 55 49 47 47 48 49 50 51 52 52 54 59 67 78 93 105 111 115 113
56 59 61 61 62 63 62 64 64 68 71 75 78 83 87 92 100 104 98 83 75 65 56 46 44 44 45 46 47 47 48 48 48 48 49 51 52 55 64 79 95 107 112
52 61 61 63 62 62 63 65 67 69 72 77 80 83 91 96 98 96 85 77 67 56 47 41 41 42 45 47 49 51 51 50 50 50 49 50 51 50 51 56 68 83 94
60 62 62 63 63 63 64 67 68 70 74 79 86 92 90 91 92 81 74 66 58 52 43 39 41 43 46 48 51 50 48 46 46 46 48 49 52 52 53 53 53 59 70
60 61 63 63 63 63 65 67 68 72 77 81 88 87 87 87 76 69 62 55 50 50 46 43 41 45 48 49 48 47 45 44 43 45 46 47 50 52 52 54 54 54 56
59 62 63 63 64 66 68 69 73 77 79 84 88 88 89 81 67 59 54 49 46 47 47 44 45 46 47 47 46 45 44 42 42 41 43 46 47 48 49 52 56 56 56
63 64 64 66 68 69 72 74 78 83 85 88 85 89 79 69 60 51 47 45 45 45 47 47 45 45 45 47 44 42 40 40 41 43 45 46 47 48 49 50 51 56 57
63 64 67 70 72 75 80 84 85 80 84 85 84 83 74 62 51 46 44 44 43 44 47 47 43 44 44 42 40 38 39 41 43 44 44 45 44 44 46 49 50 51 53
62 66 69 72 75 81 86 83 79 80 81 82 79 74 62 55 46 43 42 41 43 45 45 44 43 43 40 37 37 38 40 44 45 42 41 42 42 44 47 49 50 51 52
65 69 73 75 81 86 79 73 77 81 79 75 74 63 53 48 42 39 39 40 43 45 45 44 43 40 37 34 36 40 44 46 41 41 38 40 43 42 40 43 48 50 50
67 72 75 74 78 82 72 74 78 77 75 68 63 53 47 43 39 37 37 38 41 42 43 41 39 36 33 34 38 42 45 42 36 39 38 37 38 32 32 32 40 44 46
75 81 82 81 76 74 69 76 77 74 67 61 53 48 42 40 37 38 39 41 42 43 42 39 35 33 31 35 37 41 41 37 35 34 35 28 30 27 31 37 35 34 41
75 85 85 82 74 70 75 73 71 64 58 54 47 43 40 39 37 37 38 39 39 40 39 37 35 30 31 34 38 40 36 32 30 29 25 19 23 22 27 25 26 29 36
91 80 70 63 72 80 77 69 64 58 52 48 43 41 38 37 37 37 38 38 39 38 36 34 33 28 29 33 36 35 32 28 23 22 21 19 19 16 21 23 24 26 32
74 68 67 77 82 83 66 62 58 52 47 43 39 38 34 33 34 36 36 36 36 35 33 30 30 27 28 31 33 32 28 24 19 20 21 18 17 13 14 20 23 25 30

GFSMA_500_spd_033.txt.gz
Wind_Speed
24 26 26 25 23 20 24 27 26 27 32 34 36 38 39 38 37 39 41 42 41 42 43 43 43 42 42 42 42 44 44 45 43 42 41 39 38 37 37 36 36 34 32
22 17 16 19 20 21 23 25 27 30 32 36 38 39 40 40 42 43 44 44 45 47 47 46 45 44 46 48 50 50 49 49 50 48 47 46 45 43 41 40 39 40 37
16 17 21 24 26 26 26 27 28 30 32 35 39 42 42 42 42 44 44 43 44 45 47 48 49 49 52 56 56 56 56 56 56 57 57 54 52 50 49 46 45 43 43
19 22 25 27 29 29 30 32 33 35 37 40 42 45 46 43 41 43 44 45 46 48 49 51 51 52 53 53 58 59 63 65 64 63 63 63 61 61 59 57 53 51 48
22 24 26 28 30 32 34 35 37 40 43 45 46 47 47 45 43 45 46 48 50 53 56 57 58 59 61 63 64 66 66 68 72 72 72 71 69 67 66 66 64 61 58
26 29 31 34 36 38 41 43 44 46 48 48 47 46 45 45 45 47 49 53 57 61 65 68 70 72 74 75 76 75 76 77 77 78 80 80 78 76 75 73 70 69 68
34 35 37 38 40 43 45 46 46 48 50 50 49 48 46 47 49 51 56 61 65 69 73 77 79 81 83 85 86 87 88 89 87 86 86 86 87 87 85 82 80 76 73
41 43 44 45 47 48 48 49 49 52 54 53 52 50 49 50 53 58 61 66 70 73 76 81 86 92 95 96 94 91 89 93 97 98 96 95 95 93 93 92 90 87 82
46 47 48 49 50 50 50 51 52 55 56 55 54 53 54 56 59 62 68 72 75 78 83 89 92 95 95 88 85 85 85 84 86 89 94 99 104 104 102 100 98 97 94
50 51 51 53 55 56 54 56 57 58 57 56 55 57 60 63 67 69 70 74 79 83 88 91 97 94 82 77 76 77 76 75 76 78 80 84 88 98 107 110 108 104 102
51 53 55 57 57 55 55 61 59 59 58 54 56 59 63 66 67 72 72 76 80 90 91 94 89 76 70 70 65 62 61 62 62 62 64 68 71 77 89 98 105 111 111
56 56 57 58 57 53 61 62 62 61 58 59 61 63 66 70 73 77 78 82 86 88 95 87 70 64 59 56 52 50 48 47 49 50 51 52 55 58 65 78 88 94 103
57 58 57 55 50 61 61 61 62 61 62 63 65 68 70 75 81 84 84 87 89 88 88 69 60 53 48 44 44 43 43 44 45 45 47 48 48 49 53 59 66 75 84
57 56 55 52 56 60 62 62 62 63 65 67 70 74 79 85 86 81 85 87 90 86 70 60 49 44 43 42 40 40 42 44 44 46 48 49 48 48 49 52 54 56 65
56 55 55 53 59 61 63 62 64 67 69 70 73 79 82 85 83 80 85 86 80 73 59 48 42 41 40 40 41 43 44 45 45 46 46 47 48 49 50 52 53 54 56
55 57 55 54 57 61 62 63 67 70 70 73 76 81 82 82 80 81 81 76 70 64 54 43 40 40 39 41 42 44 45 44 43 44 44 43 45 46 48 50 51 53 56
50 59 58 59 60 62 64 67 69 72 73 76 79 75 78 78 77 78 76 69 61 55 48 42 40 40 40 42 42 43 44 44 42 42 41 41 43 45 47 49 52 53 55
54 58 58 60 60 65 69 74 73 77 81 82 79 73 73 75 73 69 66 59 51 48 45 40 39 41 42 42 42 42 42 40 39 38 39 41 44 47 48 48 50 52 54
57 58 60 61 65 71 77 80 79 82 87 78 69 75 74 67 66 63 59 52 44 43 41 41 40 41 41 43 42 41 39 36 35 37 39 42 44 46 46 45 46 48 49
55 58 62 65 70 74 78 82 85 85 77 70 74 75 68 66 61 56 49 44 39 39 40 41 40 41 42 42 40 37 33 33 33 37 40 43 43 41 41 42 43 45 47
61 61 66 69 71 76 82 89 77 65 69 77 75 67 67 61 54 50 44 38 38 38 39 39 40 41 39 37 36 32 31 31 36 40 40 39 38 40 42 43 45 47 49
67 75 81 82 83 85 87 69 65 74 79 80 66 63 60 55 49 43 39 37 36 36 35 36 36 37 35 35 32 29 31 34 36 41 35 34 37 39 42 45 47 49 51
72 75 84 88 81 85 71 66 72 78 79 67 61 59 56 49 44 39 37 35 35 36 37 37 35 35 31 32 28 28 31 34 38 35 30 30 33 31 33 32 35 38 43
73 86 87 81 75 68 65 74 79 71 64 59 57 55 50 42 39 35 34 32 34 35 36 36 35 34 32 32 28 28 32 35 35 32 27 21 24 26 25 23 29 31 32
82 80 82 75 68 70 74 77 67 60 55 55 54 50 42 37 35 31 30 31 33 34 35 35 34 32 30 29 27 27 31 34 30 29 23 19 24 22 22 19 22 28 28
83 80 79 75 74 78 74 67 62 57 55 52 50 43 36 33 30 28 28 30 31 32 32 32 32 31 29 28 26 27 29 31 27 25 22 18 21 16 15 18 18 20 21

GFSMA_500_spd_036.txt.gz
Wind_Speed
15 16 13 11 12 14 17 19 23 27 28 30 32 34 35 36 36 38 38 41 43 44 45 46 45 43 41 42 44 45 46 44 42 41 42 42 42 42 41 40 39 36 35
13 9 11 14 17 20 23 26 29 28 30 32 34 35 37 39 40 42 42 41 41 42 45 47 48 47 45 44 45 47 51 52 53 53 51 50 47 47 47 45 44 42 39
7 10 15 19 23 25 26 27 28 30 32 33 34 36 38 40 42 44 45 43 40 40 40 40 42 45 47 49 50 50 51 53 55 58 61 59 57 55 54 53 52 50 47
11 16 20 22 24 27 29 30 32 32 34 35 37 40 42 43 45 46 45 43 42 42 43 44 45 47 49 51 52 53 55 56 60 61 63 63 66 63 62 61 60 59 56
17 21 24 27 30 32 33 33 34 36 36 37 39 42 45 47 48 46 43 42 43 44 47 49 52 53 56 59 61 62 64 67 69 70 71 71 71 72 70 69 68 65 64
23 26 28 31 33 36 36 37 38 39 38 39 42 46 48 49 49 46 45 45 47 51 54 56 60 63 64 66 67 64 70 75 79 82 83 83 81 80 78 78 77 75 72
29 31 33 35 37 41 42 43 44 43 43 44 48 50 51 51 49 48 47 49 53 57 61 64 64 67 71 75 72 77 84 83 84 86 89 93 95 91 89 86 84 84 80
33 35 37 40 43 45 47 48 48 49 48 49 54 52 52 51 49 49 51 55 57 61 66 67 70 71 76 82 83 86 89 95 98 93 88 89 95 101 101 97 94 90 89
41 42 44 47 49 50 51 52 52 50 47 52 57 55 54 51 51 52 55 57 59 62 66 69 74 78 84 85 89 95 99 105 94 84 82 81 85 90 97 103 102 101 96
45 47 48 50 51 52 52 51 50 49 49 57 56 56 54 54 57 58 60 62 64 67 70 71 79 83 85 89 94 100 96 87 78 77 78 77 78 81 86 90 98 102 105
48 49 50 51 52 53 53 52 50 58 56 57 59 57 56 60 63 65 64 67 69 71 73 78 82 85 89 95 100 90 81 72 69 68 67 67 69 71 75 81 85 92 98
52 53 54 54 53 53 54 55 53 55 62 63 62 60 62 66 68 69 68 68 71 76 80 84 85 84 85 89 83 76 64 58 55 55 56 56 55 57 60 65 73 80 85
53 53 54 55 55 55 54 56 56 58 60 62 61 65 69 70 71 73 75 80 85 84 81 77 82 85 84 79 69 60 51 50 49 49 49 50 49 50 52 54 58 65 70
54 55 55 58 58 57 56 62 60 61 61 63 66 70 73 77 79 80 82 86 82 80 73 76 79 79 74 68 59 50 46 46 46 46 48 49 48 48 48 50 54 57 59
54 56 56 57 60 55 59 64 63 64 65 68 71 75 80 81 82 87 85 76 80 79 73 74 73 70 64 54 49 45 43 44 45 47 48 48 49 50 50 51 50 51 54
55 56 58 59 59 59 62 61 63 67 70 73 73 72 75 84 83 73 71 77 75 75 73 72 66 62 52 45 42 41 42 44 45 45 44 46 47 48 48 48 49 50 52
56 56 57 59 61 62 62 65 69 70 71 73 76 77 79 78 64 70 76 73 73 71 71 67 60 53 45 40 40 41 41 42 43 44 44 45 45 45 46 47 48 50 51
55 57 59 59 59 62 63 66 72 78 84 92 93 88 76 64 70 74 76 72 69 70 67 61 52 45 41 40 40 40 41 43 43 44 45 43 42 43 43 45 48 50 51
58 60 61 61 63 65 69 73 78 81 87 96 88 62 61 69 73 76 69 67 68 67 60 55 47 42 40 40 38 39 40 40 39 39 39 38 39 40 42 45 48 49 51
59 62 64 66 69 72 75 80 80 84 89 83 68 64 70 74 69 66 66 66 62 56 53 49 42 40 40 39 39 38 36 37 36 35 34 35 38 40 44 46 47 48 49
62 66 69 70 74 78 82 85 86 87 83 66 67 72 71 69 63 64 64 61 53 51 47 42 38 38 38 38 37 35 35 32 31 31 30 39 41 41 40 39 39 42 44
65 68 71 80 80 80 82 86 89 76 71 70 76 70 64 61 62 61 57 51 48 45 39 36 35 34 34 33 32 31 32 28 27 33 33 40 37 34 35 36 38 41 44
68 72 75 82 84 85 85 84 79 74 75 72 64 59 59 58 57 55 50 45 43 40 35 34 33 34 32 31 29 28 29 26 28 32 32 32 33 32 32 34 36 40 44
72 74 77 79 82 82 80 74 74 71 64 58 57 56 55 53 52 48 43 40 36 33 33 33 34 35 33 30 29 27 26 25 29 33 32 26 31 32 30 32 33 36 36
76 77 77 76 75 73 74 71 60 58 59 57 55 53 51 49 46 41 38 33 30 30 32 33 34 35 32 29 27 25 26 24 26 32 33 28 29 25 29 31 31 32 30
73 75 77 72 72 73 62 61 60 63 62 56 52 49 48 45 42 37 32 28 27 29 30 32 34 34 32 29 27 25 24 24 25 29 32 28 28 26 24 28 28 27 24

GFSMA_500_spd_039.txt.gz
Wind_Speed
11 16 16 9 10 15 19 22 24 25 27 29 30 33 35 38 40 41 41 41 41 40 41 42 43 43 43 43 41 42 42 43 44 43 42 43 42 39 39 40 42 41 40
15 12 8 11 15 21 23 26 29 29 31 32 34 36 38 39 40 41 41 41 41 42 43 42 39 36 37 38 40 40 40 41 44 48 50 48 49 49 48 46 46 46 46
9 10 12 17 22 26 27 30 33 34 37 38 39 40 41 41 41 42 43 42 43 43 43 39 36 36 36 37 37 38 40 42 45 47 50 52 56 56 54 53 55 54 53
12 14 18 21 27 31 32 36 38 39 41 42 43 44 45 44 43 43 43 44 45 44 43 41 40 39 41 42 45 47 48 50 52 53 55 57 58 59 62 64 62 60 63
16 19 22 26 30 35 36 40 40 40 42 44 44 45 46 46 44 45 45 46 48 46 45 45 46 48 50 50 52 55 58 60 62 63 64 65 66 69 69 69 71 73 68
20 25 29 32 35 38 40 41 41 42 43 44 44 45 47 44 48 48 48 49 48 47 48 50 52 54 56 57 59 60 62 63 66 68 68 69 72 76 78 80 82 80 81
25 29 33 36 38 41 42 43 42 44 44 44 45 46 47 44 47 48 51 51 48 50 53 56 59 61 63 65 67 68 68 70 72 71 75 77 78 80 84 87 91 91 89
30 34 37 40 43 44 44 45 45 46 47 47 47 47 49 52 51 51 52 50 52 55 58 60 61 62 65 67 67 70 72 73 76 79 86 85 87 92 95 94 92 96 97
35 39 42 44 44 46 47 48 48 48 48 50 52 50 52 56 57 56 56 55 56 59 61 64 65 66 68 70 78 83 83 84 84 90 92 90 93 99 96 93 88 89 95
42 45 45 46 46 47 47 45 48 48 49 49 50 53 54 58 59 58 58 60 63 66 67 69 71 73 76 81 82 82 83 86 89 88 90 94 97 96 88 86 83 83 87
47 47 46 46 47 49 50 49 53 54 55 54 55 58 60 62 62 61 61 66 70 72 74 73 75 76 75 74 76 79 83 85 86 89 92 92 88 80 74 72 74 75 78
46 46 46 47 49 51 49 52 55 58 57 56 59 62 66 65 65 68 69 71 72 73 73 79 82 77 74 74 79 81 82 84 86 89 89 76 66 60 59 58 57 59 64
49 45 47 50 52 54 54 57 57 58 60 61 63 67 67 70 73 75 76 76 78 79 79 80 75 72 72 69 72 79 83 86 87 80 69 58 54 52 51 50 49 50 52
47 47 49 49 53 56 57 58 61 61 64 67 68 68 71 76 78 79 82 87 88 86 85 75 68 70 71 73 74 79 84 83 75 63 55 50 47 46 46 46 46 46 48
49 47 48 56 56 58 60 63 64 64 67 69 72 75 77 81 85 87 88 91 96 81 68 69 71 70 72 75 77 78 75 67 60 53 49 48 46 47 47 47 46 45 44
50 50 54 56 58 60 62 63 64 67 70 73 76 77 78 82 87 89 88 85 72 72 72 75 71 70 72 75 74 67 63 56 50 49 48 47 45 46 47 47 47 47 47
52 52 57 58 62 62 64 65 67 71 74 77 81 86 88 90 86 86 75 73 74 76 75 68 68 70 70 66 61 59 55 49 47 46 44 44 45 46 48 48 49 47 47
52 56 60 60 65 66 67 69 73 74 78 83 88 90 87 87 81 73 72 75 79 74 69 67 68 64 59 56 55 53 48 46 44 44 44 45 44 43 43 43 44 44 45
56 61 61 63 66 68 71 74 78 82 85 88 90 95 89 81 77 75 78 73 68 68 69 65 58 54 51 51 50 47 44 42 42 40 40 40 40 40 39 39 40 42 43
59 62 62 66 69 71 77 81 82 85 89 92 93 87 79 75 77 77 67 66 66 63 61 56 50 48 47 46 45 42 39 39 39 39 40 37 36 34 35 37 40 42 44
60 60 63 66 72 75 82 83 86 89 88 87 82 79 78 70 64 63 64 64 61 56 53 48 45 43 41 41 40 40 40 37 36 37 35 32 33 34 37 40 40 39 40
62 64 65 69 75 78 88 84 84 85 83 79 79 71 66 65 63 61 59 56 53 50 46 43 39 38 38 37 36 38 37 34 32 35 32 30 32 34 37 35 34 34 34
62 67 69 69 80 79 80 82 82 79 75 68 68 64 63 66 62 59 55 52 49 46 42 39 34 35 34 34 34 35 35 32 32 33 28 29 32 35 36 32 31 31 32
64 65 73 73 75 77 78 79 78 73 69 65 61 64 65 68 60 55 52 50 45 42 38 35 33 33 34 34 35 34 31 30 31 32 27 27 30 33 32 31 31 32 31
68 66 69 72 74 76 79 78 73 68 63 61 63 65 67 66 57 53 49 45 41 39 34 32 32 33 34 34 34 31 29 28 28 30 28 26 30 31 30 30 31 30 29
66 68 70 73 77 78 76 72 71 66 61 62 65 67 68 61 53 49 45 42 38 35 33 33 33 33 34 35 33 33 30 27 27 27 28 24 29 32 27 30 34 29 28

GFSMA_500_spd_042.txt.gz
Wind_Speed
5 9 11 15 11 11 14 19 22 26 29 30 31 33 34 35 37 39 40 41 42 42 42 42 41 40 41 42 42 41 39 41 41 38 37 36 36 36 35 35 37 37 39
10 11 6 7 11 16 19 24 28 29 32 34 35 37 40 40 40 42 42 43 43 44 44 44 42 40 41 41 41 40 38 37 39 41 42 42 42 41 40 40 40 40 41
12 6 8 12 17 22 26 28 31 33 36 39 40 42 44 44 43 45 44 43 43 45 45 44 43 43 43 42 42 40 38 39 41 42 45 45 47 49 50 50 49 49 48
7 10 13 18 22 26 30 32 36 38 41 43 44 46 47 47 47 46 46 46 44 43 42 43 45 45 43 42 43 45 46 48 50 51 53 53 53 54 55 55 55 58 57
11 14 19 23 26 31 35 38 41 43 45 46 46 47 47 47 48 47 47 45 45 45 45 47 48 45 42 43 45 48 53 56 57 59 60 59 60 61 62 62 62 64 63
16 20 23 27 32 36 39 42 44 45 45 45 46 47 48 47 46 46 46 45 48 54 55 55 50 47 48 51 54 56 59 61 63 64 65 65 65 66 66 67 68 70 71
21 24 28 32 37 40 43 45 46 47 48 48 48 47 47 47 46 46 46 47 52 57 55 55 54 54 57 59 61 63 64 64 64 66 67 66 69 71 73 75 75 76 80
25 29 33 37 40 43 44 44 45 44 45 45 45 45 46 48 48 49 49 50 54 57 58 59 59 61 63 65 67 68 69 69 72 73 74 77 80 80 79 81 83 84 86
30 34 37 40 42 43 43 44 43 42 46 45 46 51 55 52 51 53 56 58 61 62 62 64 66 67 68 70 71 73 74 74 76 77 75 76 79 73 72 76 82 85 86
32 39 41 40 42 41 42 43 42 45 46 49 53 52 54 56 55 56 58 62 65 66 68 71 73 73 75 75 75 77 79 80 79 72 73 72 73 76 78 80 80 83 90
38 46 41 42 40 41 42 43 45 50 51 52 56 57 58 60 61 63 64 66 69 72 75 77 78 81 83 85 86 80 75 69 72 70 70 73 77 79 80 82 85 90 93
47 44 43 46 45 46 47 46 49 51 57 57 59 60 61 63 65 69 73 75 77 79 81 82 85 88 88 84 80 76 72 69 70 71 73 75 77 81 87 92 87 81 76
48 45 47 49 49 48 44 47 58 56 59 60 61 64 67 70 73 76 78 80 83 84 87 90 88 86 82 74 70 67 69 68 69 71 76 79 84 86 81 72 63 57 54
46 48 48 52 53 45 51 52 57 58 60 64 66 69 72 76 80 83 85 89 89 88 90 90 81 69 69 70 72 72 73 73 75 77 78 79 74 69 61 51 46 46 45
48 48 52 57 45 54 56 58 62 63 68 71 73 75 77 81 85 88 89 91 92 91 86 72 68 70 73 74 74 74 75 75 73 71 65 63 59 53 47 43 44 44 43
49 55 59 59 54 58 61 63 65 66 68 74 77 78 79 87 87 89 90 93 90 85 78 76 76 75 71 72 73 70 67 64 61 59 55 52 48 45 44 44 43 43 44
57 61 62 60 58 63 65 67 67 68 72 76 80 84 87 90 87 90 90 87 81 79 74 68 71 71 70 68 64 62 59 55 53 50 46 43 43 42 41 42 42 44 45
62 63 59 57 67 66 69 70 72 73 76 79 80 86 90 89 89 87 84 79 75 73 71 66 67 66 61 59 56 52 49 49 47 44 42 41 41 40 38 40 42 42 42
60 62 60 64 65 66 68 69 71 76 81 81 87 86 86 87 85 82 76 71 66 70 68 63 59 56 53 52 47 46 45 44 44 41 38 38 37 35 36 38 38 38 37
62 64 63 62 63 67 67 70 77 80 79 85 85 85 85 83 79 75 66 67 67 70 63 59 55 52 50 46 44 42 40 43 42 42 39 37 33 33 35 33 33 32 33
60 63 67 63 59 65 71 72 75 79 83 83 83 82 80 77 73 67 64 67 69 67 59 55 53 49 45 41 39 40 41 40 39 40 37 35 32 32 33 32 31 33 36
63 58 61 64 64 68 73 74 77 78 80 80 80 80 76 73 66 64 63 67 70 63 56 52 49 45 39 37 36 38 40 37 35 36 35 33 31 31 31 31 32 34 37
55 55 62 62 74 75 74 74 78 79 78 79 79 76 72 67 65 64 64 67 68 59 52 48 45 41 35 35 36 37 38 36 37 36 30 27 31 32 32 33 32 34 34
59 59 66 75 76 75 74 76 78 78 79 78 76 72 68 66 65 63 64 66 64 54 49 45 42 37 34 35 37 36 36 34 35 36 32 24 30 29 32 33 32 33 30
57 63 71 73 71 73 76 78 78 80 79 77 73 69 67 66 65 64 65 66 59 51 45 42 39 35 34 36 37 35 35 33 32 35 35 25 28 26 30 32 32 30 25
64 66 68 69 72 74 77 79 80 81 79 76 72 68 67 65 64 65 66 62 54 47 42 40 37 34 34 35 36 35 33 31 32 30 32 27 27 28 24 30 32 31 28

GFSMA_500_spd_045.txt.gz
Wind_Speed
8 9 11 12 15 10 9 13 17 20 22 25 28 31 34 36 38 40 41 43 43 44 45 45 44 43 42 42 42 43 43 43 42 42 39 35 33 33 33 34 35 36 37
11 7 12 9 8 10 14 18 21 23 27 30 33 36 38 40 41 41 41 42 43 45 46 46 45 44 44 43 42 43 44 45 43 42 42 40 39 38 38 38 39 39 39
15 16 10 10 11 16 20 23 26 29 33 35 38 39 40 42 42 42 43 44 44 43 44 45 44 44 43 43 44 46 46 46 46 46 44 43 46 47 48 48 47 47 47
13 11 12 14 17 19 25 28 31 34 36 38 40 41 43 43 43 43 43 42 43 44 44 44 44 45 47 48 49 48 47 46 46 48 50 52 53 53 55 55 54 56 57
10 12 14 18 22 25 29 32 34 37 38 40 42 44 45 45 44 44 44 43 44 45 45 45 45 46 47 48 49 49 49 49 49 51 53 56 59 61 62 62 62 62 61
13 15 18 23 27 29 33 36 38 40 42 43 45 46 45 44 45 45 44 44 45 45 47 48 50 50 51 52 53 54 55 57 59 61 63 65 66 67 68 68 68 68 69
16 20 24 28 30 32 35 37 40 43 44 46 46 44 45 44 44 44 45 45 48 49 50 52 55 58 59 59 61 62 62 64 67 69 71 73 74 74 71 73 75 75 75
20 25 29 31 31 35 37 40 43 44 45 45 45 43 44 44 44 46 49 50 51 53 56 58 61 63 65 66 67 69 71 72 75 77 78 79 79 79 77 78 80 77 76
25 29 33 34 36 38 40 43 44 47 47 46 41 45 49 49 51 51 53 54 56 58 61 64 66 68 70 71 73 75 77 78 80 82 82 83 83 83 81 83 82 83 81
30 33 35 35 39 41 41 45 47 48 47 47 48 53 52 53 55 55 56 59 62 64 67 71 74 76 77 79 79 79 80 82 84 87 89 91 88 88 87 87 84 81 82
36 36 40 36 41 43 45 46 46 52 46 49 46 58 59 59 60 63 63 65 67 69 72 79 78 76 79 82 83 84 87 86 79 68 72 76 75 75 75 76 75 74 76
38 40 39 41 46 46 49 53 49 52 45 54 56 60 63 63 64 66 68 71 73 77 81 81 80 84 86 88 90 89 83 72 65 66 67 72 70 68 70 71 70 71 72
37 38 42 48 49 51 48 48 60 49 57 61 64 65 66 65 69 72 74 78 80 83 83 85 89 90 91 88 83 76 72 71 72 71 72 74 74 75 75 75 75 78 80
36 40 46 53 54 48 54 58 61 62 59 63 63 68 69 72 74 77 80 84 82 86 90 89 90 92 90 82 75 71 69 68 69 71 73 74 75 75 74 72 72 74 75
38 38 47 49 52 59 60 63 65 55 64 66 69 69 70 73 78 82 83 84 89 90 90 91 90 86 78 73 72 70 68 67 64 62 60 60 60 60 60 60 59 57 56
40 41 48 51 58 62 66 68 56 68 69 71 71 72 75 79 81 82 86 90 89 89 88 88 81 75 74 73 70 65 59 55 53 52 52 51 50 50 49 49 48 47 44
47 52 53 55 62 62 64 62 66 67 71 73 71 76 78 78 81 84 85 86 86 87 85 77 70 71 73 72 64 58 54 52 50 47 45 43 42 41 41 40 38 38 38
47 47 52 61 66 67 64 66 69 66 73 70 75 79 80 82 84 84 83 84 85 84 78 70 65 69 71 66 58 54 52 49 45 42 40 37 36 36 36 36 35 34 34
51 54 56 58 47 67 64 69 66 70 70 73 80 80 83 82 83 84 84 84 84 76 70 65 64 67 68 60 53 51 47 44 41 41 39 40 38 36 33 33 31 32 32
52 55 56 58 61 63 66 67 69 65 73 77 81 87 81 82 84 84 85 82 77 70 66 64 63 67 64 54 50 46 41 40 39 42 42 41 36 35 31 29 28 28 29
53 55 57 59 61 61 61 66 67 73 76 77 86 85 82 84 84 85 81 77 72 66 64 63 63 65 59 50 47 42 38 37 40 42 42 41 37 32 27 26 25 27 28
55 58 58 58 57 56 69 70 73 78 79 90 87 82 84 85 85 82 78 75 67 65 62 63 64 62 54 48 44 39 36 37 39 41 39 38 37 33 27 25 25 25 27
56 57 58 58 58 60 63 70 75 79 84 83 81 84 85 84 83 79 76 70 64 62 62 63 63 58 49 45 41 36 36 37 39 40 38 34 35 33 29 27 27 27 28
57 57 58 58 61 67 71 75 77 78 78 79 82 84 85 85 81 77 70 64 62 61 64 64 61 53 46 43 38 34 35 36 37 39 37 35 31 30 30 29 28 28 27
59 60 61 63 66 71 73 75 75 75 78 81 84 85 85 83 78 72 64 60 61 64 65 61 56 47 42 40 36 33 34 34 34 35 37 35 32 25 27 30 29 29 27
59 60 62 66 69 72 74 73 75 76 79 83 85 85 82 76 69 64 61 62 64 66 63 58 50 43 39 37 34 32 32 32 33 32 33 30 31 25 19 28 28 30 27

GFSMA_500_spd_048.txt.gz
Wind_Speed
13 11 12 11 10 13 12 10 13 15 19 23 26 29 32 34 36 39 40 42 42 43 43 43 44 44 43 43 42 42 41 40 40 43 44 45 44 42 38 36 37 38 39
11 9 7 11 10 11 10 12 16 19 23 27 30 32 36 37 39 41 41 43 43 43 43 43 42 42 41 40 39 41 42 43 42 43 45 47 50 49 46 42 40 40 39
13 18 12 11 11 9 13 16 20 23 28 32 34 38 40 40 42 44 45 45 43 43 43 43 42 41 40 40 41 41 43 45 45 45 46 47 50 51 53 52 48 46 47
17 18 15 13 11 14 17 21 25 28 32 36 38 41 42 42 44 45 45 44 43 44 43 44 42 40 40 41 42 43 45 47 48 48 48 48 50 53 55 57 58 58 57
14 12 10 13 15 18 21 25 29 33 37 40 41 43 43 46 47 46 44 43 44 45 46 45 43 42 43 44 46 48 50 52 52 53 54 55 56 57 58 60 62 64 64
11 10 13 16 20 22 25 30 33 37 39 41 42 43 45 47 47 45 45 47 48 48 48 46 46 47 48 50 52 54 57 59 60 61 62 62 63 64 66 68 70 71 72
12 14 18 21 23 27 30 33 36 39 41 43 45 46 46 45 46 43 44 50 52 49 48 48 50 53 57 59 60 61 64 66 67 67 68 68 70 73 75 77 80 81 80
17 21 22 25 29 31 34 36 38 40 42 43 43 47 47 46 45 48 52 56 56 55 54 55 57 59 60 62 66 68 70 70 69 69 70 72 75 77 81 85 87 88 90
23 26 29 32 33 35 34 35 38 42 43 48 48 50 52 48 53 54 56 59 60 58 58 62 64 67 69 74 74 75 75 73 75 77 79 80 82 83 85 87 89 92 94
27 30 36 38 38 37 37 35 40 43 46 46 48 54 52 52 57 62 62 61 62 61 64 66 69 72 75 74 78 80 81 83 84 85 87 88 86 84 86 87 89 91 94
29 32 36 39 38 40 40 43 48 52 51 51 50 59 61 59 59 61 61 66 66 67 69 73 73 76 77 82 84 86 87 90 92 93 92 86 80 74 74 77 82 83 84
33 34 36 39 41 41 44 48 52 53 52 57 57 60 62 57 63 67 67 67 67 71 75 75 77 80 82 85 87 90 92 94 95 90 82 75 71 69 70 75 75 75 77
32 34 37 39 42 43 48 48 51 52 56 59 63 64 62 61 67 67 68 66 72 77 79 80 82 83 85 87 89 92 95 94 84 78 71 68 68 66 65 66 67 73 73
34 36 38 38 41 47 51 54 56 55 62 63 65 57 66 70 72 72 71 72 76 81 84 85 85 86 87 89 92 94 91 80 74 71 67 62 57 56 56 56 58 59 62
36 35 36 38 43 50 53 55 59 63 62 72 59 67 68 72 70 72 72 77 82 85 84 84 86 88 88 92 94 88 76 71 71 67 60 54 52 52 52 51 51 52 55
32 36 37 37 46 50 55 59 61 66 59 54 64 71 73 73 72 74 76 78 82 84 85 85 87 89 90 89 86 75 66 69 69 61 53 50 48 47 47 47 48 48 49
38 40 40 48 49 58 60 59 53 61 60 66 75 77 71 74 72 77 82 82 86 85 84 86 89 90 90 81 74 67 65 67 65 55 49 46 43 42 41 41 41 42 42
38 40 44 50 53 59 58 59 56 56 64 76 74 72 75 80 79 79 85 90 89 88 88 88 89 87 81 73 65 63 65 66 60 52 47 42 39 38 37 36 36 36 38
44 46 49 51 54 55 58 60 62 64 66 67 68 74 79 76 80 87 91 94 87 89 89 89 87 80 73 66 61 62 64 63 55 49 44 40 37 37 36 35 34 34 33
43 47 49 52 55 58 60 63 64 65 67 66 67 72 77 84 87 92 91 85 88 88 88 86 81 73 66 61 60 63 62 58 50 47 43 40 38 37 34 32 33 30 29
45 48 50 55 56 57 61 63 64 64 61 72 72 79 83 86 87 86 83 86 89 88 84 78 72 65 60 60 63 63 60 52 47 43 40 40 39 39 36 31 29 28 27
49 52 54 57 58 60 61 63 64 65 67 71 75 81 83 84 82 82 83 86 85 81 77 69 63 60 60 63 62 61 56 47 43 41 39 38 39 37 35 35 30 27 27
53 54 57 59 60 61 62 63 65 67 70 74 78 80 80 80 80 83 85 86 82 76 69 63 60 60 63 63 61 58 50 44 40 38 38 36 38 36 35 36 32 28 25
54 57 58 59 61 63 63 65 67 70 73 75 76 77 78 80 82 84 86 84 77 69 62 61 62 61 62 61 59 53 45 41 38 36 36 35 37 36 34 34 33 27 25
57 59 61 62 62 62 64 67 70 71 72 74 77 79 80 83 85 86 84 77 69 64 64 62 62 62 63 60 55 47 41 38 35 34 34 34 35 34 33 33 32 27 25
59 60 61 61 61 62 66 68 70 73 76 78 79 80 83 84 84 83 77 72 66 66 67 65 62 64 61 55 47 41 38 36 34 31 33 33 33 34 30 30 32 26 23

GFSMA_500_spd_051.txt.gz
Wind_Speed
15 15 14 13 12 11 12 12 10 11 13 17 21 25 28 31 34 37 38 39 41 44 45 45 45 45 44 44 44 42 39 37 38 38 39 41 42 43 42 41 40 40 38
16 13 10 9 7 10 12 8 10 14 17 21 25 28 32 35 38 40 41 42 45 47 48 47 46 45 44 42 42 41 38 37 38 39 41 42 44 45 47 47 45 44 44
14 13 12 7 7 9 8 10 13 18 21 24 27 32 35 39 39 41 43 46 44 45 45 45 46 47 46 45 42 40 39 38 40 41 43 45 46 48 49 50 52 51 51
13 10 13 13 9 10 11 14 18 22 24 27 31 34 36 39 41 45 46 47 49 48 46 44 47 50 50 48 44 43 43 44 45 46 47 49 49 51 52 53 54 57 59
12 10 12 13 12 13 15 20 23 25 26 29 32 35 39 41 43 43 46 45 46 48 49 48 51 51 49 48 48 49 51 52 53 54 56 56 56 57 59 60 60 61 62
10 10 10 11 14 17 21 24 26 29 30 32 35 36 40 42 43 42 44 44 44 46 48 54 55 54 50 48 50 52 56 58 60 62 64 65 65 65 63 62 64 68 70
9 9 12 16 18 22 25 27 28 33 32 32 35 37 40 40 43 44 48 46 50 49 49 51 56 58 54 52 55 56 58 62 65 67 69 70 70 71 72 72 71 70 71
12 14 16 20 24 26 29 30 33 36 33 34 36 41 45 49 45 44 46 49 50 51 53 58 59 54 53 57 59 60 62 67 70 71 72 74 75 77 79 81 81 81 81
13 17 21 26 30 33 35 37 39 39 36 39 46 50 50 53 55 55 55 55 55 52 58 62 63 59 58 61 66 68 69 72 75 76 78 80 82 84 86 88 90 92 93
18 23 26 30 33 34 37 38 40 37 39 43 45 46 49 52 56 60 62 61 59 57 66 66 64 63 65 69 75 75 78 79 82 84 87 89 91 93 95 98 101 101 97
21 26 29 32 34 37 38 40 40 43 43 50 52 54 61 60 62 63 62 61 65 69 73 68 63 64 68 73 78 80 83 85 87 89 91 93 95 98 101 100 92 82 77
26 29 32 33 34 37 38 41 41 43 47 52 56 62 61 67 71 69 68 62 69 73 77 74 71 74 76 79 83 84 84 89 90 91 93 95 98 98 90 79 70 66 63
29 32 34 34 36 38 39 41 43 47 50 54 58 61 67 68 71 68 61 66 71 81 76 76 79 82 82 85 86 88 88 89 90 92 95 96 92 80 72 67 61 57 55
31 34 35 36 37 33 39 41 44 46 49 56 59 65 71 67 68 63 66 71 77 76 77 81 83 84 86 92 92 90 89 91 92 92 91 81 72 68 65 60 55 54 53
35 36 35 36 37 39 41 41 43 52 59 62 61 66 66 68 66 67 77 81 78 77 80 78 79 89 93 94 91 90 91 92 91 88 77 66 65 62 60 55 53 51 51
38 39 39 39 40 41 40 45 52 58 61 61 67 67 62 68 72 80 83 79 76 79 78 83 93 94 91 88 88 89 90 89 84 72 63 63 60 61 54 52 48 48 49
39 41 42 39 41 44 48 52 54 56 58 65 71 66 68 70 72 72 73 76 78 76 87 90 92 89 88 88 89 90 86 83 74 63 61 60 58 55 50 48 46 46 47
42 42 41 41 43 45 54 45 49 57 72 68 63 73 71 75 73 73 76 77 84 89 91 90 86 85 86 87 88 87 80 67 60 60 61 59 58 49 48 46 45 43 43
42 43 42 43 44 48 53 54 56 59 66 67 65 73 74 74 73 74 78 81 85 87 86 85 84 86 87 87 85 79 70 60 58 60 58 58 53 44 45 44 42 41 39
43 43 44 47 48 52 53 57 60 61 62 65 67 72 73 73 74 77 80 83 82 83 84 85 86 87 87 81 75 68 61 59 59 58 59 57 48 43 43 42 40 39 38
43 45 47 50 53 54 57 59 62 64 65 67 69 70 70 72 76 78 78 78 81 84 86 87 87 84 80 70 65 63 63 60 58 59 59 51 45 42 41 40 40 36 33
45 48 51 54 56 58 60 62 64 65 67 67 66 68 70 70 72 75 77 80 83 85 85 83 80 75 68 65 62 64 63 61 60 58 56 45 43 40 39 38 39 37 34
49 52 55 57 59 61 62 64 66 66 65 63 63 65 68 72 75 78 80 82 84 85 85 79 74 67 67 64 66 65 64 63 60 53 50 41 40 38 38 37 38 36 33
53 55 57 59 62 63 65 65 65 64 63 64 67 69 74 77 80 82 84 87 87 86 81 77 71 67 67 67 66 66 64 60 53 46 45 39 37 36 37 37 38 34 34
55 57 60 62 64 65 65 66 64 64 64 65 70 74 80 83 85 86 87 87 85 82 75 75 73 68 64 61 60 61 57 54 45 40 38 37 35 35 36 36 36 35 32
57 61 63 64 65 66 66 66 66 66 69 71 75 79 85 87 86 86 87 86 84 78 74 72 70 64 60 57 55 54 51 46 41 35 35 34 33 34 34 35 32 33 31

GFSMA_500_spd_054.txt.gz
Wind_Speed
28 24 22 16 13 12 11 13 12 10 9 10 12 16 19 22 25 28 31 35 38 40 40 41 41 42 43 43 43 43 43 43 42 40 38 37 35 35 35 35 36 38 38
22 23 17 13 12 10 11 12 12 11 11 12 16 19 22 25 28 31 34 35 36 37 39 39 41 42 42 43 46 49 47 44 42 40 39 38 39 39 41 41 43 44 44
23 20 15 13 8 7 11 10 11 12 13 16 20 20 22 25 30 32 30 32 34 36 37 38 41 42 43 44 46 47 48 46 43 42 42 42 43 44 44 45 47 48 49
17 14 13 12 6 9 10 11 12 15 17 19 21 22 24 27 30 32 33 31 33 36 37 38 40 42 42 43 45 49 49 47 46 47 48 49 50 50 51 51 53 53 54
10 10 10 11 12 13 12 13 16 18 20 23 24 25 25 28 30 31 33 36 38 37 38 41 44 44 44 46 50 53 52 48 48 50 52 53 55 55 56 57 58 59 59
10 9 10 11 12 13 13 16 19 22 25 27 25 24 27 32 33 36 40 42 44 45 47 47 48 48 46 47 56 55 52 51 53 53 54 55 56 58 60 62 63 64 64
8 9 10 13 12 14 15 20 25 26 29 29 30 29 30 35 40 42 43 45 48 49 50 54 50 48 48 54 56 58 53 54 55 58 58 60 62 64 66 67 69 70 71
10 11 11 13 13 16 21 25 30 33 35 35 34 31 33 40 45 47 47 52 55 55 59 62 56 51 54 59 61 62 55 54 59 67 71 72 74 76 78 80 80 79 80
10 11 13 14 18 24 26 29 31 34 35 35 35 37 41 44 49 51 55 57 58 59 61 63 64 60 62 67 68 64 60 65 68 74 75 77 81 85 86 87 87 88 89
11 13 16 19 23 27 29 32 34 36 36 36 35 35 40 46 51 53 56 60 62 63 64 62 61 62 65 75 72 67 68 72 76 76 78 85 88 88 87 87 89 91 93
15 17 20 23 27 29 33 33 35 39 39 42 40 42 46 49 54 59 61 67 68 66 68 67 67 69 73 79 75 73 73 75 77 82 89 88 87 87 89 89 92 94 96
18 21 24 26 29 31 33 34 38 42 41 40 43 47 54 53 57 66 68 69 70 67 69 71 74 79 83 76 73 74 74 76 87 87 84 86 88 89 90 92 93 92 87
18 23 28 30 31 33 33 35 32 37 38 40 45 43 46 55 67 68 70 71 70 67 69 69 82 81 77 77 77 76 79 86 83 84 85 87 88 89 90 89 85 77 70
20 25 31 32 33 33 34 34 38 40 38 44 40 47 56 64 66 63 67 75 68 69 70 76 77 78 80 78 81 85 82 81 83 85 86 86 87 86 84 77 70 65 60
26 29 30 33 34 33 38 39 39 41 42 44 54 60 60 63 54 61 73 77 67 75 74 81 79 79 83 84 84 83 83 83 85 85 87 87 85 78 73 65 60 57 60
31 31 33 34 37 38 40 40 42 45 50 48 53 52 58 58 69 77 76 71 75 79 83 79 77 80 83 82 83 85 86 85 86 86 84 81 71 64 62 58 57 60 54
33 36 36 36 39 41 42 42 42 44 51 45 53 63 68 70 71 72 69 72 78 84 78 75 76 79 81 84 85 87 88 87 85 82 76 70 65 60 57 54 58 55 47
36 39 39 40 41 41 43 44 47 50 52 57 59 62 64 66 69 70 71 72 74 75 75 72 74 77 81 84 86 87 87 85 83 75 69 63 59 57 55 56 57 49 44
39 41 41 42 43 44 45 47 50 53 56 58 61 63 65 68 69 69 70 69 70 71 74 76 77 80 83 87 88 89 88 84 78 71 64 60 58 55 55 54 50 44 42
41 41 42 44 44 46 48 52 54 57 58 61 63 66 67 68 70 70 68 68 70 73 77 82 84 85 87 87 88 86 85 76 70 66 62 60 60 58 56 51 44 41 39
42 43 43 44 45 49 52 55 57 59 61 63 65 67 69 70 68 67 69 69 73 76 81 85 88 88 87 85 82 78 77 71 67 64 63 61 58 55 51 46 40 39 37
41 41 43 46 49 52 54 56 58 61 63 64 66 67 68 68 67 67 70 73 78 82 85 88 87 87 85 81 77 73 70 68 67 62 62 57 53 50 45 41 38 37 37
41 43 46 50 52 54 56 58 61 63 64 65 66 67 68 69 71 75 78 80 82 85 89 87 87 84 81 76 75 71 69 66 62 58 56 53 48 44 40 37 35 36 35
44 47 50 52 53 56 58 62 63 64 64 65 66 66 68 70 74 78 81 82 85 88 89 90 89 85 78 72 69 70 68 63 59 55 54 50 44 40 35 33 33 34 35
49 51 52 54 56 58 62 63 64 65 65 64 64 67 71 73 76 80 84 87 90 93 91 90 86 80 74 70 67 65 62 58 55 51 48 46 40 34 31 30 31 32 34
52 53 55 57 59 61 61 63 65 65 64 63 66 69 73 76 79 84 88 92 95 94 93 88 80 73 69 66 64 61 54 52 48 45 41 42 37 31 27 28 29 31 32

GFSMA_500_spd_057.txt.gz
Wind_Speed
28 31 38 26 21 23 17 16 13 12 11 12 11 11 12 11 14 15 17 18 18 20 23 24 26 27 28 30 32 35 36 37 39 41 42 42 39 38 37 36 36 37 39
27 25 26 22 24 18 16 15 13 12 14 12 12 12 14 14 16 17 18 19 20 22 24 26 28 30 32 34 35 35 37 38 38 39 41 42 42 41 41 42 42 42 44
23 23 25 25 17 13 14 14 16 14 13 12 13 14 16 18 18 20 22 22 24 26 28 30 33 35 36 37 38 39 39 40 42 42 42 42 43 44 46 46 47 48 49
16 27 25 19 13 11 13 14 14 13 12 12 16 17 20 21 21 22 23 25 29 32 32 33 37 40 41 42 44 44 44 44 46 47 45 44 45 46 47 48 48 48 49
26 22 18 15 12 11 13 14 13 13 13 16 18 20 21 22 24 25 29 31 33 35 36 41 44 44 46 47 46 48 47 45 46 50 53 50 47 49 51 52 52 52 53
18 15 11 11 14 14 15 13 12 14 17 21 23 22 24 26 24 26 30 34 38 40 43 47 50 50 52 52 55 54 52 54 55 57 60 56 54 53 56 59 60 60 60
10 10 11 12 14 13 12 13 15 19 23 25 27 28 27 27 28 31 35 38 39 41 43 47 50 52 52 54 54 51 52 57 59 64 66 58 57 61 63 63 63 64 65
9 9 12 14 14 12 13 16 21 23 26 28 28 31 32 32 33 35 36 38 42 44 50 54 55 57 56 55 54 55 56 60 67 72 68 65 62 61 63 67 68 69 71
11 13 14 12 11 13 15 19 24 27 30 31 31 33 33 34 36 37 41 46 52 55 54 58 59 60 60 58 60 61 62 69 69 69 69 67 68 69 72 74 74 75 76
13 14 13 12 14 17 19 23 25 29 30 31 33 36 35 35 37 42 45 49 52 54 60 65 60 65 66 62 63 64 67 71 70 70 69 72 74 76 76 75 77 80 81
13 12 13 14 16 19 24 24 26 29 30 33 34 31 37 40 40 48 50 50 55 61 69 72 66 72 71 65 66 68 75 74 70 71 74 75 74 76 77 80 82 84 85
15 16 16 19 22 23 24 27 28 30 30 29 36 39 41 41 41 43 50 57 62 63 64 67 72 78 70 69 73 76 78 70 69 70 72 75 78 80 82 83 85 86 87
20 23 23 22 21 25 29 32 29 26 29 38 40 40 40 42 38 48 56 61 60 64 61 73 75 73 72 71 75 80 73 68 67 71 75 79 82 85 86 87 87 87 87
13 15 17 22 23 26 29 26 24 29 33 36 39 43 43 47 50 52 54 59 64 65 76 71 72 71 73 75 73 71 69 69 71 74 79 82 85 86 87 87 87 82 78
16 18 20 21 25 29 29 31 33 34 35 36 39 36 43 45 54 53 56 62 69 69 69 70 71 74 74 72 71 70 73 75 76 79 82 85 86 87 86 85 78 71 67
20 24 21 24 28 31 32 33 35 36 37 38 39 45 46 52 55 59 62 65 67 68 69 69 71 70 71 72 75 77 77 80 82 85 86 86 86 84 77 73 67 63 61
24 26 27 30 31 32 34 35 36 38 40 42 45 48 51 54 57 59 62 65 66 68 69 68 69 70 72 74 78 81 83 86 88 89 87 84 81 75 65 65 62 61 58
29 31 32 32 34 36 37 38 40 41 43 46 49 51 53 56 58 61 63 65 67 69 69 68 69 71 73 77 82 85 88 91 92 89 86 83 78 69 64 63 61 59 58
35 32 33 35 37 38 39 41 43 44 47 49 52 54 57 59 60 63 66 67 68 68 70 71 71 75 77 81 83 86 90 91 90 86 82 78 71 65 61 62 59 56 53
34 35 36 37 39 40 41 42 44 47 49 52 54 56 59 62 65 67 68 67 66 68 71 74 77 79 82 82 87 91 91 89 87 83 77 73 66 62 60 58 56 53 50
36 36 39 40 40 42 43 45 47 50 52 55 58 60 62 64 66 68 67 66 68 70 74 77 80 82 84 86 91 91 90 86 81 75 71 69 64 62 60 55 54 50 46
37 39 41 41 42 43 45 49 51 54 56 58 60 63 64 65 67 68 66 68 70 73 77 79 81 85 87 91 89 88 85 80 76 71 70 68 63 61 57 54 51 47 42
39 40 40 42 44 46 50 53 56 58 59 62 64 65 67 69 69 66 67 70 74 77 79 83 86 88 91 92 90 86 79 75 72 71 68 62 56 56 53 49 45 41 38
39 40 42 44 48 52 55 58 60 61 63 65 65 66 69 70 69 69 71 74 77 81 84 86 89 92 93 93 88 82 75 71 68 66 62 57 49 49 46 42 39 38 34
41 43 46 49 53 58 60 61 63 64 65 64 65 68 69 69 71 74 76 77 80 82 85 88 90 92 93 88 81 75 69 66 64 59 51 47 42 42 38 35 35 34 32
45 48 51 55 58 60 62 64 64 65 64 65 67 68 69 70 74 78 81 83 84 84 87 89 90 92 88 83 73 66 63 60 59 54 45 45 42 40 35 32 31 31 29

GFSMA_500_spd_063.txt.gz
Wind_Speed
20 22 23 22 23 20 18 23 30 31 24 22 21 23 22 18 15 17 17 16 15 15 15 15 15 18 20 22 25 27 29 32 34 35 37 39 40 42 44 45 44 43 44
18 14 18 24 22 17 22 26 30 28 27 22 23 22 19 16 16 17 18 17 19 18 17 17 18 21 23 25 27 29 31 33 34 35 37 40 42 44 46 48 48 48 48
22 20 22 24 24 22 26 26 28 25 26 23 23 23 19 16 18 19 20 20 22 21 21 21 22 24 26 28 30 33 33 35 35 38 40 41 44 47 50 50 50 50 51
22 21 23 24 22 26 28 27 27 26 24 23 24 21 17 17 19 21 22 24 24 25 28 28 27 27 28 30 34 37 39 40 41 42 45 46 47 51 53 54 55 55 54
21 23 25 26 22 25 28 30 25 25 24 22 22 20 17 17 21 23 25 26 27 30 33 34 33 32 32 36 36 38 40 43 45 47 50 53 54 56 57 57 57 57 55
22 25 26 26 24 29 28 26 22 24 20 21 22 21 20 21 22 26 27 27 29 31 34 37 37 34 37 40 37 45 48 51 54 56 58 58 59 61 61 61 59 57 56
24 30 29 22 28 26 21 19 19 19 20 20 21 21 20 23 25 28 29 29 29 31 34 35 33 36 39 40 42 46 49 52 55 57 59 59 59 61 60 59 58 56 55
28 30 25 28 26 23 23 20 21 21 21 19 20 21 23 26 28 29 30 32 33 33 33 36 36 38 36 40 45 48 54 57 58 59 61 62 63 60 58 57 57 57 57
19 24 27 22 21 23 24 23 22 22 21 21 23 25 26 27 27 30 32 32 33 33 34 35 34 38 39 44 50 55 58 58 60 61 62 62 60 59 58 59 61 60 61
19 23 24 23 24 24 25 24 22 23 23 24 25 27 29 31 31 30 32 32 34 37 38 38 37 40 45 48 51 54 55 57 61 61 61 61 61 61 62 64 66 66 67
19 21 23 21 21 24 25 24 23 24 25 29 31 33 33 33 36 36 34 31 35 39 40 41 42 45 49 50 51 51 52 56 59 62 64 64 65 65 67 69 70 71 73
16 21 23 20 24 26 25 26 26 27 29 30 30 33 36 36 32 30 31 39 38 39 40 44 47 50 52 53 51 51 55 57 61 63 64 66 67 70 72 74 75 75 77
19 22 23 24 27 28 26 28 30 33 34 32 34 33 32 33 34 41 39 39 38 39 42 46 50 52 54 53 53 55 58 59 62 64 66 67 70 72 75 76 77 80 84
21 22 24 26 27 28 28 32 33 35 42 29 30 29 33 35 36 37 39 39 40 43 46 50 52 51 53 54 55 57 59 62 64 67 68 71 73 75 76 78 81 87 90
23 24 25 26 27 28 23 23 34 34 32 26 26 31 34 36 37 38 39 41 43 46 49 52 52 53 56 56 57 60 60 63 65 67 70 71 74 77 81 83 87 91 94
27 34 30 29 27 25 23 31 29 28 31 29 33 36 37 38 38 38 40 44 47 50 52 54 55 56 56 58 60 62 63 66 67 70 72 76 78 81 84 88 92 94 96
31 37 38 29 27 27 30 30 32 30 33 36 39 39 39 39 40 42 44 48 52 54 56 57 59 58 58 61 63 65 67 68 71 74 77 79 82 84 87 91 96 96 96
35 33 43 30 24 26 27 30 32 35 36 38 39 40 41 41 43 45 48 52 55 58 59 59 58 60 61 63 65 67 69 71 74 78 81 83 86 88 91 95 95 95 88
25 25 17 27 21 25 28 30 36 35 37 41 41 41 42 43 46 49 53 56 59 60 59 60 61 63 66 68 68 70 71 74 79 83 85 87 89 91 93 93 92 89 80
21 24 25 24 28 29 30 33 36 38 41 41 42 42 44 47 50 55 57 60 61 59 61 63 64 66 69 71 75 75 74 79 84 85 87 90 93 95 95 92 89 82 72
25 27 26 27 29 32 34 37 38 40 42 43 44 45 47 51 55 59 62 63 61 61 63 65 68 70 73 77 78 78 78 83 85 86 89 93 95 98 96 89 82 74 68
29 32 31 32 33 35 37 40 42 43 43 44 46 48 52 55 59 61 63 65 64 66 67 68 69 72 75 78 80 83 86 90 90 92 98 101 103 104 94 83 74 67 64
34 36 36 36 38 39 41 42 45 45 46 48 50 52 56 59 61 64 67 66 67 68 69 72 72 74 75 79 83 86 90 93 96 99 105 105 103 100 83 73 65 61 60
37 38 38 41 41 42 43 45 46 47 49 51 54 57 60 63 68 68 67 68 68 71 74 77 78 77 79 82 86 90 93 97 99 102 106 109 100 87 73 64 59 60 57
37 39 42 45 45 45 45 47 48 51 53 56 59 61 63 69 69 70 69 68 71 74 77 78 78 79 81 85 90 93 95 100 103 102 103 104 87 76 65 58 57 57 47
39 43 46 47 46 47 49 51 52 55 58 60 62 64 70 72 71 70 71 74 77 79 79 79 79 80 82 86 90 94 97 101 105 106 98 93 77 69 63 57 56 45 39

GFSMA_500_spd_066.txt.gz
Wind_Speed
20 20 24 26 26 22 20 22 19 17 22 33 27 23 22 23 20 18 17 17 17 17 17 17 16 16 17 19 20 21 22 24 25 26 26 29 32 34 36 37 38 40 43
20 19 19 23 28 22 22 18 19 19 22 26 27 24 26 24 21 19 17 17 18 18 19 20 20 21 22 22 24 24 25 26 28 28 29 32 34 36 39 41 43 45 48
19 21 20 21 23 22 23 21 20 20 24 26 26 26 27 25 21 19 17 18 20 21 22 23 24 25 26 26 27 26 27 30 28 31 32 34 37 39 41 43 45 48 51
25 21 23 23 24 22 24 23 24 23 26 28 25 26 26 24 20 19 19 21 22 25 25 27 29 29 30 32 33 34 33 32 34 37 37 40 41 44 45 46 46 47 49
23 25 25 28 26 27 25 26 25 25 27 32 26 22 23 22 21 21 23 25 26 27 28 30 32 33 34 37 38 35 36 36 37 37 42 43 44 45 43 44 45 46 46
24 26 29 30 25 29 26 27 27 27 28 27 26 22 21 21 23 26 25 25 28 29 29 32 33 34 36 37 36 35 34 34 38 43 45 45 44 41 39 41 42 43 45
29 28 30 28 29 28 29 27 27 27 27 25 25 23 25 25 26 26 25 28 30 30 31 34 36 36 34 34 35 36 39 41 41 44 45 44 42 41 42 42 42 43 44
32 26 28 29 30 24 25 27 24 19 22 22 22 24 25 23 26 27 28 30 31 32 33 34 34 35 34 33 34 35 40 44 46 47 45 43 46 46 46 46 46 47 48
31 28 28 25 25 27 24 23 20 19 20 21 25 26 25 26 28 29 30 31 32 33 35 36 36 38 38 36 39 42 45 47 49 47 43 48 48 50 50 49 50 52 55
28 28 28 25 25 24 22 26 27 25 24 26 27 28 29 29 29 29 32 33 36 37 37 33 37 40 40 41 43 46 49 50 49 49 49 50 51 54 54 55 57 59 62
13 16 22 25 24 25 29 27 25 23 28 28 30 32 34 34 35 34 31 35 31 35 31 40 38 39 39 43 46 50 51 53 54 52 53 54 55 56 56 60 63 64 64
11 15 21 24 24 24 25 25 27 29 29 30 32 34 37 38 35 34 32 30 35 37 39 38 37 38 42 46 50 53 54 55 57 55 55 58 59 60 61 63 65 67 70
14 17 21 24 25 24 26 28 28 31 29 33 37 40 33 38 37 34 32 36 39 40 40 39 40 43 46 49 52 55 56 57 58 56 58 59 61 64 66 68 70 73 76
19 21 22 24 25 25 28 32 32 30 32 35 40 39 37 39 35 30 36 40 39 40 40 41 42 46 50 52 54 56 56 57 56 58 59 61 64 67 69 72 75 77 80
21 21 21 23 25 28 32 34 30 32 31 32 33 40 38 33 34 37 39 40 41 41 40 41 45 49 52 54 56 57 55 57 58 60 63 66 68 67 70 73 78 82 83
24 25 25 25 28 30 31 32 31 32 33 33 37 36 33 34 37 40 41 41 39 40 42 45 48 52 54 56 57 56 56 58 60 63 66 67 69 69 71 75 82 83 86
31 29 29 27 30 33 37 33 33 33 30 38 39 37 37 40 40 42 42 41 40 42 45 48 52 55 56 55 56 57 59 61 64 66 68 72 72 75 78 82 85 86 87
36 33 32 31 41 40 46 37 33 42 37 38 39 39 40 43 43 42 41 42 43 46 49 53 56 57 58 59 61 62 63 64 66 67 70 71 75 78 81 86 87 88 90
44 33 34 43 45 36 44 37 34 32 34 36 41 42 42 43 43 43 43 45 48 51 55 58 59 61 63 62 63 64 65 66 70 70 70 72 77 81 85 89 89 90 94
11 22 21 22 25 26 37 33 28 34 38 41 43 44 44 44 45 46 47 49 52 55 59 62 66 67 66 65 66 66 67 70 72 71 72 76 79 84 89 89 92 95 98
19 19 22 22 22 24 25 26 32 36 39 40 43 44 45 47 47 48 50 52 55 59 63 67 66 66 66 66 68 70 72 76 73 73 76 78 81 83 87 90 96 101 103
26 25 24 26 29 29 29 33 36 37 41 43 45 46 48 48 49 51 54 56 58 61 66 68 69 68 69 71 73 75 77 78 79 79 80 79 84 87 91 95 101 105 104
28 31 30 30 31 33 35 37 39 42 45 49 50 50 49 50 52 54 56 58 61 66 69 72 72 74 74 76 78 80 83 85 85 84 85 83 87 90 94 100 104 104 92
32 34 33 35 37 39 40 38 43 46 51 53 52 52 52 53 55 58 60 62 66 69 74 76 74 74 75 78 83 86 87 87 85 86 89 90 92 95 99 102 102 92 78
35 36 37 37 40 42 43 44 48 53 54 53 55 55 56 57 60 62 64 66 70 75 75 72 73 77 81 85 88 89 89 89 88 87 89 95 96 100 102 101 92 78 69
37 39 41 43 45 45 47 50 52 54 54 55 56 58 59 61 64 66 69 70 75 77 74 77 80 83 86 88 90 89 89 87 89 88 91 96 99 103 102 91 77 70 63

GFSMA_500_spd_069.txt.gz
Wind_Speed
41 33 29 35 34 29 24 21 23 19 21 19 20 21 24 24 25 24 23 21 18 17 16 17 15 16 17 18 19 21 21 21 23 22 24 24 26 28 29 30 31 33 35
29 28 31 32 32 31 27 22 22 23 20 19 19 23 25 28 24 25 23 20 19 17 17 18 18 18 20 21 23 24 25 25 26 27 27 28 29 30 31 32 34 33 33
24 24 27 30 30 28 29 28 22 22 21 22 18 22 23 24 25 24 24 19 17 19 18 21 23 24 25 26 27 29 30 31 32 35 36 33 32 34 34 35 33 33 35
28 21 24 24 23 23 26 24 19 22 22 22 22 25 28 25 26 25 22 19 18 19 23 24 28 31 29 30 32 32 33 35 34 35 35 31 36 35 36 35 34 38 38
21 21 23 24 24 25 27 27 24 24 23 22 23 28 28 26 25 24 22 19 22 23 25 29 30 31 31 32 33 34 34 35 35 35 34 38 37 39 40 37 36 39 37
21 21 26 24 26 29 31 30 25 27 25 25 27 32 24 21 24 25 23 24 26 26 28 30 31 33 34 34 34 33 31 32 34 35 36 38 41 43 41 40 40 40 41
25 26 24 27 30 33 32 31 27 28 27 27 30 32 25 26 28 27 26 28 28 28 30 32 33 33 32 32 33 34 34 34 32 36 38 43 45 44 43 41 44 42 46
26 25 27 30 34 32 32 30 31 29 30 28 29 27 28 27 30 29 29 29 31 30 32 32 31 33 34 35 35 36 37 38 37 39 42 45 46 45 46 46 47 48 50
26 27 32 35 31 32 34 32 26 23 29 23 28 29 26 27 31 29 30 31 32 32 33 34 36 37 37 36 38 36 37 37 39 43 45 46 46 48 49 50 51 51 51
30 30 32 30 29 34 29 22 25 30 28 24 25 26 26 29 31 30 32 33 32 34 35 38 34 37 34 39 40 40 37 39 43 45 48 50 51 52 53 53 54 55 54
29 31 32 32 27 29 25 27 26 30 26 24 26 29 29 29 29 32 34 37 39 36 37 37 40 40 41 39 38 38 40 44 47 48 51 53 54 55 54 53 55 56 58
16 18 21 21 25 23 24 26 28 27 29 28 30 29 31 31 33 37 40 39 37 37 37 40 41 41 43 40 40 41 43 47 50 52 54 55 56 56 55 55 57 60 62
14 14 15 20 22 24 25 28 31 31 33 32 30 30 32 34 34 37 44 39 43 38 36 40 41 44 42 40 41 44 47 50 53 55 55 55 56 56 58 60 62 64 67
12 14 16 21 25 27 29 30 30 30 30 28 29 35 34 38 41 37 42 43 44 35 36 42 42 41 42 42 44 47 51 53 55 56 56 58 59 59 61 64 66 68 70
16 18 19 21 23 24 26 28 26 27 29 30 31 38 44 37 43 44 37 39 39 38 41 40 43 43 42 44 47 51 53 56 56 58 59 61 63 64 63 65 68 69 70
18 19 21 24 26 27 28 29 29 30 31 32 36 39 37 42 44 42 37 37 39 43 43 43 44 44 45 49 51 53 56 59 60 61 61 63 63 64 67 70 70 69 71
25 27 25 28 30 30 28 30 29 33 33 33 38 40 36 49 50 46 42 42 42 45 46 45 46 47 49 52 53 57 60 63 62 62 63 65 66 67 70 72 71 73 77
26 29 38 39 35 35 38 38 35 35 40 40 38 44 42 47 45 43 43 44 45 46 46 47 48 49 51 54 57 61 63 62 64 66 66 66 68 70 72 75 77 79 79
22 26 28 38 39 35 36 39 41 42 42 46 45 47 39 42 44 44 43 46 48 47 48 50 51 53 54 55 60 62 65 67 68 68 69 71 73 74 78 78 79 79 79
23 25 24 26 37 31 33 41 40 46 48 47 48 43 42 43 44 45 47 49 51 53 52 54 54 56 57 61 64 66 69 70 69 70 69 72 76 78 79 80 79 79 80
28 26 24 20 22 29 28 29 31 38 40 35 38 44 43 43 44 47 50 53 54 55 55 56 58 59 61 64 68 70 74 68 67 70 73 76 78 79 80 80 78 80 84
29 29 29 27 27 29 27 28 32 33 34 35 37 40 43 46 48 51 55 55 56 57 57 58 60 62 66 69 71 75 72 69 73 76 78 79 81 82 84 84 84 86 88
29 28 31 32 30 32 34 33 33 34 37 41 44 44 46 48 52 56 56 56 56 57 58 61 64 67 68 71 75 76 72 76 79 81 83 82 84 85 86 85 86 88 92
29 28 29 31 34 36 35 36 38 40 41 43 46 47 50 54 56 56 57 59 59 60 63 65 67 69 73 76 73 74 79 81 83 84 85 83 86 85 85 86 88 91 96
31 30 30 30 31 34 36 38 41 44 46 48 48 49 54 61 58 58 59 61 61 63 66 68 71 75 73 73 77 81 84 86 86 85 85 87 86 86 85 88 90 94 97
32 33 33 33 34 37 38 41 44 46 49 50 51 49 62 61 59 60 62 63 65 67 69 72 72 75 78 81 83 85 86 86 88 88 86 86 87 90 90 88 92 95 93

GFSMA_500_spd_072.txt.gz
Wind_Speed
35 32 48 42 36 30 28 27 29 26 23 20 21 23 22 22 21 24 25 24 21 21 21 17 16 15 14 15 17 18 21 23 25 26 26 26 28 28 30 30 30 31 32
34 32 50 38 36 33 32 30 30 26 21 24 23 22 20 22 24 24 26 25 23 23 19 18 17 17 16 17 20 21 23 26 29 30 29 31 34 36 34 34 34 33 34
32 44 47 42 35 32 36 35 32 27 24 24 24 23 20 22 26 26 28 27 24 24 19 18 19 18 20 21 24 27 29 30 31 32 34 36 35 33 32 33 34 35 34
28 37 42 35 32 32 33 33 33 32 27 25 24 24 23 26 29 31 27 27 25 21 21 20 19 22 22 25 30 31 32 32 32 34 35 33 33 31 34 34 36 37 35
22 23 28 28 29 30 30 32 33 28 25 26 26 26 25 28 29 29 28 26 24 22 20 24 23 26 28 30 32 33 33 33 34 33 33 33 33 33 35 38 39 38 37
27 22 23 22 23 26 27 27 27 31 31 29 27 28 27 30 31 30 30 26 25 24 26 27 27 29 28 30 32 31 33 34 34 34 35 35 33 36 37 39 41 41 42
24 21 19 19 22 24 25 27 31 34 33 32 30 29 28 30 32 33 30 28 31 29 28 31 31 31 31 33 33 33 35 36 35 36 37 37 38 37 40 41 43 44 46
19 26 27 24 23 27 25 31 33 34 33 29 28 28 29 32 30 26 28 31 30 30 31 32 32 32 32 33 36 38 38 37 37 38 36 35 39 41 43 45 45 45 47
27 23 27 28 29 31 32 34 35 34 33 29 31 27 29 32 32 34 34 32 31 32 34 33 32 33 35 38 37 37 37 38 41 40 39 39 40 43 45 47 48 48 50
28 27 34 31 27 32 36 33 36 35 29 25 31 31 31 30 34 29 28 29 32 35 34 35 36 39 40 41 39 40 41 42 41 39 40 42 45 47 50 51 50 51 52
31 29 32 30 31 32 31 31 33 30 26 24 24 28 30 31 34 27 27 31 35 38 36 35 39 40 43 43 44 42 42 43 41 42 43 46 47 50 52 54 55 56 55
37 32 33 33 34 33 32 26 24 24 25 25 28 28 25 24 25 27 34 36 38 41 41 41 45 45 44 43 41 43 47 45 46 45 46 49 51 53 55 55 57 59 60
21 19 27 30 31 29 25 25 24 26 28 27 30 31 29 26 30 34 37 38 42 46 47 41 44 47 46 45 45 44 46 49 46 48 49 51 53 54 58 59 58 59 62
11 11 13 16 20 23 24 24 24 29 26 27 30 33 34 32 35 36 38 38 44 44 44 44 47 48 44 45 43 47 50 47 47 49 52 54 57 59 59 59 61 62 64
11 10 12 15 17 18 21 24 25 27 29 31 32 35 35 35 38 40 40 39 44 42 38 42 44 44 45 47 48 47 48 49 50 52 54 57 60 61 61 63 64 66 67
11 13 18 18 21 25 26 26 25 28 30 30 33 34 37 37 42 43 42 38 39 45 51 46 43 46 48 47 49 50 49 52 54 56 58 59 61 63 67 67 66 67 69
18 19 17 22 24 24 28 32 30 32 34 34 36 38 40 42 43 45 44 42 49 49 46 46 44 48 49 50 50 52 53 54 57 60 63 65 67 69 72 68 67 67 70
24 23 21 21 23 27 34 34 33 35 36 35 38 37 39 46 47 41 46 48 48 45 46 44 47 49 52 53 53 54 56 58 61 64 66 69 72 73 72 68 69 72 74
22 24 24 25 23 24 27 36 44 42 38 39 43 48 47 47 51 46 46 50 47 45 47 46 51 53 54 55 56 58 60 62 64 67 69 72 74 76 71 72 74 77 79
24 27 29 29 30 28 29 36 39 42 39 48 52 51 45 49 44 31 39 42 44 45 46 49 54 55 57 59 60 62 63 65 67 70 71 74 78 73 74 78 81 82 82
30 31 32 32 33 32 29 28 34 32 33 35 38 45 48 41 52 49 46 50 49 50 53 55 57 59 61 63 63 64 65 67 69 72 74 76 73 76 79 82 83 82 83
35 37 36 33 33 31 31 31 32 34 35 34 35 36 38 39 40 46 48 52 52 54 56 59 61 62 63 64 64 65 66 69 73 72 72 74 78 80 82 82 82 84 85
34 33 31 31 32 32 32 34 35 35 37 39 39 40 42 43 46 48 50 53 55 58 58 61 64 65 66 66 68 69 70 74 74 74 77 79 82 83 84 84 84 84 83
32 32 33 32 31 30 32 33 34 36 37 38 40 42 45 47 48 51 53 53 59 64 61 66 69 68 69 69 71 73 75 75 75 78 82 84 86 86 85 86 85 84 85
35 34 35 35 34 34 35 36 37 39 40 41 43 45 48 50 53 55 55 54 61 64 72 73 72 71 71 73 75 76 77 78 79 82 87 88 89 88 87 84 84 86 89
38 38 39 39 39 39 40 40 41 44 45 47 48 50 52 54 56 56 57 61 63 63 72 74 74 74 75 76 78 78 79 81 84 87 90 90 89 88 82 83 85 88 91

GFSMA_500_spd_075.txt.gz
Wind_Speed
36 36 42 36 39 36 35 32 28 27 25 22 22 23 23 24 23 25 24 24 23 23 23 20 20 16 13 13 13 16 17 20 21 22 24 27 28 29 31 33 34 33 31
39 38 42 41 44 40 37 34 32 27 25 26 24 26 25 25 25 23 24 25 24 24 22 18 19 15 13 16 16 18 20 22 25 27 28 29 31 32 34 33 32 31 31
35 36 39 41 42 44 43 34 32 30 28 29 26 27 26 26 26 24 25 27 25 24 22 20 18 18 16 19 18 20 22 25 28 31 31 32 33 34 34 32 31 31 31
32 31 35 39 42 48 45 36 34 34 32 30 31 30 28 27 27 26 27 29 27 24 23 20 17 18 21 18 21 23 27 28 30 31 32 34 35 34 32 30 31 32 34
32 36 38 41 42 53 37 31 30 33 30 29 36 32 30 29 28 29 29 30 30 25 24 22 24 21 22 22 24 28 29 30 30 31 32 33 34 33 32 32 32 34 36
30 30 33 41 39 47 33 29 32 33 31 35 37 32 31 30 31 30 30 32 30 27 26 24 23 25 24 24 28 30 29 31 32 34 36 37 37 35 36 35 35 37 39
21 20 16 18 30 32 29 30 30 29 29 31 32 35 35 33 30 28 31 33 31 30 27 27 28 26 27 28 29 30 31 32 34 38 39 39 38 38 36 34 37 40 42
17 18 16 18 21 22 24 26 25 26 29 31 34 34 32 30 27 30 31 33 34 31 29 31 28 28 29 29 31 31 34 37 38 35 34 37 39 42 40 39 41 43 45
17 18 16 17 24 27 23 24 27 26 28 31 31 28 18 14 19 23 30 32 31 32 30 28 29 30 32 33 32 37 39 39 38 38 38 36 37 40 40 41 43 45 48
24 22 24 23 23 27 25 26 28 31 29 27 28 22 25 23 22 20 26 31 31 30 29 30 32 34 36 37 42 40 40 42 40 41 41 41 44 44 43 44 46 47 48
28 28 27 26 24 29 28 28 28 31 30 28 27 25 25 21 27 32 28 28 25 29 31 33 34 37 40 42 43 46 49 48 44 40 42 42 46 49 48 48 49 52 54
34 35 31 30 26 25 29 32 30 28 28 22 26 26 25 25 23 25 31 34 32 28 30 33 35 37 45 47 43 48 47 52 44 44 41 44 48 47 49 51 52 54 56
20 33 37 33 29 31 30 34 30 31 29 23 24 23 24 23 25 23 20 25 30 33 33 34 41 44 39 41 45 45 52 42 43 43 44 46 48 50 53 54 55 58 59
5 7 7 18 23 29 26 22 24 21 21 24 21 25 25 25 28 30 34 36 39 38 37 38 38 39 39 38 40 45 45 46 45 46 48 49 50 52 55 57 59 61 63
10 8 10 11 13 15 15 18 17 20 24 24 24 24 27 28 32 34 39 39 40 41 42 43 47 40 43 47 45 43 42 46 48 50 51 51 54 55 57 60 62 65 67
12 11 12 12 15 16 19 20 19 21 24 26 26 27 31 32 34 36 41 42 43 47 48 46 44 50 55 50 44 38 43 45 48 49 51 54 56 58 60 63 66 67 70
16 16 18 16 16 19 23 23 24 27 29 30 33 33 34 35 39 40 42 45 46 52 52 47 49 44 51 45 42 43 46 48 50 52 53 57 59 61 63 66 67 69 73
22 23 23 23 20 20 21 26 29 32 35 37 39 37 36 39 41 40 43 49 55 54 53 49 42 42 47 48 52 47 49 52 54 56 57 60 62 64 66 67 69 74 75
22 22 24 23 23 23 23 23 26 27 30 39 42 42 38 42 43 48 56 57 56 52 48 51 51 47 48 52 51 52 54 55 56 59 61 64 65 66 68 70 74 75 72
25 25 25 26 26 24 24 27 29 31 33 36 43 47 44 45 49 46 51 52 54 44 36 42 44 48 54 54 54 55 58 59 61 63 65 67 67 69 71 73 76 74 77
28 30 31 32 33 33 33 32 33 34 35 33 33 35 39 41 41 44 43 48 44 43 48 49 48 54 54 59 59 59 58 61 65 66 69 70 71 73 74 73 75 78 80
32 34 36 38 40 38 34 34 35 35 34 34 33 37 39 38 40 43 43 45 45 46 41 57 55 57 57 63 65 65 64 67 67 71 73 75 75 74 75 78 80 82 85
37 36 36 39 38 38 38 36 37 37 36 34 36 38 38 41 44 45 46 50 49 53 54 57 58 58 61 63 66 65 70 73 74 76 80 78 77 77 80 81 83 86 90
40 40 41 38 38 36 36 38 40 39 37 36 38 39 43 45 44 45 51 53 56 57 51 61 62 55 65 69 65 73 77 79 80 84 85 80 81 82 83 86 86 91 91
42 41 43 42 42 40 36 38 41 43 43 42 43 45 46 48 50 51 52 58 61 58 58 60 64 61 63 68 75 84 81 85 89 88 84 85 85 86 89 89 89 94 90
45 41 41 43 44 44 44 43 45 46 48 48 47 49 51 53 55 56 58 59 60 60 61 67 60 66 64 69 74 80 84 89 86 86 89 90 92 92 89 89 93 90 86

GFSMA_500_spd_078.txt.gz
Wind_Speed
25 25 25 22 32 40 36 31 30 30 27 27 26 24 25 22 22 20 23 20 22 20 19 17 17 17 14 15 15 15 14 16 16 18 19 20 23 25 27 29 31 31 30
28 28 29 31 35 40 34 32 32 30 29 29 27 26 25 22 24 23 23 23 19 21 22 19 18 17 16 17 15 15 16 16 19 20 22 25 27 29 30 31 31 32 30
36 35 33 34 39 42 35 36 34 33 31 31 28 26 28 26 23 24 25 22 20 22 24 20 18 18 16 17 16 17 17 18 19 22 24 27 29 29 29 30 31 31 30
40 32 28 35 33 42 37 38 39 37 34 32 29 28 28 28 27 28 25 23 24 24 25 22 19 19 20 19 16 20 19 19 21 25 26 28 29 30 31 33 34 32 32
35 34 32 36 29 40 39 42 43 42 36 34 30 31 31 30 29 30 29 28 28 27 26 23 23 22 22 22 22 21 18 21 23 26 26 27 29 32 33 33 33 32 35
24 29 31 41 35 34 40 37 35 47 41 29 30 28 31 30 29 31 32 30 31 28 28 27 25 23 26 21 25 21 21 22 24 25 27 29 31 31 31 33 33 36 36
27 29 30 36 39 41 36 39 37 46 32 25 25 27 28 31 31 33 33 31 27 28 31 29 29 26 28 23 25 24 24 25 26 28 31 33 34 34 33 32 35 36 37
18 21 24 26 29 37 36 31 29 32 22 21 24 25 28 30 33 32 31 26 28 29 32 30 31 30 28 26 28 27 28 30 30 32 34 38 38 36 37 35 36 39 39
15 16 17 13 11 12 12 13 16 22 21 24 25 25 27 26 26 21 19 21 21 25 28 30 29 31 29 31 32 31 32 33 37 37 36 37 35 38 36 41 41 41 44
22 17 16 15 14 10 12 20 21 21 22 27 27 27 23 21 23 20 19 18 19 19 25 27 26 25 29 31 31 31 34 38 39 41 44 42 41 38 37 42 42 43 45
25 24 19 19 17 18 15 20 24 23 22 25 27 27 25 20 19 19 25 23 24 23 23 24 25 28 30 32 33 32 36 41 46 43 41 42 38 35 37 41 41 42 45
23 21 21 22 24 20 19 21 22 30 27 26 26 25 25 26 25 24 21 21 28 32 30 27 26 28 30 31 33 36 36 36 36 40 39 41 37 39 41 42 42 44 47
6 17 30 31 30 28 27 24 26 26 29 29 27 29 30 26 25 24 22 22 23 22 26 25 30 32 34 35 34 35 37 36 40 40 42 40 43 44 44 43 46 48 50
5 4 4 12 28 35 33 30 29 29 29 27 28 28 28 25 24 23 25 26 30 31 32 29 35 38 41 43 42 43 41 46 44 45 38 41 47 47 47 47 48 50 54
7 6 6 5 5 6 15 24 24 21 23 22 21 21 22 24 22 23 24 28 33 34 33 35 39 40 46 46 49 48 47 51 42 43 39 47 46 48 50 51 52 54 56
11 10 10 9 9 9 12 16 17 20 22 20 21 22 22 26 28 28 28 30 31 35 36 38 42 42 47 51 52 51 51 47 45 43 50 48 47 49 51 51 53 56 58
15 15 14 14 14 15 16 17 18 21 21 22 24 26 27 28 32 31 31 32 35 36 42 43 45 49 52 56 52 50 47 57 49 49 52 52 50 52 53 54 56 58 61
17 18 21 22 23 24 22 19 19 21 24 28 30 31 31 32 35 34 37 40 41 43 44 48 54 54 58 51 51 50 48 56 49 52 54 53 54 52 52 56 59 62 65
20 21 21 21 22 26 26 23 23 24 25 27 28 28 29 35 42 45 40 42 44 47 49 53 55 55 55 56 52 44 44 48 51 56 55 56 54 52 56 59 61 64 68
24 21 25 25 26 27 26 25 24 25 27 30 33 34 35 35 33 43 48 44 44 47 50 51 51 49 42 38 43 45 49 53 56 58 59 58 59 59 60 63 66 70 75
28 29 28 29 30 32 32 32 33 33 35 37 37 35 35 37 37 44 49 50 48 47 48 47 47 47 47 48 53 47 51 55 54 57 68 69 67 63 63 71 74 78 77
33 32 32 31 31 35 36 38 40 41 41 41 40 39 37 39 36 35 37 41 45 46 48 50 50 50 53 48 50 64 60 56 60 63 75 72 65 71 76 80 80 80 77
37 38 38 37 36 36 36 37 39 44 45 43 42 40 40 41 41 42 42 44 46 46 50 56 51 50 52 60 59 44 58 60 70 68 78 66 63 75 84 89 86 82 84
38 39 39 41 39 37 39 39 41 42 46 45 42 40 44 43 44 45 44 46 51 46 56 53 57 52 52 57 55 67 62 62 64 74 78 72 80 87 84 90 88 87 88
44 42 42 42 42 41 42 43 42 43 45 47 45 43 44 47 48 49 49 51 52 55 57 58 61 62 63 64 63 63 74 74 68 75 82 81 84 86 86 90 90 89 88
51 47 44 46 45 49 42 43 46 46 47 48 50 50 49 49 51 53 54 56 57 59 60 61 62 64 64 66 68 70 74 83 74 74 78 87 90 91 94 91 90 89 92

GFSMA_500_spd_081.txt.gz
Wind_Speed
26 21 16 20 22 25 33 39 38 41 33 32 30 20 23 23 23 19 16 16 18 16 18 17 18 17 15 15 13 15 17 17 17 17 17 15 16 18 20 21 22 23 25
27 30 22 22 17 19 21 34 35 38 36 36 30 23 23 24 22 20 17 19 18 19 18 19 20 19 17 16 16 18 18 18 19 17 17 18 19 20 20 21 22 24 26
27 31 31 26 21 24 20 29 33 35 38 36 30 24 23 25 23 22 18 18 20 19 18 21 22 21 20 17 19 19 18 18 19 18 18 18 19 21 23 21 23 26 27
30 25 23 25 25 25 21 27 38 35 35 35 31 30 24 25 25 24 23 22 21 20 19 20 23 23 21 22 20 20 18 19 19 19 18 21 21 21 22 23 26 27 29
26 28 26 31 31 25 24 22 41 39 34 34 34 31 27 26 26 26 27 28 24 23 21 22 25 29 24 24 22 22 20 20 18 17 19 19 20 21 25 28 29 30 29
26 31 31 32 36 31 25 23 34 39 40 37 37 33 31 27 28 27 28 25 25 25 25 26 28 29 25 26 25 22 23 22 19 19 21 21 23 26 27 28 30 31 31
20 27 27 27 27 24 25 27 30 36 40 36 38 39 25 33 26 26 25 24 24 26 25 27 29 27 28 27 26 24 25 25 23 24 24 25 27 28 29 30 32 33 32
8 9 15 20 22 24 28 33 33 36 33 38 30 34 26 24 26 22 21 24 27 28 25 25 27 29 29 30 28 32 29 27 28 27 28 29 31 33 35 37 34 36 30
7 8 10 15 19 19 22 35 38 36 27 25 20 24 24 22 23 21 21 21 21 21 22 24 29 28 31 34 34 34 31 33 32 30 31 32 36 38 40 37 38 36 35
13 14 14 15 15 14 9 9 11 12 14 17 20 25 23 21 21 20 20 21 20 17 17 16 21 26 31 32 34 30 34 33 33 35 36 38 41 41 41 34 32 33 38
23 19 19 16 16 16 15 14 14 16 18 19 20 24 24 24 23 23 25 26 25 19 18 19 17 18 24 27 30 35 38 35 36 36 39 34 32 33 35 33 35 38 40
14 17 20 22 22 22 17 17 16 17 19 20 21 24 23 25 24 25 24 24 22 23 28 26 27 25 23 23 27 30 32 33 36 34 34 35 36 37 36 35 37 41 42
3 8 19 26 26 23 23 22 22 21 22 23 23 23 25 25 27 28 29 28 27 25 22 22 26 30 27 28 28 30 35 37 37 39 36 41 42 39 39 36 42 43 46
5 6 6 8 16 24 29 26 30 26 26 26 23 25 27 26 29 30 30 28 30 28 26 22 24 25 28 32 34 37 39 42 44 48 47 46 46 40 39 44 47 45 47
4 5 7 7 6 7 8 19 32 30 31 27 29 27 26 23 24 27 25 27 31 32 31 27 31 31 32 35 37 39 40 42 45 51 52 46 48 47 43 46 48 47 48
8 7 7 8 9 9 10 7 9 15 19 21 25 25 24 24 26 27 27 29 33 35 36 31 34 34 35 36 37 39 43 50 51 49 49 49 46 51 48 50 49 51 54
12 12 12 11 11 13 13 12 14 17 18 21 23 24 25 28 32 33 32 35 37 37 39 33 38 39 38 37 38 44 49 53 57 54 52 47 45 50 50 49 52 54 56
13 14 15 16 19 20 20 20 22 20 18 17 21 25 25 28 32 33 35 37 38 39 40 39 52 42 44 44 46 51 53 51 50 57 55 52 49 55 59 56 55 57 59
18 20 20 20 22 22 22 24 25 25 23 24 26 27 26 30 31 33 36 36 40 43 47 49 49 45 43 45 47 47 44 41 39 38 38 45 48 50 57 57 63 63 63
23 23 23 22 23 26 26 26 27 29 29 28 30 32 33 35 35 37 39 39 36 37 44 49 49 49 47 48 46 46 50 48 46 49 49 46 49 57 57 61 65 68 71
29 29 28 26 24 25 25 29 33 35 36 35 36 36 37 38 39 41 42 42 44 45 46 49 49 54 54 51 53 49 53 48 42 46 47 53 56 58 58 68 68 72 71
30 33 31 30 32 29 28 31 32 35 41 44 43 44 43 43 42 43 43 44 47 45 45 43 45 48 50 52 53 55 50 50 55 50 52 62 53 60 63 62 70 78 74
36 33 33 35 34 35 33 32 35 38 38 39 42 42 41 42 45 47 46 47 47 46 46 47 49 51 50 53 49 55 53 58 54 59 60 57 63 71 68 74 73 71 73
40 41 40 39 38 35 35 36 38 39 40 41 43 43 44 42 42 44 47 48 47 47 48 48 47 51 53 56 57 58 57 60 59 61 58 58 61 62 72 78 84 84 77
48 44 46 47 47 41 39 39 41 44 45 44 45 42 44 44 43 44 46 48 51 52 52 52 52 53 58 56 64 65 61 59 65 64 62 68 68 68 73 79 81 81 82
48 51 49 50 48 47 48 49 48 49 51 52 49 50 46 42 43 46 49 51 52 53 55 57 58 60 63 65 66 66 63 65 68 69 68 68 73 73 74 74 79 81 87

GFSMA_500_spd_084.txt.gz
Wind_Speed
35 25 26 27 29 26 25 25 31 34 33 32 34 27 26 24 21 21 17 16 15 16 16 16 18 22 22 21 19 17 18 19 21 20 20 18 16 14 15 15 16 18 20
30 24 24 20 28 23 20 24 29 34 36 36 35 29 28 25 22 23 19 19 18 18 16 18 18 20 23 23 21 20 20 21 21 19 20 18 16 15 17 16 18 18 21
24 27 25 17 20 20 17 18 22 27 37 36 37 32 30 26 24 24 21 21 17 17 17 17 18 21 25 24 23 21 21 20 22 19 20 17 17 16 18 17 19 20 23
33 31 27 26 23 24 20 20 17 22 36 35 35 30 33 30 26 25 25 24 23 19 17 19 20 23 27 27 26 25 25 24 23 18 19 19 19 17 19 20 21 22 23
38 39 29 32 24 27 24 18 19 19 28 32 37 33 38 34 28 27 26 24 24 22 21 23 24 25 28 29 30 32 25 24 24 23 21 18 20 24 22 22 22 24 23
40 41 33 27 24 25 26 26 20 20 27 31 37 34 38 37 32 31 27 27 25 24 23 25 25 28 28 32 34 32 31 31 27 29 22 24 20 26 23 24 24 23 25
31 27 27 29 32 27 29 34 27 23 21 41 44 34 36 38 35 31 29 30 29 27 26 26 26 28 30 35 33 33 30 28 28 30 27 23 27 27 28 28 29 30 31
25 24 25 30 31 30 26 27 25 25 23 27 34 39 40 32 40 32 32 30 27 26 27 28 28 30 31 35 34 34 33 31 28 32 29 29 29 30 31 34 34 34 34
11 10 11 16 18 19 22 22 21 24 29 30 32 29 31 33 28 27 28 29 28 28 29 28 27 28 30 32 33 35 34 33 35 33 33 34 33 33 36 39 40 39 37
14 14 15 12 12 15 21 16 15 22 29 28 31 23 22 28 26 26 27 28 29 24 26 24 24 24 26 29 32 36 37 37 38 39 39 35 35 36 37 34 30 32 34
17 20 16 14 13 18 13 9 9 9 11 16 23 22 26 26 24 25 26 26 25 25 26 23 21 18 20 24 27 31 38 33 31 33 37 37 39 38 37 32 32 34 37
12 17 21 19 18 17 13 15 16 18 19 19 21 21 23 23 25 26 27 27 27 29 30 29 27 24 25 23 24 27 30 32 34 36 40 41 40 41 40 40 41 39 38
5 7 14 19 22 22 21 21 19 22 24 25 25 23 21 21 25 25 26 29 30 31 31 26 26 28 29 31 30 29 29 32 35 37 40 43 41 43 45 47 45 42 40
5 6 6 7 14 24 27 28 28 26 28 28 27 26 25 24 26 26 29 32 34 34 33 31 29 26 27 27 27 30 32 34 37 41 42 42 43 46 46 45 46 45 45
4 6 8 9 8 8 13 19 27 35 32 33 32 31 28 28 28 28 30 34 34 33 32 31 32 33 33 34 34 38 40 40 40 38 38 39 43 46 48 49 49 52 48
8 8 9 10 12 12 12 12 11 13 24 32 33 33 34 32 30 30 31 35 35 35 33 34 35 35 38 40 40 42 43 42 40 40 42 46 50 51 53 53 50 51 48
7 9 12 13 14 15 15 16 14 14 15 17 21 23 25 29 31 33 34 36 36 37 40 34 37 36 41 43 40 42 44 45 44 46 48 53 54 53 55 54 52 52 53
14 13 11 13 17 19 20 21 22 22 22 20 22 24 25 28 29 31 35 36 36 38 42 41 39 41 45 46 47 45 47 48 48 47 47 47 46 46 45 45 45 52 52
21 19 18 18 19 20 23 24 24 24 25 26 27 27 29 31 31 35 37 38 39 41 43 45 46 45 46 48 51 51 50 49 48 47 48 50 51 50 49 52 48 48 56
26 25 25 24 23 23 23 24 26 26 27 28 30 30 31 31 31 33 35 36 38 40 42 45 48 46 49 49 48 47 49 51 50 52 51 53 52 55 50 45 48 53 59
31 32 31 30 30 28 26 27 28 29 29 31 34 34 36 37 38 39 41 40 43 44 45 47 50 46 50 50 49 49 48 52 55 57 57 54 51 49 51 51 52 54 62
35 36 34 33 35 34 32 33 34 34 35 36 34 33 35 40 42 45 47 49 51 49 48 50 48 48 49 49 47 48 50 51 53 51 51 54 54 58 53 55 60 57 58
39 39 39 38 34 36 36 36 39 42 42 40 38 39 38 37 40 41 45 48 47 48 50 49 49 46 47 46 46 46 49 51 53 55 57 59 60 54 58 58 58 59 69
43 43 42 42 43 40 39 41 42 46 47 45 43 41 43 43 43 42 43 43 46 48 49 48 47 47 48 48 50 51 52 53 56 60 64 61 65 62 63 65 66 65 69
48 47 47 45 43 43 47 47 47 50 50 47 46 45 46 49 50 49 50 47 45 47 49 50 52 52 52 53 54 57 58 58 62 64 62 66 65 64 66 69 71 71 67
50 52 52 53 53 55 51 52 51 52 52 54 51 52 53 55 54 58 58 56 54 50 52 52 49 50 52 55 59 62 59 62 62 70 71 67 73 77 75 70 69 68 69

GFSMA_500_spd_087.txt.gz
Wind_Speed
41 38 41 41 21 30 29 26 24 25 29 31 33 34 34 30 27 15 20 17 15 18 17 17 17 19 21 22 24 25 25 23 24 24 25 25 25 24 21 19 17 16 16
40 47 38 36 28 23 28 25 28 29 29 31 33 35 34 36 23 22 21 19 18 22 21 19 18 20 22 22 25 27 26 26 26 27 26 25 24 24 23 20 17 18 18
43 37 27 25 28 30 27 24 23 25 29 31 32 35 32 34 26 24 23 21 21 24 22 21 20 19 21 23 26 27 28 29 28 27 25 26 24 24 22 19 18 20 21
37 27 24 27 22 26 24 20 20 14 25 31 43 33 32 36 30 27 27 25 23 25 24 25 21 21 22 25 28 29 31 31 29 27 25 26 21 23 22 23 19 24 23
37 32 31 31 22 25 24 20 19 19 22 22 25 37 34 36 37 33 30 28 27 26 28 27 25 25 24 29 31 33 34 33 33 32 29 23 22 23 24 23 21 28 25
41 36 34 31 25 28 26 26 25 22 22 21 26 36 33 40 38 35 32 32 30 28 30 29 28 27 27 29 33 37 35 36 34 31 28 24 25 25 25 21 24 29 25
43 39 37 37 29 31 25 27 30 30 23 25 23 27 30 38 39 41 40 40 35 32 31 30 30 30 30 32 35 38 38 39 38 34 34 34 30 28 26 23 28 29 29
43 46 41 41 33 31 31 31 31 32 30 28 23 26 31 38 42 44 43 41 35 34 33 33 32 33 33 34 37 39 40 43 39 34 30 33 34 33 28 28 31 32 33
29 35 33 31 28 29 32 34 35 31 32 30 23 24 29 35 50 43 42 36 36 35 34 33 33 35 35 36 37 37 40 43 39 36 34 35 33 38 35 33 35 35 35
22 31 25 26 25 25 30 29 29 26 26 29 29 27 28 33 38 38 28 31 30 33 32 33 34 35 34 34 34 35 38 40 36 38 37 37 39 38 39 36 37 36 35
14 18 19 25 27 28 23 25 30 30 30 29 30 33 33 31 32 31 30 30 31 31 31 33 32 31 29 29 31 32 35 37 38 42 40 44 42 42 43 42 39 37 37
12 17 23 24 22 21 20 19 21 22 20 18 17 19 27 28 29 27 28 32 30 31 31 32 31 31 31 29 27 28 30 32 33 35 40 35 35 37 41 42 40 41 42
11 11 19 25 25 23 22 21 20 21 20 20 21 22 23 24 27 28 31 31 29 32 32 33 34 33 32 32 33 33 34 31 30 32 34 35 38 40 41 40 44 46 46
10 8 6 9 16 20 24 24 24 23 21 22 24 25 27 28 25 24 25 27 30 31 34 35 36 35 36 35 36 37 37 37 37 37 38 38 39 39 40 45 46 45 48
8 8 9 9 11 14 19 24 26 26 26 27 27 30 31 28 31 30 29 30 33 35 37 37 38 37 38 40 38 37 35 32 34 37 38 40 43 44 45 45 45 49 53
11 10 9 9 11 13 12 12 15 19 19 24 35 39 36 35 35 34 33 34 34 36 37 37 37 38 40 42 42 40 40 42 42 43 44 45 46 46 47 50 51 51 49
14 12 13 14 14 15 15 16 17 17 18 17 16 22 31 34 37 38 38 37 37 38 39 35 38 39 41 42 42 44 44 45 48 45 43 42 48 52 49 51 50 47 49
17 17 17 16 18 19 20 20 21 22 23 23 23 20 24 27 26 29 32 33 34 35 38 38 37 39 42 45 47 49 49 51 51 49 51 48 50 55 51 50 49 50 51
22 21 21 22 22 22 22 23 25 27 28 30 30 29 30 30 28 31 33 35 37 39 41 42 40 41 43 46 48 49 49 52 52 51 56 62 60 57 55 54 54 56 58
29 28 27 28 28 28 26 26 27 28 31 32 33 32 34 34 32 35 38 37 39 41 41 43 43 40 41 42 44 44 48 49 49 49 50 53 56 59 60 60 60 59 57
36 34 34 32 32 33 31 31 32 33 33 33 34 34 34 35 35 37 41 38 42 45 46 47 51 52 50 51 48 44 49 48 49 49 49 48 49 54 57 59 57 57 57
38 39 37 37 38 37 37 36 37 38 40 40 38 38 37 39 38 39 40 41 45 47 49 51 52 52 50 51 51 48 51 50 50 52 50 50 52 54 54 54 60 62 64
41 42 41 42 41 40 40 41 41 43 44 45 45 44 44 43 43 44 44 45 46 46 44 41 43 46 48 50 52 51 50 52 52 51 51 51 57 56 59 59 63 68 69
48 47 46 44 45 43 43 45 47 47 49 49 49 49 50 49 47 47 48 49 50 51 51 51 51 49 49 51 53 54 54 54 54 55 55 58 59 62 63 64 68 72 68
49 51 51 51 51 50 52 53 54 54 54 55 53 54 54 53 51 51 52 54 53 55 56 55 56 58 57 54 52 52 56 56 57 55 58 66 65 63 69 69 70 71 71
45 50 52 53 55 56 57 57 58 59 60 57 57 55 56 56 54 57 60 60 61 60 59 63 62 62 60 61 60 57 65 67 66 67 68 74 77 77 79 81 77 75 73

GFSMA_500_spd_090.txt.gz
Wind_Speed
26 33 34 40 42 40 29 25 28 30 31 25 23 25 25 27 30 30 30 18 17 17 16 18 19 17 19 19 19 22 26 26 26 25 26 26 27 28 28 27 27 24 21
26 35 41 44 42 42 33 33 26 30 30 27 27 26 28 31 31 26 27 19 20 19 20 21 19 20 21 21 21 23 26 28 28 29 27 29 28 29 31 30 28 26 23
26 33 44 41 42 35 20 27 28 28 30 30 27 26 29 32 31 30 32 23 23 23 23 24 23 23 23 23 23 24 26 30 30 31 30 29 29 29 30 30 28 25 22
29 41 43 43 40 36 22 29 27 29 28 31 29 33 37 36 36 30 33 27 27 27 25 27 26 23 23 25 25 25 27 31 33 32 30 30 29 30 30 28 26 25 23
39 41 48 36 37 32 32 29 26 27 29 27 28 35 40 37 39 35 37 33 32 30 27 26 29 27 27 28 27 28 28 31 35 33 31 31 33 32 29 27 25 26 25
39 44 35 27 29 31 30 30 28 29 23 23 23 31 32 30 37 34 40 35 32 33 30 29 31 33 31 31 30 30 30 32 36 35 34 35 34 31 28 27 26 28 26
34 35 28 30 27 22 27 29 26 25 26 23 22 27 27 29 34 34 41 38 37 37 34 33 33 34 34 33 31 32 32 34 36 37 37 38 35 33 31 32 29 27 25
33 36 34 32 31 27 24 26 25 25 29 31 30 28 28 27 30 38 40 44 42 41 45 41 37 36 36 36 36 36 36 36 38 40 39 39 39 38 36 39 36 30 30
30 35 35 35 36 32 29 25 30 30 31 32 31 30 29 26 29 34 36 43 41 43 44 39 39 38 39 39 38 38 38 38 39 40 43 44 43 41 33 34 40 41 36
24 35 38 35 35 30 34 33 33 34 34 34 34 32 33 29 29 30 33 33 35 43 38 39 39 39 39 38 39 39 39 39 40 42 42 46 42 37 39 43 41 43 41
11 29 31 33 29 30 32 30 28 33 36 32 29 30 31 31 31 30 30 30 29 28 35 33 35 37 37 38 38 36 36 37 38 40 41 40 39 41 42 45 44 42 42
13 14 21 24 24 26 30 32 31 30 32 33 32 31 31 28 26 33 34 34 33 32 33 33 33 37 36 35 34 33 34 36 35 32 33 35 37 41 43 40 40 40 41
11 14 19 22 23 25 29 29 26 24 26 29 29 25 22 23 25 27 30 31 31 31 33 31 32 35 33 34 35 35 36 37 32 34 34 32 32 34 36 38 38 39 41
13 13 13 17 27 30 32 29 26 23 20 23 25 24 24 24 24 24 26 28 29 31 31 31 31 35 35 36 36 38 37 38 39 38 38 39 38 37 38 39 39 40 42
12 12 13 12 11 14 19 23 25 27 27 27 25 26 26 28 26 27 28 26 27 28 30 31 32 34 37 38 39 39 40 40 41 40 38 36 36 37 38 40 43 46 48
12 11 11 11 11 13 14 15 15 19 23 26 26 29 32 33 33 30 31 36 35 33 34 34 35 34 36 38 38 39 41 43 43 44 43 42 43 43 46 47 45 48 49
13 12 14 15 15 15 14 15 16 16 16 17 18 20 21 22 31 36 36 39 41 39 42 37 37 36 38 39 41 44 45 45 44 45 47 47 47 48 49 49 48 51 50
17 16 14 14 16 18 19 20 20 20 20 21 23 23 24 23 20 25 30 32 32 33 37 36 36 36 38 38 41 42 43 45 45 46 47 49 50 52 53 53 55 56 56
23 22 21 21 21 20 19 19 21 24 25 27 28 29 31 31 29 31 31 31 33 35 36 39 37 38 39 38 40 42 41 45 47 48 51 51 53 54 55 53 56 58 57
29 30 30 29 28 27 26 26 26 26 27 28 31 33 34 34 33 35 37 37 39 41 42 45 44 41 43 38 41 40 43 45 48 50 52 54 55 54 54 55 54 54 57
32 32 34 34 34 33 32 32 33 34 34 34 34 33 34 34 35 37 40 38 42 44 46 48 51 49 48 47 48 47 51 50 54 55 57 55 55 56 56 56 53 52 52
38 37 35 37 37 37 37 37 38 40 41 42 41 40 40 41 39 39 41 41 43 45 46 48 47 48 44 42 43 44 46 50 50 49 53 55 56 56 56 56 54 54 49
26 35 39 39 40 39 41 41 43 44 45 46 47 47 47 46 45 46 46 47 48 50 52 51 52 51 51 49 49 48 46 44 47 52 53 52 53 54 56 58 58 58 62
38 39 39 43 46 48 48 47 46 47 48 49 49 50 51 52 52 52 52 54 53 54 55 57 58 56 53 51 53 55 54 52 51 54 55 56 56 57 58 57 58 62 67
37 39 43 42 44 52 53 53 52 52 54 55 56 57 57 59 60 61 58 59 59 58 57 59 60 60 59 60 61 60 58 60 62 60 58 58 57 61 60 64 68 67 69
42 43 45 48 49 49 50 55 58 58 60 60 61 63 65 66 59 62 64 66 68 70 67 63 64 63 61 65 67 66 65 71 67 65 65 67 63 70 74 75 78 76 80

GFSMA_500_spd_093.txt.gz
Wind_Speed
30 29 29 28 28 34 30 35 29 29 30 26 24 17 34 36 26 22 25 28 24 20 18 19 19 18 21 20 19 22 22 21 24 25 24 26 27 27 26 27 27 28 27
30 27 26 33 32 41 32 41 27 28 28 28 27 20 17 27 26 26 28 26 27 24 21 22 21 19 22 22 21 23 23 24 24 25 26 26 27 28 28 27 28 30 30
24 24 27 35 39 41 36 41 29 26 28 30 34 25 25 29 30 29 30 28 27 28 24 24 25 24 24 23 24 25 24 24 22 27 27 28 27 29 29 28 29 30 31
21 27 26 34 39 44 39 38 30 31 28 32 28 28 29 29 28 30 29 27 29 28 27 27 28 27 27 25 25 26 25 25 26 27 29 29 28 29 30 31 29 30 30
25 26 30 33 43 45 38 34 32 29 28 29 29 28 28 28 29 31 32 32 30 32 32 30 30 30 28 27 27 27 28 28 29 31 31 31 30 30 29 29 30 31 29
16 25 32 35 45 42 36 27 24 32 32 32 30 28 28 31 32 36 35 35 34 31 35 33 31 31 30 30 31 32 31 33 33 33 33 31 31 31 32 33 33 31 28
19 22 35 43 44 40 38 32 31 29 29 29 26 25 25 26 28 31 35 39 38 34 44 36 36 36 34 33 35 35 35 36 36 35 35 34 33 34 34 36 35 30 30
22 26 38 42 41 35 33 30 33 29 30 29 26 26 21 20 26 28 31 36 39 39 47 41 40 41 37 35 37 36 37 38 39 39 38 37 37 37 37 37 39 37 36
20 26 32 40 33 33 34 30 31 35 29 27 30 31 30 28 32 30 31 36 42 42 45 45 47 48 41 37 41 40 40 40 41 41 38 38 38 39 41 40 44 42 34
8 29 31 30 31 33 31 30 30 31 34 30 29 31 35 35 36 34 32 32 39 44 45 42 42 44 44 39 41 42 42 40 41 39 38 37 38 39 39 41 46 45 40
10 15 23 34 28 28 27 34 28 32 30 34 34 33 36 36 35 32 31 29 30 33 34 34 30 32 37 42 44 41 41 40 39 38 37 36 37 38 39 40 42 39 36
11 7 19 24 31 28 26 27 36 31 28 29 32 33 32 31 32 33 31 28 29 32 32 34 32 35 38 40 36 35 36 36 35 34 34 33 33 32 33 34 36 37 39
10 12 11 13 17 23 22 24 26 26 26 27 28 30 31 33 34 34 33 32 33 34 34 36 36 39 37 33 31 34 35 35 34 34 33 33 34 36 36 34 32 32 32
11 11 12 12 16 20 22 26 25 24 23 21 21 21 22 23 23 23 22 24 25 25 27 28 30 31 30 30 32 34 35 35 36 36 36 36 38 37 35 37 39 39 37
13 13 13 14 15 18 23 27 28 28 28 28 25 24 24 24 25 27 27 29 28 28 25 24 26 28 30 32 32 35 37 36 38 39 40 40 40 42 39 38 37 38 39
15 15 16 15 15 15 15 17 21 23 25 28 31 28 26 26 28 31 34 33 33 29 27 30 34 33 34 33 32 33 36 39 39 40 41 43 44 44 43 42 44 46 46
14 15 16 16 17 15 14 14 16 17 17 18 18 20 23 24 22 22 25 28 37 34 34 30 39 38 38 38 36 37 38 38 38 40 42 44 44 44 44 45 48 48 48
13 13 14 14 16 17 17 17 18 20 20 21 21 20 22 24 24 26 25 24 25 30 35 32 30 33 35 37 37 38 37 38 41 41 40 42 43 45 47 48 51 52 52
18 18 18 18 17 16 16 17 19 20 21 23 24 24 27 28 27 28 29 29 30 33 36 37 30 33 34 34 37 38 38 41 42 42 43 44 46 48 50 52 53 54 53
25 24 24 23 23 22 22 23 23 24 24 25 26 26 27 28 29 31 34 34 36 39 40 42 39 35 39 35 41 38 42 43 44 45 46 47 50 51 53 55 56 57 56
29 29 29 31 30 29 29 29 30 30 31 32 33 33 33 33 33 34 36 35 38 39 40 41 43 42 41 41 42 42 45 44 47 48 48 49 50 54 55 56 56 57 58
20 23 23 31 35 34 34 35 35 36 36 37 37 38 38 40 40 41 42 42 44 46 46 46 47 48 46 46 46 48 49 49 47 43 48 49 49 50 52 54 56 57 58
24 26 26 25 25 33 34 35 36 38 40 41 42 43 43 43 45 46 47 48 49 50 52 52 52 52 54 54 53 53 53 53 51 52 55 54 55 55 54 55 56 56 56
27 28 31 32 33 35 35 37 40 43 45 47 47 48 48 48 49 50 52 53 55 56 58 60 62 61 62 60 59 59 58 57 57 58 59 59 59 59 59 59 61 60 61
32 34 32 32 33 35 37 38 41 43 46 53 55 55 54 52 56 53 55 60 57 58 59 59 64 68 69 70 69 71 73 72 68 64 63 64 66 66 67 68 66 66 69
39 42 41 38 38 39 40 42 44 46 49 51 54 56 58 62 60 60 61 63 67 67 66 66 64 64 68 71 71 76 74 75 73 76 75 78 74 74 79 77 70 73 71

GFSMA_500_spd_099.txt.gz
Wind_Speed
23 23 25 23 26 23 24 27 31 28 23 34 27 33 35 34 33 32 32 31 30 27 26 26 24 24 24 23 23 21 19 20 20 21 21 19 20 22 22 21 22 23 23
25 25 26 27 27 26 25 29 29 30 27 33 28 31 36 33 34 34 32 33 34 31 26 26 25 24 27 25 23 23 22 20 20 20 21 21 22 23 24 24 23 23 24
27 26 27 28 26 28 28 30 27 30 29 35 31 33 30 39 36 34 35 32 34 31 32 24 24 22 27 27 25 23 23 23 23 22 22 22 23 23 24 25 26 25 25
26 27 26 27 25 24 28 31 31 31 32 38 34 32 34 26 26 33 35 34 28 30 29 24 24 26 27 30 28 27 26 25 25 25 25 24 23 24 24 24 27 28 29
26 27 27 23 28 27 28 31 31 32 37 41 32 35 32 30 27 25 27 30 29 27 26 25 25 25 26 28 32 33 30 30 29 28 26 27 26 27 27 28 29 30 33
28 29 28 26 31 28 28 28 33 33 34 45 29 33 31 31 30 25 22 24 26 27 28 27 26 27 29 29 33 35 35 34 33 32 31 31 31 31 31 31 32 32 32
27 28 28 28 37 31 29 26 30 30 37 48 32 28 26 31 30 32 26 24 24 27 26 27 31 32 34 37 37 37 38 36 35 33 34 35 35 35 34 34 36 36 34
27 26 29 31 33 35 36 32 31 31 37 43 39 28 27 26 30 29 25 23 23 25 28 30 33 36 39 40 40 37 38 39 40 40 38 39 39 37 35 36 37 38 35
25 24 28 26 29 35 36 35 34 32 37 43 34 32 28 23 25 25 24 24 23 23 26 29 31 34 37 41 44 43 43 42 45 46 45 43 41 40 40 39 38 36 34
22 23 26 21 22 31 36 36 36 33 37 40 30 26 26 28 26 27 25 26 26 28 32 33 34 34 35 37 40 44 46 45 42 42 44 47 47 44 41 39 36 33 30
18 19 20 14 21 29 36 38 36 36 37 33 28 26 27 27 29 31 30 30 30 32 35 37 37 35 36 38 38 42 45 41 43 44 44 44 47 44 38 36 33 30 27
17 16 17 14 21 26 32 30 31 34 36 31 25 30 26 25 29 31 31 31 34 35 37 34 33 34 34 34 32 31 36 41 42 42 42 39 37 36 32 30 28 26 26
16 14 14 9 15 22 32 33 35 37 32 28 25 25 29 30 29 27 29 31 32 33 32 30 28 28 29 26 24 26 29 29 30 29 29 28 29 29 27 27 29 29 30
16 13 11 10 24 14 27 31 34 31 31 28 28 29 27 28 28 28 27 26 25 24 19 19 20 21 23 22 22 23 22 19 20 22 24 25 29 30 29 28 29 31 33
16 13 13 10 11 10 17 26 23 29 30 24 30 25 21 21 21 22 22 22 22 21 21 21 23 25 28 27 22 21 23 22 24 26 29 28 29 29 30 30 31 34 35
17 14 15 13 11 10 12 10 14 12 16 22 23 25 22 23 25 24 24 22 24 24 24 26 23 26 32 32 26 27 26 29 30 28 29 31 31 31 31 31 31 33 34
21 15 15 15 15 14 15 15 21 23 23 24 25 23 22 22 21 22 23 22 23 24 21 22 23 24 24 26 29 32 31 28 27 26 28 31 31 33 34 35 37 38 40
23 19 18 18 17 16 16 16 17 19 18 17 18 17 18 17 16 17 17 18 20 24 23 23 27 26 26 24 24 27 29 31 32 30 31 33 34 36 38 40 42 43 44
26 23 21 20 19 18 18 18 18 18 18 18 18 18 20 20 19 20 21 21 24 27 28 27 26 31 31 30 31 32 33 36 37 37 38 38 39 42 44 45 47 50 52
30 30 27 25 24 23 21 18 19 18 18 19 19 18 20 18 19 21 22 23 25 27 29 29 27 27 28 25 31 31 34 36 36 37 40 41 42 44 47 50 51 52 53
35 34 32 30 30 28 24 24 24 24 23 23 23 23 24 26 26 28 29 29 31 32 32 31 32 31 30 32 34 36 36 37 38 39 41 44 45 47 49 50 52 55 56
36 37 37 37 34 31 31 31 31 30 30 30 31 32 32 33 33 33 33 32 33 33 34 37 38 40 36 36 37 38 40 45 46 46 50 53 51 53 56 61 59 60 62
40 42 42 43 41 39 37 36 36 35 36 38 37 36 35 34 35 35 35 36 37 40 42 42 43 43 45 47 47 46 53 55 63 56 50 54 58 62 59 62 62 65 64
41 45 47 48 44 35 38 36 33 31 31 31 33 37 38 38 38 39 41 42 44 45 45 47 43 48 54 51 53 58 61 57 61 68 66 64 63 66 62 66 69 69 73
46 44 51 52 44 42 41 40 37 34 33 34 34 35 38 40 39 39 40 42 45 47 49 50 53 56 57 57 57 59 61 63 61 66 65 63 68 68 69 69 69 76 74
53 49 44 39 44 43 42 37 40 38 36 35 37 38 39 41 42 44 47 47 48 51 53 54 56 58 59 60 61 61 62 62 63 64 65 66 68 70 69 72 75 77 78

GFSMA_500_spd_102.txt.gz
Wind_Speed
23 23 20 21 24 23 25 24 23 22 25 20 21 31 32 31 24 30 32 29 29 27 28 26 24 24 23 22 21 20 20 19 16 15 17 18 19 19 18 19 20 21 21
25 25 24 22 25 25 25 28 24 23 26 23 21 36 35 33 23 35 32 31 31 29 29 27 25 24 22 20 22 23 22 21 19 18 17 17 18 18 19 20 21 22 23
26 25 27 26 26 27 28 26 25 25 25 23 26 31 29 24 26 33 30 31 33 30 29 29 26 23 22 20 20 24 24 22 21 20 19 19 19 20 19 19 20 21 22
26 25 26 27 27 28 27 23 26 26 25 27 30 32 29 27 31 28 31 29 32 30 29 29 30 26 23 21 21 26 28 26 25 24 24 23 22 22 20 20 21 23 25
26 26 26 28 29 28 26 26 26 28 27 29 29 36 34 29 29 26 33 29 32 32 28 30 31 25 25 22 23 26 29 28 28 29 28 28 27 26 25 23 24 26 29
25 29 27 28 30 29 28 25 25 28 29 30 35 41 33 30 32 27 26 28 33 32 31 29 25 26 25 23 26 26 26 27 31 31 32 31 31 31 30 31 31 31 30
26 29 28 28 30 26 29 30 29 28 30 33 35 40 30 31 33 30 26 24 23 26 28 27 25 25 25 26 29 31 34 35 33 35 35 34 34 34 34 36 37 35 33
25 27 29 28 28 26 32 33 31 29 30 34 39 36 32 26 30 26 27 27 24 23 22 23 24 25 25 28 32 32 35 37 38 37 38 37 38 39 41 41 39 36 36
24 26 28 29 27 31 32 38 34 31 29 32 33 33 40 22 29 28 30 31 28 25 25 24 23 22 23 27 30 31 33 35 39 42 40 40 41 42 44 45 46 44 42
23 25 28 26 27 30 29 36 41 34 34 34 40 36 37 35 28 29 30 28 27 27 26 23 23 26 29 29 33 33 34 34 35 37 41 39 41 41 42 47 46 43 39
23 25 26 25 26 29 25 32 37 40 37 34 36 36 34 30 29 26 26 29 28 26 25 26 27 30 33 34 30 31 33 32 30 32 33 39 44 44 41 37 36 37 37
21 24 24 25 23 28 21 28 34 37 35 37 35 38 35 29 28 29 30 32 28 27 29 30 29 31 31 29 29 28 29 29 28 26 29 31 31 32 27 28 28 29 26
21 21 22 23 20 23 21 28 35 34 34 37 33 33 31 30 28 25 26 26 30 31 32 29 30 29 29 26 22 21 21 20 21 20 21 22 22 18 19 21 24 26 26
21 20 20 20 17 13 19 25 33 37 36 37 36 37 26 22 27 28 29 29 27 28 28 27 25 20 18 16 17 20 20 20 17 18 19 21 21 22 21 22 23 24 26
20 19 20 18 15 11 13 17 26 32 32 32 34 24 20 24 28 26 26 23 20 19 22 21 20 19 18 20 22 23 21 20 20 21 23 26 26 23 24 26 25 25 25
21 20 19 19 16 13 13 14 20 18 13 24 25 14 18 21 23 19 20 22 21 23 20 23 18 18 18 17 18 19 23 23 25 25 26 23 23 24 26 26 28 29 29
23 22 18 20 18 16 14 13 16 13 13 13 12 18 21 23 22 21 24 26 24 25 21 23 18 15 17 21 21 19 19 23 25 24 25 26 26 27 28 29 30 32 34
24 24 21 23 20 19 19 17 16 23 21 20 20 25 27 25 22 21 21 21 21 20 16 17 19 21 22 24 23 23 24 23 24 27 29 31 33 33 34 35 36 38 39
26 27 26 25 25 22 20 19 19 21 24 23 23 21 27 23 21 22 23 21 21 20 20 20 23 26 26 25 25 25 27 28 29 29 29 28 30 33 37 39 39 40 40
29 29 30 29 27 25 22 20 20 22 22 22 22 23 26 25 27 26 25 24 24 23 24 23 23 25 24 27 28 28 30 32 32 32 32 33 34 36 37 38 40 41 42
32 31 33 34 31 26 23 23 22 22 23 24 25 27 28 26 28 26 24 26 27 27 29 28 26 28 27 29 32 33 35 35 35 36 36 38 40 44 47 49 48 50 52
33 33 35 35 34 32 32 31 31 30 29 30 30 29 30 32 30 30 30 31 33 34 33 34 34 33 32 35 33 35 38 40 40 43 44 48 52 49 50 55 54 52 54
39 38 37 39 38 38 38 39 38 38 36 35 35 35 37 38 37 37 36 37 37 37 37 38 38 40 40 40 38 41 47 42 43 52 52 53 63 59 58 62 52 61 64
45 43 41 40 41 41 42 43 43 42 42 42 41 42 43 43 42 41 41 40 40 39 39 42 42 41 42 42 46 47 47 51 55 55 55 57 61 63 64 64 66 65 63
51 48 44 43 42 46 48 50 49 47 46 44 43 38 37 34 33 33 35 40 41 40 38 40 45 45 45 47 48 50 51 53 56 58 59 61 63 64 65 65 66 66 67
53 54 52 49 47 47 52 55 57 51 47 46 47 47 42 36 36 34 36 37 38 46 46 47 53 52 52 52 53 54 56 57 59 61 62 64 64 65 66 68 69 70 71

GFSMA_500_spd_105.txt.gz
Wind_Speed
21 22 22 20 19 20 20 21 20 19 20 22 24 24 22 26 34 28 28 29 29 29 27 25 24 22 23 20 18 18 17 17 16 16 15 13 12 14 13 13 15 17 19
23 23 22 22 23 23 22 22 22 22 22 20 24 26 20 33 34 32 27 31 31 30 28 26 26 23 22 21 19 18 19 19 18 17 18 16 15 14 15 14 16 17 17
24 24 24 23 25 24 23 22 23 21 18 19 25 26 29 33 34 25 28 30 31 31 29 27 26 24 22 22 21 21 21 20 21 18 18 18 18 17 17 17 18 18 18
26 26 25 26 26 23 24 22 22 22 21 23 27 27 27 36 31 23 28 31 33 32 29 29 29 26 24 21 22 22 21 21 25 24 20 21 20 21 21 22 21 21 21
26 27 27 29 29 26 25 26 21 24 24 21 26 29 31 32 28 25 29 32 33 33 31 30 28 27 26 25 26 25 24 24 25 25 25 24 25 25 24 24 26 27 28
28 27 28 28 30 29 27 28 25 24 22 23 27 31 33 35 31 24 31 32 32 31 31 32 29 26 26 26 25 25 26 25 24 23 26 28 30 30 29 28 29 29 32
28 28 28 29 28 28 29 26 24 26 27 24 30 33 35 39 33 25 28 30 30 31 32 30 29 28 27 24 25 25 27 29 30 31 32 34 34 34 33 32 34 35 36
29 29 27 29 27 28 28 26 25 30 33 28 30 34 37 42 36 27 27 31 26 26 28 29 26 27 28 24 26 26 28 28 28 31 35 38 39 36 36 36 37 39 41
29 29 29 28 27 28 29 28 28 34 32 31 31 35 36 35 34 30 27 32 31 27 25 23 25 25 26 26 25 24 26 29 31 33 34 35 37 40 39 36 34 38 38
30 28 29 29 28 27 30 28 30 29 35 39 35 33 38 40 37 35 35 35 33 29 31 29 27 27 26 26 26 27 29 32 33 32 33 34 35 35 33 35 33 36 37
29 29 29 28 27 27 31 29 32 27 36 38 35 29 32 33 38 33 33 31 31 31 31 31 29 28 27 28 28 31 33 31 32 31 30 29 27 28 29 28 27 29 27
29 29 29 28 26 26 29 27 29 26 37 40 35 32 34 33 35 37 28 28 29 31 31 30 32 30 29 28 30 33 31 29 27 23 22 22 22 22 23 22 21 19 20
29 29 28 28 26 25 27 25 24 27 37 40 37 31 33 36 36 34 30 32 29 29 28 30 31 30 31 30 29 29 25 21 18 19 19 17 15 15 16 17 19 21 22
27 29 28 27 24 23 23 20 20 26 30 37 37 37 36 40 39 34 30 27 26 28 29 32 35 31 29 29 23 20 20 20 21 19 16 16 17 18 21 23 26 25 26
28 29 28 25 23 21 22 18 8 21 34 34 36 35 40 40 38 32 30 28 30 30 29 30 30 30 26 24 25 24 23 25 23 21 21 20 21 24 25 26 27 30 31
27 28 28 26 22 21 21 19 15 10 27 34 35 38 38 32 32 24 29 32 32 31 26 26 28 26 26 27 28 25 21 18 21 24 24 24 27 26 24 24 25 26 27
27 28 28 27 23 21 20 20 16 17 22 27 28 29 33 23 30 31 29 29 25 26 27 27 28 27 29 29 26 23 22 20 18 22 24 25 25 26 28 29 30 31 32
27 27 29 28 26 23 20 23 18 15 22 20 20 26 24 22 24 26 27 27 28 29 28 30 31 28 28 28 26 23 22 21 23 25 27 28 29 31 32 32 31 31 31
29 27 30 30 28 26 22 23 20 20 21 22 26 23 24 23 28 31 29 30 29 29 27 27 28 25 27 29 27 25 27 27 26 27 27 28 31 32 34 34 34 35 35
31 29 29 32 30 27 25 21 25 24 22 24 27 26 28 31 26 29 30 29 27 26 26 25 27 29 28 29 28 26 29 30 28 28 31 32 33 34 36 36 37 38 42
31 29 28 30 30 29 27 24 25 26 27 26 26 28 29 29 31 34 30 29 30 30 31 30 28 30 31 32 32 33 31 32 32 32 32 34 35 39 40 42 44 47 50
31 30 30 31 32 31 30 30 30 29 29 28 30 31 32 34 31 32 30 32 32 32 33 34 34 35 37 36 36 37 38 37 38 39 39 43 44 43 44 48 50 50 55
38 36 36 35 35 33 33 34 35 35 35 34 33 33 33 33 33 34 35 36 38 39 39 39 39 40 39 39 41 39 41 41 43 45 49 48 47 49 52 57 56 55 58
45 43 42 39 38 38 37 38 38 39 40 40 41 40 40 39 39 41 42 43 44 45 45 45 45 43 41 40 41 42 42 43 48 51 51 52 54 56 58 59 59 59 60
50 46 47 44 42 43 43 42 43 43 45 46 46 45 45 44 45 47 47 48 48 46 46 45 43 43 41 39 40 40 46 51 51 52 53 53 54 55 58 59 61 62 64
53 49 50 51 49 46 49 50 49 48 49 51 53 53 50 48 47 48 47 42 41 42 40 41 39 45 48 52 50 51 53 58 56 57 56 57 58 60 62 63 65 67 68

GFSMA_500_spd_108.txt.gz
Wind_Speed
22 23 23 23 21 19 20 21 20 19 20 20 19 22 26 23 29 31 35 29 29 29 29 28 25 23 22 22 20 18 17 14 14 14 14 14 15 14 13 13 14 13 15
23 23 25 26 25 22 21 23 24 22 22 24 21 24 27 26 26 31 39 31 29 31 30 29 25 23 24 21 21 20 20 16 17 17 16 16 16 16 15 14 15 16 17
23 23 25 26 27 25 21 24 25 25 23 24 17 19 24 26 21 34 36 33 25 30 31 29 25 25 25 22 23 23 20 20 18 18 17 17 17 18 18 18 18 19 19
23 23 24 26 27 26 23 23 25 26 26 23 20 25 24 28 26 35 36 31 27 31 32 27 27 27 25 23 24 23 22 20 18 19 22 22 21 20 21 22 22 22 21
25 25 25 26 27 28 25 26 26 25 27 23 26 25 26 29 33 35 37 35 28 31 32 30 29 28 27 26 26 26 24 22 24 24 24 20 23 24 25 25 26 26 26
26 26 27 27 28 29 28 27 26 26 26 27 26 25 27 28 29 36 38 32 28 34 32 30 30 29 29 27 27 27 27 24 26 28 27 24 25 27 29 30 30 30 30
28 27 27 27 29 30 30 28 26 24 24 26 26 26 27 30 31 39 34 31 30 33 32 31 32 31 30 30 26 27 28 25 28 29 34 27 31 34 35 37 35 35 34
30 28 29 27 29 29 31 29 27 26 28 27 25 28 29 34 38 40 37 30 28 32 31 33 32 31 31 30 28 28 28 27 28 32 30 29 29 31 34 37 41 40 39
30 30 30 28 29 30 31 29 28 28 28 29 32 35 32 37 36 37 38 33 27 30 30 29 30 32 33 32 29 30 29 30 31 29 30 33 34 33 35 37 38 37 39
30 30 30 29 29 30 32 31 29 30 32 33 32 29 34 35 33 36 39 33 30 31 30 29 30 28 30 30 29 30 32 33 31 31 34 36 34 32 34 33 32 34 34
31 32 31 29 28 29 32 32 30 32 36 33 32 28 30 31 35 35 34 33 32 32 36 33 33 31 30 31 31 33 35 32 32 34 34 32 33 31 29 28 25 25 27
33 32 31 30 29 30 32 33 30 32 32 37 31 33 39 33 32 36 38 34 35 36 41 38 35 36 36 34 34 35 34 33 34 33 32 30 27 25 25 25 24 25 24
33 32 31 31 28 29 31 32 29 31 31 24 27 37 42 40 35 37 38 35 35 39 41 40 37 37 35 35 35 36 35 34 32 31 26 25 25 24 21 20 20 21 22
35 35 32 32 27 29 30 32 27 30 28 26 32 33 42 35 36 35 36 33 33 33 35 33 39 37 36 37 36 35 36 34 31 27 27 26 26 24 24 23 23 25 26
36 37 33 33 27 28 29 29 26 27 19 23 33 35 38 38 31 34 31 35 36 31 32 36 35 34 34 35 38 38 35 33 30 30 30 29 28 28 26 26 27 27 25
38 38 34 34 28 27 28 29 25 23 21 17 29 34 38 38 38 35 35 35 36 30 30 29 30 31 34 37 39 38 32 31 31 31 28 31 32 33 31 30 30 28 26
40 38 35 34 30 26 27 29 26 21 22 21 24 30 35 37 36 38 37 38 33 30 33 35 37 37 36 35 35 33 32 32 32 30 31 29 31 32 33 30 28 28 30
41 39 37 35 29 25 27 29 26 22 18 21 23 30 35 34 35 36 31 30 37 34 38 39 36 35 36 34 34 35 32 32 32 31 30 31 28 29 29 30 30 30 30
43 40 38 35 30 26 27 27 29 21 17 19 23 24 24 29 32 30 27 31 36 36 36 34 34 34 35 36 37 35 33 32 33 36 34 31 29 30 31 31 33 34 32
45 40 40 37 31 27 26 27 30 25 23 21 25 26 23 28 28 28 26 27 31 31 33 33 35 38 38 36 36 34 34 35 36 35 33 32 33 33 34 37 37 37 39
46 43 42 38 30 28 29 29 30 30 26 26 26 28 29 30 31 34 35 32 32 33 34 33 31 34 35 35 35 37 36 37 36 37 37 37 36 37 30 40 40 36 45
44 44 39 37 33 32 31 30 31 33 30 28 28 29 31 34 35 36 37 35 38 37 36 34 34 37 40 39 38 37 37 38 40 39 41 41 42 43 45 46 47 48 50
41 44 40 39 37 35 35 33 32 33 35 32 31 31 32 32 33 36 37 37 38 39 38 39 38 38 38 39 40 39 41 42 43 44 45 45 47 47 48 50 54 55 56
46 46 46 46 43 38 37 37 35 35 37 38 37 37 37 37 36 36 36 38 39 40 41 41 42 43 43 43 44 44 46 48 48 47 48 51 49 49 55 57 58 59 59
51 48 52 48 49 45 43 42 39 39 39 42 42 43 42 42 42 43 43 46 47 47 46 47 48 49 49 49 49 50 52 53 49 45 50 53 57 59 56 59 59 60 62
47 53 62 53 47 49 50 48 44 43 44 46 47 46 46 47 48 47 49 52 52 52 52 52 54 55 55 54 54 54 52 48 49 57 56 58 62 63 62 61 63 64 65

GFSMA_500_spd_111.txt.gz
Wind_Speed
18 20 19 18 19 20 19 19 21 21 22 22 24 22 19 24 27 29 28 26 29 27 26 25 26 27 24 23 23 22 19 17 16 15 17 13 14 14 15 15 16 16 17
17 20 20 20 20 21 20 19 21 24 24 24 24 25 23 24 29 30 30 28 31 27 32 29 26 28 25 24 23 24 22 20 19 16 16 15 15 15 16 16 17 18 19
18 19 20 21 21 21 23 22 21 24 25 27 26 25 19 19 27 32 30 30 36 34 31 31 28 29 26 25 24 24 24 22 21 19 17 16 16 18 18 19 18 19 21
20 20 22 22 22 22 24 25 23 25 26 26 29 27 23 19 23 29 26 29 36 38 37 32 30 28 25 26 24 26 23 23 23 21 18 17 19 22 23 22 23 23 24
21 21 23 24 24 23 24 26 26 27 27 27 29 30 26 25 23 29 29 28 33 38 35 30 31 28 26 26 26 25 24 24 25 24 23 22 23 23 23 25 27 28 28
22 23 24 25 26 24 25 26 27 28 26 26 27 25 25 29 24 27 33 30 34 39 36 29 31 28 28 27 28 28 28 27 29 27 26 24 26 28 27 27 29 31 32
23 25 25 26 28 27 26 27 27 29 27 26 26 27 29 28 28 27 30 35 38 40 38 28 34 30 31 30 31 30 30 31 29 29 27 27 29 32 26 29 32 35 36
26 26 28 27 29 28 27 28 27 28 27 27 28 28 29 29 26 25 30 32 41 45 39 33 35 32 31 30 32 32 32 31 29 28 28 30 31 31 30 30 32 34 34
31 29 30 29 30 29 28 28 27 29 29 27 27 28 28 31 31 31 31 33 38 36 34 35 36 35 32 31 33 33 35 33 32 31 31 31 30 31 34 36 35 34 36
33 29 30 32 32 30 29 30 28 28 30 28 30 30 34 34 34 30 31 34 39 38 30 33 38 36 33 35 36 38 40 36 33 33 32 30 31 35 38 37 36 36 33
34 31 31 35 34 32 31 30 30 29 31 30 29 33 32 34 33 31 35 37 37 32 34 37 41 36 35 35 37 36 34 36 34 32 33 31 34 38 37 37 36 33 31
36 33 33 36 35 34 33 31 30 28 31 31 30 34 37 38 34 26 30 33 32 34 35 39 40 37 36 32 33 35 34 35 34 34 33 34 37 37 37 32 29 28 26
36 33 35 38 37 35 35 31 31 28 31 32 31 32 39 30 31 27 31 35 37 33 31 33 41 39 39 35 38 39 37 37 36 34 35 37 38 37 31 29 29 25 23
39 36 36 38 36 36 35 32 31 27 29 30 30 35 34 27 29 32 36 35 36 36 37 35 36 38 41 43 44 43 40 38 37 36 37 38 38 32 33 33 30 27 25
39 37 37 38 37 37 36 34 32 28 28 30 29 30 27 31 35 37 38 38 36 38 37 33 35 35 43 45 46 43 38 39 38 38 39 38 34 33 34 35 31 30 29
42 39 39 40 38 38 37 35 32 30 27 30 28 27 29 31 31 34 37 35 36 34 37 31 34 37 39 40 41 40 38 38 39 39 38 35 34 35 36 35 34 34 31
46 44 41 44 40 40 39 36 32 32 27 28 29 29 28 26 36 33 38 36 34 32 30 33 33 31 31 33 37 35 36 37 39 40 37 37 36 36 35 33 32 35 35
48 46 48 42 41 42 40 37 34 33 28 27 28 28 23 23 28 37 37 37 38 31 35 36 31 33 33 34 38 39 38 38 38 38 40 38 37 35 34 31 30 34 33
47 46 47 43 44 42 41 38 35 33 30 27 29 26 24 20 30 32 35 39 40 37 40 37 33 35 39 40 40 39 37 35 36 40 41 40 37 37 36 36 36 35 34
46 45 44 43 43 41 42 39 37 34 32 29 27 27 27 24 23 28 33 36 33 34 31 34 35 32 32 33 34 35 37 38 42 44 41 40 39 39 40 38 35 34 35
41 45 45 42 44 41 41 39 40 36 33 32 27 28 29 25 25 26 27 35 37 34 30 28 29 29 30 34 36 39 41 42 45 43 41 41 42 42 41 39 38 37 35
39 46 48 44 45 42 41 41 42 39 36 33 30 29 29 30 29 28 29 28 31 30 32 31 32 35 35 39 39 39 41 42 45 43 44 45 44 42 42 42 42 44 47
43 44 46 39 46 45 45 43 44 43 39 35 32 32 33 32 32 33 32 36 37 35 34 35 38 43 37 38 43 42 42 43 44 46 46 45 45 45 46 48 49 49 51
39 54 60 44 48 46 50 45 46 46 43 39 36 34 35 36 35 34 35 36 38 40 44 41 41 43 42 42 47 47 45 44 45 47 48 50 48 50 51 52 53 55 56
40 38 37 42 43 42 48 47 48 48 46 42 40 39 38 37 38 39 41 41 41 42 44 45 45 45 45 45 46 47 49 49 50 53 54 54 52 53 55 54 58 57 57
43 51 52 49 60 48 53 53 55 54 52 47 44 43 42 40 39 39 41 46 47 48 49 49 51 51 50 50 51 51 51 54 59 61 62 62 63 60 59 56 64 69 70

GFSMA_500_spd_114.txt.gz
Wind_Speed
18 15 15 15 15 16 16 15 17 17 17 14 18 21 20 19 20 21 27 23 27 27 25 26 26 25 25 24 23 23 23 22 19 16 14 14 13 12 13 14 15 17 18
19 17 15 15 15 15 15 15 17 18 19 17 17 20 21 20 21 24 27 27 27 25 27 27 28 29 27 26 24 24 21 23 21 19 17 16 14 14 14 16 17 17 18
21 19 16 15 15 17 17 17 18 19 19 21 21 20 23 23 22 23 27 35 30 30 28 29 31 32 29 27 26 25 24 25 23 22 20 19 16 17 17 18 19 20 21
22 21 20 17 16 18 19 18 19 20 20 23 23 22 22 24 22 21 23 29 34 31 31 33 36 32 30 27 27 26 25 26 24 22 22 20 17 17 18 19 23 24 24
25 23 22 20 19 19 20 20 19 21 21 23 24 24 24 23 25 26 25 27 27 28 37 38 37 31 32 29 28 27 27 25 25 23 22 24 21 22 22 21 21 23 26
29 24 25 23 21 20 20 22 22 22 22 23 25 25 23 20 23 25 25 26 29 27 31 36 38 34 33 32 29 27 28 27 26 28 28 29 25 25 25 23 24 26 29
30 25 26 26 24 23 21 23 23 24 23 24 25 25 24 23 23 26 26 26 27 32 33 35 34 35 34 33 31 29 29 29 30 29 28 30 27 26 27 27 27 24 27
31 28 29 28 27 26 24 24 24 25 24 25 25 26 25 24 20 24 25 26 26 31 32 36 37 39 31 33 35 33 31 32 31 30 31 31 28 27 28 27 28 28 30
34 33 31 30 30 29 27 27 27 25 25 25 27 27 26 24 22 24 25 28 27 29 33 39 40 37 33 36 37 34 32 31 31 34 33 32 30 29 30 29 29 32 34
37 32 32 33 31 31 31 30 29 27 27 25 27 28 30 27 24 27 28 30 36 30 34 37 41 39 41 38 37 36 34 33 34 35 37 37 33 32 31 30 31 35 35
36 35 35 34 32 34 34 31 31 30 28 26 27 29 30 26 26 26 27 29 31 25 32 34 37 32 35 39 41 38 36 36 36 39 40 37 34 34 31 31 34 36 35
40 39 35 35 34 33 36 34 32 32 30 28 26 29 30 28 29 30 32 31 32 32 34 32 33 29 31 38 41 42 38 38 41 40 36 33 33 32 31 34 35 36 30
39 35 35 37 35 34 36 34 33 34 31 30 27 28 29 28 30 31 26 27 29 32 32 31 26 32 32 41 44 43 37 37 37 35 33 31 34 33 35 36 35 33 29
39 42 41 38 38 35 37 34 35 34 33 31 27 28 28 29 28 29 27 27 28 30 31 34 32 32 29 30 37 45 43 41 37 37 36 35 36 36 37 37 36 31 32
41 43 45 42 39 38 38 37 36 34 35 32 30 28 28 27 29 27 30 30 32 35 32 33 31 33 34 36 33 36 46 44 43 38 37 37 39 39 38 37 35 33 33
46 47 47 43 39 38 38 39 39 36 36 33 33 29 29 27 30 31 32 37 37 37 35 34 35 36 37 36 33 35 41 44 40 41 37 40 42 41 39 37 33 33 33
49 45 46 46 45 43 40 39 41 39 37 35 35 32 30 26 30 32 30 31 36 40 40 37 37 35 38 36 34 34 35 39 41 40 42 40 39 39 36 33 32 34 34
51 49 52 51 47 46 50 47 43 41 38 37 36 35 32 28 25 31 31 31 34 34 36 32 32 33 34 36 36 33 31 35 37 38 37 39 40 36 34 34 34 36 36
53 52 51 48 46 47 48 54 43 42 38 38 37 36 36 29 25 32 28 29 29 34 38 43 36 34 36 34 32 30 31 32 33 37 39 39 37 35 36 37 36 37 37
55 49 50 54 52 53 48 46 47 43 40 40 39 36 38 30 26 33 30 25 28 33 38 43 40 34 39 35 33 36 37 33 35 36 34 35 37 38 40 41 38 39 39
49 52 54 53 49 50 41 42 43 43 43 41 41 37 39 33 30 31 30 27 26 29 36 38 30 33 31 33 29 25 30 30 32 35 36 38 40 41 41 42 41 41 41
37 40 46 51 49 39 39 41 40 43 41 40 42 40 39 36 33 31 30 29 28 27 27 32 34 33 28 26 25 32 33 34 34 37 42 43 42 43 45 44 43 44 42
38 37 38 38 39 41 44 48 55 45 43 43 45 43 41 39 36 33 33 32 29 26 30 27 29 30 28 27 32 36 39 39 38 37 41 42 42 43 45 46 46 47 46
38 34 36 38 42 44 47 51 48 45 47 48 48 46 44 41 41 37 38 35 33 32 33 31 33 37 40 40 35 41 43 42 42 45 44 46 45 47 47 48 49 51 53
39 42 39 40 46 46 46 48 50 47 49 49 52 52 48 45 45 41 38 38 37 40 39 35 39 37 42 37 38 44 47 46 45 48 48 47 47 49 52 52 55 57 59
38 38 37 37 41 45 43 37 42 40 49 46 49 53 51 47 46 46 44 41 41 42 41 44 42 45 48 48 48 48 52 48 50 51 50 52 54 55 56 58 58 62 63

GFSMA_500_spd_117.txt.gz
Wind_Speed
17 17 16 18 16 14 12 9 8 8 8 10 12 14 16 17 17 17 18 22 23 20 27 25 28 29 27 25 25 26 25 23 20 18 17 15 13 14 14 14 15 16 17
17 18 18 18 17 15 13 11 10 10 8 9 12 14 16 18 19 17 20 20 24 23 24 28 27 30 30 29 29 27 26 26 25 23 20 18 16 14 16 15 16 17 18
18 18 20 19 18 17 15 14 12 10 10 10 12 15 17 17 20 20 20 21 23 29 26 23 31 30 32 33 31 29 28 28 25 23 22 20 18 15 17 17 17 17 18
21 20 21 20 20 20 17 15 14 12 12 12 13 14 17 17 18 22 18 21 20 26 32 28 27 25 34 35 33 30 30 29 28 24 24 22 19 18 17 16 17 17 19
24 22 23 23 23 22 21 18 16 15 14 14 13 15 17 19 18 18 22 23 27 23 25 33 35 30 33 38 37 31 31 31 29 26 25 23 20 21 21 20 18 18 18
26 26 26 25 24 24 24 21 19 17 17 16 15 15 16 18 20 20 19 21 25 28 25 27 29 31 35 38 39 32 32 33 31 29 26 27 24 25 26 24 21 19 19
27 29 29 26 27 27 25 23 22 21 19 19 17 16 16 18 20 21 23 22 24 26 24 27 29 27 33 33 35 37 34 35 33 30 28 29 26 25 26 27 24 21 21
29 32 30 27 30 29 27 25 24 25 23 22 20 18 16 18 21 22 22 22 24 24 24 24 33 30 33 31 34 41 33 36 35 32 30 29 29 28 28 26 26 24 24
33 32 32 33 32 29 29 28 27 27 26 26 24 21 19 19 23 23 23 22 24 24 25 24 27 33 29 31 32 39 35 38 36 35 32 31 32 31 29 28 27 26 27
36 36 36 34 32 32 32 31 31 30 28 28 27 26 22 20 22 22 22 25 28 29 28 29 30 32 34 34 35 39 38 39 36 35 34 33 32 33 32 31 30 28 29
39 37 38 34 35 36 34 32 34 33 30 29 29 27 26 23 22 23 24 27 28 29 30 29 27 31 33 37 37 35 39 39 37 37 36 35 35 35 34 33 30 30 30
41 38 39 36 41 37 35 33 34 35 32 32 30 28 28 26 25 27 25 26 32 26 31 32 30 28 31 35 36 31 43 39 40 38 39 38 38 38 36 33 30 30 31
42 38 42 43 44 40 38 34 34 37 33 33 32 30 29 28 27 28 28 26 25 22 24 30 32 30 30 31 32 26 33 43 44 41 42 42 40 39 34 32 32 32 30
42 42 40 49 49 43 39 36 38 37 34 34 33 31 31 29 28 28 27 27 21 24 26 26 30 32 30 27 28 32 29 33 46 46 45 42 37 35 33 34 35 34 31
45 45 44 40 42 44 43 42 38 36 36 35 35 34 32 31 29 28 29 27 25 27 28 31 28 28 33 33 36 33 30 31 32 40 45 44 40 38 36 37 37 35 32
46 50 45 43 45 44 43 42 39 37 37 37 37 37 34 33 32 28 29 29 29 29 34 34 32 34 35 36 33 36 37 34 36 36 41 47 43 40 37 37 38 36 33
47 53 51 47 46 46 47 43 40 40 41 41 40 39 38 35 35 31 30 31 30 28 31 37 38 38 37 36 38 35 38 40 39 37 39 39 46 38 37 38 41 35 34
53 49 50 51 50 51 48 44 46 43 45 50 49 45 40 39 37 34 31 33 30 28 30 33 37 38 40 43 41 38 42 39 38 38 38 35 39 37 38 41 37 36 35
46 47 53 53 54 55 52 49 48 47 47 51 52 55 42 42 38 36 33 34 34 26 32 34 37 36 38 38 38 38 37 31 34 36 33 33 33 34 36 38 38 34 34
46 47 51 55 58 58 56 55 52 51 48 51 49 52 46 44 40 37 34 35 34 27 31 30 26 33 38 40 40 35 40 36 34 35 33 34 35 35 36 36 34 34 36
49 52 53 54 58 60 59 54 51 51 51 50 51 49 50 47 43 39 36 35 35 31 32 33 32 33 38 45 40 35 33 33 36 36 33 31 31 31 32 33 35 38 38
48 48 48 48 48 51 52 55 57 56 55 48 52 50 50 49 45 41 39 35 36 35 33 34 31 32 32 35 36 34 34 30 26 26 29 31 32 35 36 37 39 41 40
42 43 44 43 42 44 47 48 51 52 49 57 47 43 50 48 47 42 41 38 38 37 36 34 35 30 30 29 32 31 29 25 27 30 32 35 35 36 37 36 38 41 42
43 43 42 43 43 43 44 43 44 48 48 54 48 47 56 52 48 45 44 41 40 40 40 34 34 35 30 33 29 28 27 34 35 32 34 36 39 39 41 40 40 42 43
39 42 44 45 44 44 46 43 44 43 48 48 41 55 58 50 48 48 48 44 43 41 44 40 37 37 36 34 33 33 37 41 38 39 42 41 42 46 46 47 47 45 45
27 31 35 40 42 46 43 42 43 48 45 37 37 48 50 49 48 50 51 50 49 45 45 45 41 42 41 42 45 43 44 40 45 45 42 45 45 48 47 49 49 50 51

GFSMA_500_spd_120.txt.gz
Wind_Speed
17 17 17 17 15 14 13 11 9 9 6 6 9 9 10 12 15 15 16 16 16 18 20 15 28 30 28 27 26 26 27 27 25 24 20 18 16 14 12 15 14 15 16
20 19 18 18 17 15 14 14 11 12 10 8 9 10 11 12 14 17 17 19 18 18 22 21 21 32 32 30 29 29 29 28 27 28 24 21 19 16 12 14 17 16 18
23 21 20 19 18 18 17 16 14 13 13 11 10 10 11 13 13 15 17 17 19 20 20 29 21 26 30 34 32 32 30 30 29 29 28 24 21 18 15 13 18 18 18
25 23 22 21 20 20 20 19 17 16 15 14 13 11 12 13 13 14 16 17 20 23 21 26 33 31 25 35 35 34 33 32 30 31 30 26 23 22 17 16 15 16 16
27 26 24 23 23 23 23 22 20 18 17 16 15 13 13 13 14 14 15 17 18 22 26 20 27 29 30 24 37 39 36 34 32 31 32 29 26 24 21 19 17 19 18
28 26 26 26 26 25 26 25 22 20 19 18 17 15 15 13 14 18 18 16 19 22 27 29 30 27 30 31 30 40 39 37 33 33 33 32 29 26 24 22 21 22 21
29 27 28 28 27 25 27 27 25 23 21 20 19 18 17 16 16 18 20 21 20 21 25 29 27 25 28 28 27 36 41 41 36 36 34 35 32 29 27 27 25 24 23
30 30 30 30 26 27 29 29 28 27 23 23 22 20 19 18 19 19 19 22 23 21 22 27 27 25 27 27 24 27 32 43 38 38 36 36 34 31 30 28 26 25 24
34 34 33 33 30 29 31 30 30 29 28 27 25 23 21 21 21 22 19 23 25 24 25 25 27 27 24 31 32 26 31 30 40 47 35 37 35 34 33 31 29 25 25
37 36 35 35 35 32 29 30 32 32 32 30 29 27 25 23 24 23 24 24 23 27 28 31 33 30 30 29 29 31 30 29 32 44 35 36 38 36 35 33 32 30 27
42 41 39 37 36 32 31 33 35 36 36 33 31 30 28 27 26 25 22 25 28 27 32 29 33 34 30 31 31 35 33 32 28 39 37 39 38 39 36 35 35 34 32
46 45 43 40 37 36 33 39 39 36 36 36 32 31 31 31 28 28 27 26 26 28 31 33 31 34 34 26 30 34 34 31 33 33 42 41 41 38 37 38 37 36 35
37 40 43 43 41 41 41 45 41 37 36 36 35 32 33 33 32 30 30 31 26 27 28 33 26 24 28 33 31 32 32 33 33 31 41 43 42 40 39 40 41 40 38
40 35 39 40 45 48 46 46 43 41 39 38 35 34 34 34 33 32 33 32 30 25 26 26 25 28 30 31 34 32 33 34 33 27 35 43 47 45 42 41 44 44 42
40 41 43 43 42 45 46 44 45 46 47 41 40 39 37 36 34 34 35 35 34 29 25 27 28 32 31 27 31 33 31 31 32 32 28 36 45 47 47 47 50 44 39
43 45 44 46 47 48 50 47 45 44 47 46 43 41 39 39 36 37 36 38 35 35 31 29 30 32 34 34 29 32 34 38 36 34 32 32 35 34 44 51 51 42 43
46 47 47 48 46 49 50 49 45 45 42 44 43 41 40 40 41 40 40 40 39 37 36 32 28 31 35 36 37 35 40 40 38 38 39 38 35 36 39 43 53 43 38
49 49 47 46 50 52 53 52 50 49 49 47 41 41 43 44 46 49 48 44 42 40 39 36 31 27 30 38 41 41 40 43 43 40 38 40 42 41 40 41 44 42 43
55 52 51 53 49 52 51 53 54 52 50 44 41 44 45 46 47 51 52 51 45 43 40 39 33 30 30 36 40 41 44 44 46 41 42 43 43 42 41 42 42 43 45
48 48 50 50 51 51 49 52 54 54 54 50 51 50 47 48 51 51 51 51 45 43 42 40 37 33 30 32 37 39 44 44 42 44 44 39 37 39 39 37 36 36 36
49 51 51 53 53 52 49 49 52 55 56 55 54 54 52 49 54 53 51 51 48 46 43 40 39 34 33 34 34 36 39 40 42 40 41 47 43 41 38 37 37 37 36
51 51 54 55 53 52 52 52 57 58 58 59 57 58 58 56 56 49 48 49 50 48 43 40 41 37 35 38 36 36 39 48 46 41 38 37 40 40 39 37 33 31 32
54 54 54 59 58 56 54 54 56 55 55 54 52 56 60 58 56 46 51 52 58 51 46 42 42 40 38 38 38 37 39 42 43 38 39 37 35 33 33 31 30 32 36
52 54 53 54 54 54 54 56 54 53 52 51 52 55 57 57 51 56 51 48 54 48 48 45 44 41 41 40 38 37 37 38 39 38 36 33 35 34 35 34 33 33 36
37 43 47 51 52 53 54 52 51 52 50 49 51 51 52 53 49 41 55 47 50 55 50 46 46 44 42 41 39 39 39 37 33 34 37 37 39 39 40 40 38 37 38
21 26 31 37 42 46 50 51 48 44 45 46 47 50 45 51 51 48 44 50 56 60 52 49 48 46 45 42 42 43 43 40 40 42 44 44 45 45 46 43 45 48 41

GFSMA_500_spd_123.txt.gz
Wind_Speed
24 21 19 19 17 16 16 14 13 13 13 13 10 9 10 11 12 13 13 12 12 18 19 20 17 22 24 29 30 28 27 28 28 28 24 22 19 16 15 13 13 15 16
24 24 22 21 19 17 18 17 16 14 15 14 14 12 11 11 13 14 14 16 14 16 19 19 18 21 29 35 30 31 29 29 30 30 27 24 20 20 17 15 13 15 15
26 26 26 24 22 20 19 19 17 16 17 16 17 16 14 13 13 13 15 15 18 16 18 19 22 21 27 28 34 32 30 30 32 31 29 28 24 23 21 17 14 15 17
29 28 28 26 24 22 22 21 19 18 19 17 18 19 18 16 15 13 14 16 17 19 17 20 23 24 26 20 24 32 33 32 33 33 31 30 27 26 25 21 18 15 14
32 30 30 29 26 25 24 23 21 18 20 20 18 19 19 20 17 16 16 14 17 19 21 21 22 24 22 21 25 25 36 36 36 34 33 32 30 30 27 24 21 18 18
34 32 30 30 29 29 28 26 24 20 21 22 21 19 19 21 20 19 18 16 17 19 20 22 23 25 29 27 25 26 29 32 39 38 36 35 33 31 29 27 25 22 21
35 34 31 31 31 31 31 29 27 24 23 21 23 22 20 22 21 22 21 20 19 19 21 23 25 26 26 24 26 28 32 30 35 42 42 37 36 34 33 30 29 26 23
37 36 34 34 32 31 31 30 29 27 25 24 24 24 23 23 23 22 24 23 23 22 23 24 24 25 28 26 27 28 31 31 31 44 45 44 37 35 36 34 32 31 28
39 39 38 36 33 33 31 32 31 29 27 27 26 26 25 26 24 23 25 26 25 25 24 25 27 27 30 29 28 26 32 30 29 35 46 46 39 36 37 36 34 33 31
39 40 41 39 38 36 35 33 32 30 29 30 30 28 28 27 27 27 25 28 28 27 25 26 29 32 31 29 32 32 30 33 33 27 27 38 42 43 38 38 37 34 33
45 43 46 43 41 38 38 36 31 32 33 34 32 31 30 30 29 30 27 26 30 30 28 27 29 33 34 36 35 32 32 33 35 32 29 26 33 45 41 40 39 35 36
49 45 47 42 45 45 41 39 36 37 38 37 35 33 32 33 32 32 31 29 30 31 32 31 31 32 32 33 31 31 31 30 37 36 32 32 27 36 43 40 39 38 37
51 46 47 47 46 49 46 45 42 42 43 40 36 36 36 35 35 34 34 31 32 32 30 35 34 33 32 29 27 28 30 33 32 33 35 31 32 33 46 42 41 40 40
50 51 49 46 44 51 46 47 46 46 46 45 40 41 40 38 37 36 36 36 34 32 33 32 35 36 31 29 31 31 32 36 35 34 33 34 33 33 41 45 46 44 41
56 52 49 45 36 38 43 45 46 44 48 49 47 47 43 41 43 38 37 37 38 34 31 32 36 37 35 34 34 36 34 34 37 34 35 34 35 31 33 41 47 48 46
48 52 43 41 40 41 40 42 45 45 54 42 49 44 44 48 46 43 40 39 40 38 36 34 34 37 39 35 36 37 35 33 34 34 34 35 34 34 30 33 39 43 50
37 38 38 38 41 42 43 42 45 47 49 51 52 46 50 45 47 45 43 40 40 40 42 36 37 39 39 38 37 39 40 42 37 37 37 39 38 37 34 32 36 39 41
34 39 41 40 40 42 43 42 44 47 50 49 51 49 41 43 46 47 45 41 42 43 47 42 43 43 42 42 39 38 39 44 44 41 40 43 41 40 39 40 41 41 42
39 43 40 42 45 46 46 46 45 46 48 51 53 50 45 47 43 48 42 43 44 46 47 46 42 44 43 42 42 38 36 41 42 45 43 43 43 44 43 41 41 44 44
44 43 45 47 49 51 53 53 49 50 50 49 48 51 52 51 50 46 47 47 47 49 51 48 47 42 43 41 43 40 39 38 43 44 43 43 45 48 48 46 45 46 48
44 47 48 53 54 55 55 57 55 55 54 51 49 52 53 50 48 53 55 52 52 52 54 49 50 44 45 43 42 42 41 39 38 39 41 43 44 42 46 47 46 43 41
45 47 49 52 52 53 53 55 57 60 60 58 53 54 56 54 51 53 54 58 58 55 44 48 53 52 47 45 44 44 42 42 40 39 40 41 43 47 46 46 46 46 45
49 50 51 52 53 55 56 56 57 58 58 60 58 57 58 58 56 55 58 58 60 60 56 52 47 45 51 48 47 44 44 42 43 41 39 45 47 46 47 47 46 44 45
49 53 54 57 58 58 59 60 61 61 62 63 64 63 60 59 59 59 58 58 59 56 56 57 54 49 53 54 46 46 46 46 44 44 42 46 48 48 47 46 45 42 39
32 36 41 45 49 52 55 61 63 63 64 65 66 64 62 62 58 57 57 58 56 55 57 49 50 54 52 52 48 47 48 45 43 44 44 44 46 46 43 43 40 40 38
25 25 26 30 34 41 48 53 55 58 61 63 63 63 60 57 57 57 56 56 51 50 51 54 51 56 53 54 55 50 49 47 45 45 45 44 43 41 39 44 44 44 42

GFSMA_500_spd_126.txt.gz
Wind_Speed
25 24 22 19 19 20 19 17 16 15 14 15 14 15 13 11 11 12 13 14 11 15 13 13 13 15 17 23 26 25 25 26 26 28 28 26 21 19 17 14 12 11 12
25 25 22 21 21 21 20 20 19 16 16 17 16 17 18 16 13 14 13 15 13 13 16 13 12 14 12 11 17 29 26 28 28 29 30 29 24 23 20 17 15 14 13
25 26 25 24 22 23 21 20 21 19 17 18 17 18 19 19 19 16 15 14 16 13 14 16 14 18 15 17 17 19 29 28 29 31 32 31 28 26 23 20 18 16 14
28 28 28 26 25 24 24 23 22 22 20 19 18 18 18 19 20 21 17 17 16 16 13 14 18 19 18 19 16 15 14 25 28 32 33 34 32 29 28 24 20 19 18
32 31 29 29 27 25 26 27 26 24 22 21 20 19 19 19 20 21 21 19 17 15 18 15 14 18 19 20 17 16 18 18 23 34 35 36 34 32 32 28 25 23 20
36 32 30 31 28 27 28 29 29 26 25 24 23 21 21 21 19 21 22 21 20 19 16 19 18 17 20 21 19 20 22 24 24 26 38 38 37 35 33 32 29 26 24
39 34 32 33 32 32 31 31 30 28 28 27 24 24 23 24 22 21 22 23 22 21 21 19 19 19 20 20 21 21 22 23 27 29 28 34 40 38 36 35 33 29 28
42 38 35 34 36 33 33 32 31 30 29 29 26 25 26 25 27 23 24 24 25 24 22 24 22 21 21 22 23 23 25 26 27 29 33 34 38 43 40 39 37 33 31
46 43 37 34 38 37 34 34 32 31 31 31 29 27 27 29 28 25 26 26 25 27 26 25 25 24 23 24 25 25 27 29 30 31 32 31 37 44 44 44 39 37 35
50 46 40 37 39 40 38 36 34 33 33 30 31 29 30 31 30 27 25 28 30 27 29 28 27 27 27 27 26 28 30 28 34 32 31 34 26 39 47 44 42 42 39
52 49 43 41 41 42 42 39 37 35 34 33 32 33 33 33 32 32 30 28 29 31 31 30 29 29 28 28 28 27 33 34 31 31 31 30 31 26 30 43 45 43 44
54 53 48 45 44 45 45 44 40 38 36 36 36 36 36 36 34 33 34 33 32 30 29 31 33 33 32 31 29 28 29 23 27 33 31 31 31 31 30 30 45 46 48
55 57 55 51 48 47 48 46 44 42 41 39 40 40 39 37 37 37 35 34 36 35 32 30 32 33 33 32 31 30 30 29 27 28 32 30 35 36 35 32 35 43 47
61 65 61 55 51 47 48 47 49 44 45 44 44 44 44 43 39 38 38 38 36 37 37 31 30 35 34 34 33 33 31 31 30 30 31 35 33 36 37 35 34 37 47
65 68 64 60 55 50 48 51 49 46 45 46 45 46 47 48 46 42 42 44 45 42 39 35 33 32 34 35 37 37 35 34 34 32 32 34 36 36 37 35 35 35 43
54 70 72 64 54 53 51 52 44 40 41 46 45 41 43 43 39 39 43 45 44 42 43 40 38 35 34 34 37 38 38 38 35 31 32 31 34 36 37 36 34 33 33
69 48 65 62 50 56 54 51 46 37 35 40 41 39 42 42 45 36 43 44 47 44 46 38 41 39 37 37 39 41 40 40 39 37 35 34 33 34 36 34 34 34 34
65 68 58 58 60 51 51 56 44 38 39 41 41 41 42 42 42 42 43 44 42 42 45 49 40 41 42 39 39 37 44 43 41 39 38 35 38 41 38 39 40 37 37
75 67 55 60 56 52 51 38 35 35 34 39 42 45 42 42 45 42 45 44 45 40 42 46 45 42 43 40 45 42 44 43 43 40 40 36 36 38 37 40 41 41 41
59 37 34 34 37 38 39 36 39 37 39 43 47 50 50 44 41 42 42 46 48 49 46 44 42 43 44 47 45 44 43 44 45 43 41 40 38 39 41 42 42 44 45
30 29 32 32 34 39 38 41 44 46 49 49 51 53 57 53 51 49 48 48 48 47 46 48 49 51 51 47 41 42 44 45 46 45 44 41 41 39 41 40 42 45 47
35 31 39 37 38 43 46 47 50 52 52 53 53 56 58 59 54 56 55 52 53 51 43 54 57 54 56 51 50 47 51 51 46 47 47 45 45 43 40 40 38 43 43
20 26 31 35 39 44 47 48 50 52 52 54 55 56 58 59 60 61 59 57 52 52 54 56 58 55 55 54 54 52 50 49 48 51 50 49 48 46 45 41 39 42 46
23 27 32 38 42 46 49 51 54 56 55 55 56 58 58 60 59 61 59 59 57 55 55 57 57 54 53 54 55 55 57 54 51 51 53 51 47 46 46 45 46 45 45
25 28 30 31 33 39 45 49 52 56 58 60 62 63 64 64 63 63 63 61 61 63 62 63 63 60 62 57 54 54 52 53 51 50 51 48 48 47 47 47 48 48 46
23 25 27 28 29 30 33 38 44 49 51 54 57 59 60 61 64 63 64 63 65 64 62 63 62 57 54 48 47 48 49 50 53 52 51 51 50 50 49 47 46 46 46

GFSMA_500_spd_129.txt.gz
Wind_Speed
27 25 22 20 24 22 21 20 20 19 17 16 16 16 15 14 14 13 13 15 15 12 15 10 8 2 6 10 13 21 23 22 23 25 24 24 24 22 19 17 16 13 12
30 28 24 21 24 24 23 22 21 21 19 18 18 18 17 17 17 16 15 15 15 15 13 12 7 8 8 10 4 7 12 24 25 27 26 26 27 26 22 21 20 17 13
33 30 28 23 25 26 24 23 23 22 20 19 20 19 19 19 19 19 17 17 16 15 14 14 13 11 10 10 12 14 14 17 24 29 27 28 28 29 27 25 22 21 17
38 32 29 26 27 26 25 25 25 25 23 21 22 22 20 19 19 21 19 19 18 15 13 12 15 15 15 13 13 12 14 14 8 23 29 31 29 32 30 29 27 24 22
45 36 31 31 28 28 27 28 28 27 25 23 23 23 23 22 21 20 20 20 20 16 15 13 13 15 15 15 16 14 15 15 13 14 19 34 33 33 32 32 31 28 26
51 43 36 33 31 30 29 29 29 29 27 26 25 23 25 24 24 23 20 20 21 21 18 16 15 14 15 16 17 18 18 16 18 21 25 24 37 35 34 35 33 34 30
56 49 41 34 33 32 31 30 32 30 28 29 27 26 25 25 26 26 24 22 23 22 22 20 18 16 15 16 14 17 19 19 20 24 25 27 27 39 38 39 37 36 34
59 55 45 38 37 35 33 32 32 32 32 31 30 29 26 26 28 27 26 27 25 24 23 24 22 21 18 16 17 18 19 22 23 25 28 26 29 31 34 42 42 38 38
64 58 48 43 39 38 36 35 35 34 33 33 34 30 28 28 29 28 28 28 29 28 25 24 25 25 24 21 19 19 19 21 25 27 27 30 28 30 29 37 46 43 43
67 61 54 49 42 41 39 40 38 36 35 34 34 31 30 30 28 29 29 30 33 32 29 26 27 27 27 26 23 23 22 22 23 27 31 33 34 34 30 29 44 47 44
70 62 57 51 45 44 44 42 42 40 37 36 36 35 33 32 31 30 29 30 30 34 34 33 29 29 28 28 28 27 26 23 24 24 25 30 30 31 29 31 28 44 50
69 68 60 56 54 47 47 45 45 44 40 39 39 38 35 35 34 33 31 29 30 31 34 34 33 34 32 30 30 31 30 27 24 24 27 25 28 31 29 27 26 27 33
70 73 63 59 55 50 50 49 47 46 43 42 41 41 40 37 36 36 35 32 31 32 31 34 34 33 35 35 32 31 32 32 26 26 27 27 27 27 28 26 29 30 32
82 54 65 61 59 58 52 52 51 49 47 45 42 43 43 42 41 40 40 37 33 33 32 33 34 34 34 36 35 34 31 32 30 29 27 28 29 29 29 31 32 33 36
81 51 72 69 67 62 58 57 54 53 50 47 43 42 45 46 45 44 46 42 41 40 39 38 39 38 38 36 37 37 34 32 31 32 33 28 28 30 30 31 34 33 31
73 72 74 75 72 68 65 57 57 56 51 47 44 44 46 48 47 42 43 38 39 36 44 40 38 38 37 37 37 42 37 33 33 34 33 33 30 31 32 30 34 33 34
48 43 59 69 65 70 63 62 58 58 52 48 44 42 44 45 43 42 41 35 41 44 34 33 33 36 33 39 38 40 43 42 39 38 37 36 35 33 32 32 29 32 34
74 45 59 65 59 59 61 62 62 50 54 51 47 45 44 43 43 40 43 42 41 39 35 35 30 32 36 36 38 42 42 45 44 40 39 41 39 35 34 34 36 32 35
57 34 45 65 61 38 67 65 68 67 59 53 49 48 46 48 47 43 40 39 40 42 39 37 33 34 35 36 37 41 40 43 46 44 41 41 40 39 37 36 38 38 41
24 31 39 63 60 52 54 67 62 60 57 51 53 52 53 51 50 46 42 42 40 40 41 39 37 36 35 36 39 46 39 42 43 44 45 40 39 42 41 40 39 40 40
36 31 29 31 41 63 36 64 53 47 46 47 43 45 45 46 47 48 49 49 48 46 47 46 43 42 39 39 43 43 41 45 45 46 45 43 43 44 44 44 44 42 41
26 19 21 28 36 29 33 46 38 35 30 36 42 45 48 49 49 51 53 55 57 55 54 51 50 49 46 43 48 46 47 47 48 50 53 54 54 48 46 46 46 46 45
7 19 24 28 26 35 35 31 29 35 46 47 48 50 53 53 53 55 56 56 57 58 59 58 56 51 52 48 54 53 52 51 51 49 50 53 53 50 47 47 48 50 50
19 13 18 19 22 23 30 34 38 43 44 49 52 56 54 56 57 58 59 59 58 58 59 59 58 55 51 58 53 53 53 53 51 50 51 55 54 54 51 49 51 52 53
10 11 16 21 25 27 31 34 38 43 46 48 50 53 56 58 61 61 63 63 64 63 63 62 61 62 58 55 59 59 58 59 58 57 56 56 57 56 56 54 54 54 53
14 14 16 18 21 22 25 28 30 34 36 39 42 46 51 54 57 59 61 63 65 67 65 65 65 64 64 64 66 62 61 60 60 60 58 61 58 54 55 55 51 52 54